<?xml version="1.0" encoding="UTF-8" standalone="no" ?>
<gpx xmlns="http://www.topografix.com/GPX/1/1" xmlns:xsi="http://www.w3.org/2001/XMLSchema-instance" xsi:schemaLocation="http://www.topografix.com/GPX/1/1 http://www.topografix.com/GPX/1/1/gpx.xsd" version="1.1" creator="VisuGPX - https://www.visugpx.com">
  <metadata>
    <name>11039167-Col du Pendu-bis</name>
  </metadata>
  <trk>
    <name><![CDATA[11039167-Col du Pendu-bis]]></name>
    <trkseg>
      <trkpt lat="44.72831" lon="3.83704">
        <ele>964</ele>
        <time>2022-06-06T08:42:57Z</time>
      </trkpt>
      <trkpt lat="44.72681" lon="3.83743">
        <ele>963</ele>
        <time>2022-06-06T08:43:24Z</time>
      </trkpt>
      <trkpt lat="44.72632" lon="3.83769">
        <ele>962</ele>
        <time>2022-06-06T08:43:33Z</time>
      </trkpt>
      <trkpt lat="44.72613" lon="3.83785">
        <ele>962</ele>
        <time>2022-06-06T08:43:37Z</time>
      </trkpt>
      <trkpt lat="44.72566" lon="3.83831">
        <ele>963</ele>
        <time>2022-06-06T08:43:48Z</time>
      </trkpt>
      <trkpt lat="44.72526" lon="3.83876">
        <ele>963</ele>
        <time>2022-06-06T08:43:57Z</time>
      </trkpt>
      <trkpt lat="44.72494" lon="3.83918">
        <ele>965</ele>
        <time>2022-06-06T08:44:04Z</time>
      </trkpt>
      <trkpt lat="44.72482" lon="3.83938">
        <ele>965</ele>
        <time>2022-06-06T08:44:08Z</time>
      </trkpt>
      <trkpt lat="44.72475" lon="3.83953">
        <ele>965</ele>
        <time>2022-06-06T08:44:10Z</time>
      </trkpt>
      <trkpt lat="44.72453" lon="3.83984">
        <ele>964</ele>
        <time>2022-06-06T08:44:16Z</time>
      </trkpt>
      <trkpt lat="44.72443" lon="3.84008">
        <ele>964</ele>
        <time>2022-06-06T08:44:19Z</time>
      </trkpt>
      <trkpt lat="44.72444" lon="3.84017">
        <ele>964</ele>
        <time>2022-06-06T08:44:20Z</time>
      </trkpt>
      <trkpt lat="44.72453" lon="3.84071">
        <ele>964</ele>
        <time>2022-06-06T08:44:27Z</time>
      </trkpt>
      <trkpt lat="44.72449" lon="3.84165">
        <ele>963</ele>
        <time>2022-06-06T08:44:39Z</time>
      </trkpt>
      <trkpt lat="44.72488" lon="3.84373">
        <ele>958</ele>
        <time>2022-06-06T08:45:06Z</time>
      </trkpt>
      <trkpt lat="44.7249" lon="3.84399">
        <ele>958</ele>
        <time>2022-06-06T08:45:10Z</time>
      </trkpt>
      <trkpt lat="44.72485" lon="3.84512">
        <ele>962</ele>
        <time>2022-06-06T08:45:24Z</time>
      </trkpt>
      <trkpt lat="44.72468" lon="3.8461">
        <ele>963</ele>
        <time>2022-06-06T08:45:37Z</time>
      </trkpt>
      <trkpt lat="44.72469" lon="3.84653">
        <ele>962</ele>
        <time>2022-06-06T08:45:42Z</time>
      </trkpt>
      <trkpt lat="44.72479" lon="3.84695">
        <ele>961</ele>
        <time>2022-06-06T08:45:48Z</time>
      </trkpt>
      <trkpt lat="44.72486" lon="3.84737">
        <ele>957</ele>
        <time>2022-06-06T08:45:53Z</time>
      </trkpt>
      <trkpt lat="44.72484" lon="3.84778">
        <ele>952</ele>
        <time>2022-06-06T08:45:58Z</time>
      </trkpt>
      <trkpt lat="44.72487" lon="3.84794">
        <ele>951</ele>
        <time>2022-06-06T08:46:01Z</time>
      </trkpt>
      <trkpt lat="44.72497" lon="3.84808">
        <ele>950</ele>
        <time>2022-06-06T08:46:03Z</time>
      </trkpt>
      <trkpt lat="44.7256" lon="3.84852">
        <ele>950</ele>
        <time>2022-06-06T08:46:16Z</time>
      </trkpt>
      <trkpt lat="44.7257" lon="3.84869">
        <ele>948</ele>
        <time>2022-06-06T08:46:18Z</time>
      </trkpt>
      <trkpt lat="44.72579" lon="3.84894">
        <ele>946</ele>
        <time>2022-06-06T08:46:22Z</time>
      </trkpt>
      <trkpt lat="44.7259" lon="3.84917">
        <ele>943</ele>
        <time>2022-06-06T08:46:25Z</time>
      </trkpt>
      <trkpt lat="44.72629" lon="3.84985">
        <ele>942</ele>
        <time>2022-06-06T08:46:36Z</time>
      </trkpt>
      <trkpt lat="44.72644" lon="3.8502">
        <ele>943</ele>
        <time>2022-06-06T08:46:42Z</time>
      </trkpt>
      <trkpt lat="44.72641" lon="3.85033">
        <ele>943</ele>
        <time>2022-06-06T08:46:43Z</time>
      </trkpt>
      <trkpt lat="44.72633" lon="3.85062">
        <ele>942</ele>
        <time>2022-06-06T08:46:47Z</time>
      </trkpt>
      <trkpt lat="44.72625" lon="3.85107">
        <ele>941</ele>
        <time>2022-06-06T08:46:53Z</time>
      </trkpt>
      <trkpt lat="44.7262" lon="3.85152">
        <ele>939</ele>
        <time>2022-06-06T08:46:59Z</time>
      </trkpt>
      <trkpt lat="44.7262" lon="3.8517">
        <ele>939</ele>
        <time>2022-06-06T08:47:01Z</time>
      </trkpt>
      <trkpt lat="44.72621" lon="3.85199">
        <ele>937</ele>
        <time>2022-06-06T08:47:05Z</time>
      </trkpt>
      <trkpt lat="44.72626" lon="3.85232">
        <ele>936</ele>
        <time>2022-06-06T08:47:09Z</time>
      </trkpt>
      <trkpt lat="44.72627" lon="3.85275">
        <ele>933</ele>
        <time>2022-06-06T08:47:15Z</time>
      </trkpt>
      <trkpt lat="44.72642" lon="3.85335">
        <ele>930</ele>
        <time>2022-06-06T08:47:23Z</time>
      </trkpt>
      <trkpt lat="44.72641" lon="3.85376">
        <ele>927</ele>
        <time>2022-06-06T08:47:28Z</time>
      </trkpt>
      <trkpt lat="44.72638" lon="3.85392">
        <ele>926</ele>
        <time>2022-06-06T08:47:30Z</time>
      </trkpt>
      <trkpt lat="44.72605" lon="3.854">
        <ele>923</ele>
        <time>2022-06-06T08:47:36Z</time>
      </trkpt>
      <trkpt lat="44.72588" lon="3.85401">
        <ele>923</ele>
        <time>2022-06-06T08:47:39Z</time>
      </trkpt>
      <trkpt lat="44.72574" lon="3.85394">
        <ele>922</ele>
        <time>2022-06-06T08:47:41Z</time>
      </trkpt>
      <trkpt lat="44.72567" lon="3.85415">
        <ele>920</ele>
        <time>2022-06-06T08:47:44Z</time>
      </trkpt>
      <trkpt lat="44.72556" lon="3.85434">
        <ele>918</ele>
        <time>2022-06-06T08:47:48Z</time>
      </trkpt>
      <trkpt lat="44.72573" lon="3.85459">
        <ele>917</ele>
        <time>2022-06-06T08:47:52Z</time>
      </trkpt>
      <trkpt lat="44.72571" lon="3.85462">
        <ele>917</ele>
        <time>2022-06-06T08:47:52Z</time>
      </trkpt>
      <trkpt lat="44.72563" lon="3.85473">
        <ele>916</ele>
        <time>2022-06-06T08:47:54Z</time>
      </trkpt>
      <trkpt lat="44.72541" lon="3.85502">
        <ele>913</ele>
        <time>2022-06-06T08:48:00Z</time>
      </trkpt>
      <trkpt lat="44.72538" lon="3.85506">
        <ele>913</ele>
        <time>2022-06-06T08:48:00Z</time>
      </trkpt>
      <trkpt lat="44.72508" lon="3.85547">
        <ele>911</ele>
        <time>2022-06-06T08:48:08Z</time>
      </trkpt>
      <trkpt lat="44.72506" lon="3.8555">
        <ele>911</ele>
        <time>2022-06-06T08:48:08Z</time>
      </trkpt>
      <trkpt lat="44.72491" lon="3.8557">
        <ele>911</ele>
        <time>2022-06-06T08:48:12Z</time>
      </trkpt>
      <trkpt lat="44.7248" lon="3.85583">
        <ele>911</ele>
        <time>2022-06-06T08:48:15Z</time>
      </trkpt>
      <trkpt lat="44.72472" lon="3.85589">
        <ele>912</ele>
        <time>2022-06-06T08:48:16Z</time>
      </trkpt>
      <trkpt lat="44.72448" lon="3.85597">
        <ele>915</ele>
        <time>2022-06-06T08:48:21Z</time>
      </trkpt>
      <trkpt lat="44.72438" lon="3.85599">
        <ele>916</ele>
        <time>2022-06-06T08:48:22Z</time>
      </trkpt>
      <trkpt lat="44.72347" lon="3.85617">
        <ele>923</ele>
        <time>2022-06-06T08:48:39Z</time>
      </trkpt>
      <trkpt lat="44.72331" lon="3.85621">
        <ele>925</ele>
        <time>2022-06-06T08:48:42Z</time>
      </trkpt>
      <trkpt lat="44.72305" lon="3.85626">
        <ele>926</ele>
        <time>2022-06-06T08:48:46Z</time>
      </trkpt>
      <trkpt lat="44.72301" lon="3.85627">
        <ele>927</ele>
        <time>2022-06-06T08:48:47Z</time>
      </trkpt>
      <trkpt lat="44.72271" lon="3.85587">
        <ele>925</ele>
        <time>2022-06-06T08:48:54Z</time>
      </trkpt>
      <trkpt lat="44.72249" lon="3.85563">
        <ele>927</ele>
        <time>2022-06-06T08:48:59Z</time>
      </trkpt>
      <trkpt lat="44.72222" lon="3.85549">
        <ele>929</ele>
        <time>2022-06-06T08:49:05Z</time>
      </trkpt>
      <trkpt lat="44.72201" lon="3.8555">
        <ele>932</ele>
        <time>2022-06-06T08:49:08Z</time>
      </trkpt>
      <trkpt lat="44.72143" lon="3.85559">
        <ele>937</ele>
        <time>2022-06-06T08:49:19Z</time>
      </trkpt>
      <trkpt lat="44.72092" lon="3.85583">
        <ele>941</ele>
        <time>2022-06-06T08:49:28Z</time>
      </trkpt>
      <trkpt lat="44.72074" lon="3.85587">
        <ele>942</ele>
        <time>2022-06-06T08:49:31Z</time>
      </trkpt>
      <trkpt lat="44.71998" lon="3.8558">
        <ele>942</ele>
        <time>2022-06-06T08:49:45Z</time>
      </trkpt>
      <trkpt lat="44.71978" lon="3.85582">
        <ele>943</ele>
        <time>2022-06-06T08:49:49Z</time>
      </trkpt>
      <trkpt lat="44.71874" lon="3.85614">
        <ele>949</ele>
        <time>2022-06-06T08:50:08Z</time>
      </trkpt>
      <trkpt lat="44.71718" lon="3.85598">
        <ele>957</ele>
        <time>2022-06-06T08:50:35Z</time>
      </trkpt>
      <trkpt lat="44.71709" lon="3.856">
        <ele>958</ele>
        <time>2022-06-06T08:50:37Z</time>
      </trkpt>
      <trkpt lat="44.71667" lon="3.85599">
        <ele>960</ele>
        <time>2022-06-06T08:50:44Z</time>
      </trkpt>
      <trkpt lat="44.71654" lon="3.856">
        <ele>961</ele>
        <time>2022-06-06T08:50:47Z</time>
      </trkpt>
      <trkpt lat="44.71638" lon="3.85592">
        <ele>961</ele>
        <time>2022-06-06T08:50:50Z</time>
      </trkpt>
      <trkpt lat="44.71623" lon="3.85576">
        <ele>962</ele>
        <time>2022-06-06T08:50:53Z</time>
      </trkpt>
      <trkpt lat="44.7161" lon="3.85552">
        <ele>962</ele>
        <time>2022-06-06T08:50:57Z</time>
      </trkpt>
      <trkpt lat="44.71584" lon="3.85489">
        <ele>965</ele>
        <time>2022-06-06T08:51:06Z</time>
      </trkpt>
      <trkpt lat="44.71562" lon="3.85451">
        <ele>965</ele>
        <time>2022-06-06T08:51:12Z</time>
      </trkpt>
      <trkpt lat="44.7152" lon="3.85393">
        <ele>969</ele>
        <time>2022-06-06T08:51:23Z</time>
      </trkpt>
      <trkpt lat="44.71503" lon="3.85365">
        <ele>971</ele>
        <time>2022-06-06T08:51:28Z</time>
      </trkpt>
      <trkpt lat="44.71481" lon="3.85332">
        <ele>972</ele>
        <time>2022-06-06T08:51:33Z</time>
      </trkpt>
      <trkpt lat="44.71465" lon="3.85314">
        <ele>973</ele>
        <time>2022-06-06T08:51:37Z</time>
      </trkpt>
      <trkpt lat="44.71316" lon="3.85187">
        <ele>984</ele>
        <time>2022-06-06T08:52:08Z</time>
      </trkpt>
      <trkpt lat="44.71294" lon="3.8517">
        <ele>985</ele>
        <time>2022-06-06T08:52:12Z</time>
      </trkpt>
      <trkpt lat="44.71266" lon="3.85143">
        <ele>986</ele>
        <time>2022-06-06T08:52:18Z</time>
      </trkpt>
      <trkpt lat="44.71217" lon="3.85041">
        <ele>990</ele>
        <time>2022-06-06T08:52:34Z</time>
      </trkpt>
      <trkpt lat="44.71186" lon="3.85001">
        <ele>992</ele>
        <time>2022-06-06T08:52:41Z</time>
      </trkpt>
      <trkpt lat="44.71158" lon="3.84968">
        <ele>995</ele>
        <time>2022-06-06T08:52:48Z</time>
      </trkpt>
      <trkpt lat="44.71136" lon="3.84961">
        <ele>997</ele>
        <time>2022-06-06T08:52:52Z</time>
      </trkpt>
      <trkpt lat="44.71104" lon="3.84962">
        <ele>1000</ele>
        <time>2022-06-06T08:52:58Z</time>
      </trkpt>
      <trkpt lat="44.71073" lon="3.8496">
        <ele>1003</ele>
        <time>2022-06-06T08:53:03Z</time>
      </trkpt>
      <trkpt lat="44.71024" lon="3.8494">
        <ele>1008</ele>
        <time>2022-06-06T08:53:12Z</time>
      </trkpt>
      <trkpt lat="44.70991" lon="3.84943">
        <ele>1010</ele>
        <time>2022-06-06T08:53:18Z</time>
      </trkpt>
      <trkpt lat="44.70957" lon="3.84938">
        <ele>1012</ele>
        <time>2022-06-06T08:53:24Z</time>
      </trkpt>
      <trkpt lat="44.70908" lon="3.84923">
        <ele>1015</ele>
        <time>2022-06-06T08:53:33Z</time>
      </trkpt>
      <trkpt lat="44.70864" lon="3.84901">
        <ele>1017</ele>
        <time>2022-06-06T08:53:41Z</time>
      </trkpt>
      <trkpt lat="44.70817" lon="3.84873">
        <ele>1018</ele>
        <time>2022-06-06T08:53:51Z</time>
      </trkpt>
      <trkpt lat="44.70777" lon="3.84857">
        <ele>1020</ele>
        <time>2022-06-06T08:53:58Z</time>
      </trkpt>
      <trkpt lat="44.70756" lon="3.84848">
        <ele>1021</ele>
        <time>2022-06-06T08:54:02Z</time>
      </trkpt>
      <trkpt lat="44.70691" lon="3.84821">
        <ele>1020</ele>
        <time>2022-06-06T08:54:14Z</time>
      </trkpt>
      <trkpt lat="44.70638" lon="3.84787">
        <ele>1022</ele>
        <time>2022-06-06T08:54:24Z</time>
      </trkpt>
      <trkpt lat="44.70577" lon="3.84757">
        <ele>1023</ele>
        <time>2022-06-06T08:54:36Z</time>
      </trkpt>
      <trkpt lat="44.70546" lon="3.84744">
        <ele>1023</ele>
        <time>2022-06-06T08:54:41Z</time>
      </trkpt>
      <trkpt lat="44.70525" lon="3.84742">
        <ele>1023</ele>
        <time>2022-06-06T08:54:45Z</time>
      </trkpt>
      <trkpt lat="44.70505" lon="3.84741">
        <ele>1022</ele>
        <time>2022-06-06T08:54:49Z</time>
      </trkpt>
      <trkpt lat="44.70479" lon="3.84744">
        <ele>1022</ele>
        <time>2022-06-06T08:54:53Z</time>
      </trkpt>
      <trkpt lat="44.70402" lon="3.8477">
        <ele>1020</ele>
        <time>2022-06-06T08:55:08Z</time>
      </trkpt>
      <trkpt lat="44.70305" lon="3.84779">
        <ele>1018</ele>
        <time>2022-06-06T08:55:25Z</time>
      </trkpt>
      <trkpt lat="44.70217" lon="3.84793">
        <ele>1020</ele>
        <time>2022-06-06T08:55:41Z</time>
      </trkpt>
      <trkpt lat="44.70154" lon="3.84797">
        <ele>1023</ele>
        <time>2022-06-06T08:55:52Z</time>
      </trkpt>
      <trkpt lat="44.70138" lon="3.84797">
        <ele>1023</ele>
        <time>2022-06-06T08:55:55Z</time>
      </trkpt>
      <trkpt lat="44.70109" lon="3.84793">
        <ele>1022</ele>
        <time>2022-06-06T08:56:00Z</time>
      </trkpt>
      <trkpt lat="44.70009" lon="3.84766">
        <ele>1021</ele>
        <time>2022-06-06T08:56:18Z</time>
      </trkpt>
      <trkpt lat="44.69874" lon="3.84761">
        <ele>1023</ele>
        <time>2022-06-06T08:56:42Z</time>
      </trkpt>
      <trkpt lat="44.6985" lon="3.84756">
        <ele>1024</ele>
        <time>2022-06-06T08:56:46Z</time>
      </trkpt>
      <trkpt lat="44.69831" lon="3.84744">
        <ele>1025</ele>
        <time>2022-06-06T08:56:50Z</time>
      </trkpt>
      <trkpt lat="44.69705" lon="3.84634">
        <ele>1042</ele>
        <time>2022-06-06T08:57:16Z</time>
      </trkpt>
      <trkpt lat="44.69676" lon="3.84617">
        <ele>1044</ele>
        <time>2022-06-06T08:57:22Z</time>
      </trkpt>
      <trkpt lat="44.69535" lon="3.84619">
        <ele>1048</ele>
        <time>2022-06-06T08:57:47Z</time>
      </trkpt>
      <trkpt lat="44.69465" lon="3.84633">
        <ele>1049</ele>
        <time>2022-06-06T08:58:00Z</time>
      </trkpt>
      <trkpt lat="44.69415" lon="3.84648">
        <ele>1051</ele>
        <time>2022-06-06T08:58:09Z</time>
      </trkpt>
      <trkpt lat="44.69395" lon="3.8465">
        <ele>1051</ele>
        <time>2022-06-06T08:58:12Z</time>
      </trkpt>
      <trkpt lat="44.69339" lon="3.84648">
        <ele>1049</ele>
        <time>2022-06-06T08:58:22Z</time>
      </trkpt>
      <trkpt lat="44.6929" lon="3.84664">
        <ele>1051</ele>
        <time>2022-06-06T08:58:31Z</time>
      </trkpt>
      <trkpt lat="44.69216" lon="3.84683">
        <ele>1051</ele>
        <time>2022-06-06T08:58:45Z</time>
      </trkpt>
      <trkpt lat="44.69197" lon="3.84685">
        <ele>1051</ele>
        <time>2022-06-06T08:58:48Z</time>
      </trkpt>
      <trkpt lat="44.69162" lon="3.8468">
        <ele>1050</ele>
        <time>2022-06-06T08:58:54Z</time>
      </trkpt>
      <trkpt lat="44.68974" lon="3.84623">
        <ele>1057</ele>
        <time>2022-06-06T08:59:28Z</time>
      </trkpt>
      <trkpt lat="44.68943" lon="3.84603">
        <ele>1058</ele>
        <time>2022-06-06T08:59:35Z</time>
      </trkpt>
      <trkpt lat="44.68909" lon="3.84587">
        <ele>1060</ele>
        <time>2022-06-06T08:59:41Z</time>
      </trkpt>
      <trkpt lat="44.68852" lon="3.84579">
        <ele>1061</ele>
        <time>2022-06-06T08:59:51Z</time>
      </trkpt>
      <trkpt lat="44.68817" lon="3.84583">
        <ele>1062</ele>
        <time>2022-06-06T08:59:57Z</time>
      </trkpt>
      <trkpt lat="44.68778" lon="3.84595">
        <ele>1063</ele>
        <time>2022-06-06T09:00:04Z</time>
      </trkpt>
      <trkpt lat="44.68734" lon="3.84615">
        <ele>1064</ele>
        <time>2022-06-06T09:00:13Z</time>
      </trkpt>
      <trkpt lat="44.68684" lon="3.84636">
        <ele>1066</ele>
        <time>2022-06-06T09:00:22Z</time>
      </trkpt>
      <trkpt lat="44.68648" lon="3.84642">
        <ele>1067</ele>
        <time>2022-06-06T09:00:28Z</time>
      </trkpt>
      <trkpt lat="44.68624" lon="3.8464">
        <ele>1068</ele>
        <time>2022-06-06T09:00:33Z</time>
      </trkpt>
      <trkpt lat="44.686" lon="3.84629">
        <ele>1068</ele>
        <time>2022-06-06T09:00:37Z</time>
      </trkpt>
      <trkpt lat="44.68525" lon="3.84569">
        <ele>1073</ele>
        <time>2022-06-06T09:00:53Z</time>
      </trkpt>
      <trkpt lat="44.68422" lon="3.84507">
        <ele>1085</ele>
        <time>2022-06-06T09:01:12Z</time>
      </trkpt>
      <trkpt lat="44.68405" lon="3.84491">
        <ele>1086</ele>
        <time>2022-06-06T09:01:16Z</time>
      </trkpt>
      <trkpt lat="44.68395" lon="3.84486">
        <ele>1087</ele>
        <time>2022-06-06T09:01:18Z</time>
      </trkpt>
      <trkpt lat="44.68338" lon="3.84473">
        <ele>1090</ele>
        <time>2022-06-06T09:01:28Z</time>
      </trkpt>
      <trkpt lat="44.6832" lon="3.84465">
        <ele>1090</ele>
        <time>2022-06-06T09:01:32Z</time>
      </trkpt>
      <trkpt lat="44.68248" lon="3.84454">
        <ele>1091</ele>
        <time>2022-06-06T09:01:45Z</time>
      </trkpt>
      <trkpt lat="44.68233" lon="3.84447">
        <ele>1092</ele>
        <time>2022-06-06T09:01:47Z</time>
      </trkpt>
      <trkpt lat="44.68217" lon="3.8444">
        <ele>1092</ele>
        <time>2022-06-06T09:01:50Z</time>
      </trkpt>
      <trkpt lat="44.68195" lon="3.84435">
        <ele>1092</ele>
        <time>2022-06-06T09:01:54Z</time>
      </trkpt>
      <trkpt lat="44.6815" lon="3.84403">
        <ele>1092</ele>
        <time>2022-06-06T09:02:03Z</time>
      </trkpt>
      <trkpt lat="44.68098" lon="3.84362">
        <ele>1095</ele>
        <time>2022-06-06T09:02:14Z</time>
      </trkpt>
      <trkpt lat="44.68042" lon="3.84325">
        <ele>1100</ele>
        <time>2022-06-06T09:02:25Z</time>
      </trkpt>
      <trkpt lat="44.67944" lon="3.84269">
        <ele>1108</ele>
        <time>2022-06-06T09:02:44Z</time>
      </trkpt>
      <trkpt lat="44.67928" lon="3.84266">
        <ele>1109</ele>
        <time>2022-06-06T09:02:47Z</time>
      </trkpt>
      <trkpt lat="44.67913" lon="3.84271">
        <ele>1109</ele>
        <time>2022-06-06T09:02:49Z</time>
      </trkpt>
      <trkpt lat="44.67899" lon="3.84283">
        <ele>1109</ele>
        <time>2022-06-06T09:02:52Z</time>
      </trkpt>
      <trkpt lat="44.67827" lon="3.84363">
        <ele>1111</ele>
        <time>2022-06-06T09:03:09Z</time>
      </trkpt>
      <trkpt lat="44.67774" lon="3.84418">
        <ele>1113</ele>
        <time>2022-06-06T09:03:20Z</time>
      </trkpt>
      <trkpt lat="44.67759" lon="3.84429">
        <ele>1113</ele>
        <time>2022-06-06T09:03:23Z</time>
      </trkpt>
      <trkpt lat="44.67752" lon="3.84431">
        <ele>1113</ele>
        <time>2022-06-06T09:03:25Z</time>
      </trkpt>
      <trkpt lat="44.67718" lon="3.84431">
        <ele>1111</ele>
        <time>2022-06-06T09:03:31Z</time>
      </trkpt>
      <trkpt lat="44.67714" lon="3.84429">
        <ele>1110</ele>
        <time>2022-06-06T09:03:31Z</time>
      </trkpt>
      <trkpt lat="44.67711" lon="3.84427">
        <ele>1110</ele>
        <time>2022-06-06T09:03:32Z</time>
      </trkpt>
      <trkpt lat="44.6769" lon="3.84432">
        <ele>1108</ele>
        <time>2022-06-06T09:03:36Z</time>
      </trkpt>
      <trkpt lat="44.67672" lon="3.84442">
        <ele>1108</ele>
        <time>2022-06-06T09:03:39Z</time>
      </trkpt>
      <trkpt lat="44.67658" lon="3.84463">
        <ele>1110</ele>
        <time>2022-06-06T09:03:43Z</time>
      </trkpt>
      <trkpt lat="44.67642" lon="3.84492">
        <ele>1112</ele>
        <time>2022-06-06T09:03:47Z</time>
      </trkpt>
      <trkpt lat="44.67632" lon="3.84505">
        <ele>1113</ele>
        <time>2022-06-06T09:03:50Z</time>
      </trkpt>
      <trkpt lat="44.6762" lon="3.84516">
        <ele>1114</ele>
        <time>2022-06-06T09:03:52Z</time>
      </trkpt>
      <trkpt lat="44.67597" lon="3.84528">
        <ele>1115</ele>
        <time>2022-06-06T09:03:57Z</time>
      </trkpt>
      <trkpt lat="44.67591" lon="3.8453">
        <ele>1115</ele>
        <time>2022-06-06T09:03:58Z</time>
      </trkpt>
      <trkpt lat="44.67581" lon="3.84533">
        <ele>1115</ele>
        <time>2022-06-06T09:04:00Z</time>
      </trkpt>
      <trkpt lat="44.67509" lon="3.84548">
        <ele>1119</ele>
        <time>2022-06-06T09:04:13Z</time>
      </trkpt>
      <trkpt lat="44.67463" lon="3.84559">
        <ele>1124</ele>
        <time>2022-06-06T09:04:21Z</time>
      </trkpt>
      <trkpt lat="44.67391" lon="3.84572">
        <ele>1131</ele>
        <time>2022-06-06T09:04:34Z</time>
      </trkpt>
      <trkpt lat="44.67343" lon="3.84584">
        <ele>1137</ele>
        <time>2022-06-06T09:04:43Z</time>
      </trkpt>
      <trkpt lat="44.67314" lon="3.84601">
        <ele>1141</ele>
        <time>2022-06-06T09:04:48Z</time>
      </trkpt>
      <trkpt lat="44.67293" lon="3.84617">
        <ele>1144</ele>
        <time>2022-06-06T09:04:52Z</time>
      </trkpt>
      <trkpt lat="44.6726" lon="3.84636">
        <ele>1148</ele>
        <time>2022-06-06T09:04:59Z</time>
      </trkpt>
      <trkpt lat="44.67241" lon="3.84641">
        <ele>1150</ele>
        <time>2022-06-06T09:05:02Z</time>
      </trkpt>
      <trkpt lat="44.67153" lon="3.84638">
        <ele>1155</ele>
        <time>2022-06-06T09:05:18Z</time>
      </trkpt>
      <trkpt lat="44.67133" lon="3.84642">
        <ele>1156</ele>
        <time>2022-06-06T09:05:21Z</time>
      </trkpt>
      <trkpt lat="44.67049" lon="3.84676">
        <ele>1159</ele>
        <time>2022-06-06T09:05:37Z</time>
      </trkpt>
      <trkpt lat="44.67007" lon="3.84703">
        <ele>1160</ele>
        <time>2022-06-06T09:05:45Z</time>
      </trkpt>
      <trkpt lat="44.66978" lon="3.84725">
        <ele>1161</ele>
        <time>2022-06-06T09:05:51Z</time>
      </trkpt>
      <trkpt lat="44.66967" lon="3.84728">
        <ele>1161</ele>
        <time>2022-06-06T09:05:53Z</time>
      </trkpt>
      <trkpt lat="44.66954" lon="3.84727">
        <ele>1161</ele>
        <time>2022-06-06T09:05:55Z</time>
      </trkpt>
      <trkpt lat="44.66924" lon="3.84724">
        <ele>1162</ele>
        <time>2022-06-06T09:06:01Z</time>
      </trkpt>
      <trkpt lat="44.66862" lon="3.84718">
        <ele>1164</ele>
        <time>2022-06-06T09:06:12Z</time>
      </trkpt>
      <trkpt lat="44.66729" lon="3.84724">
        <ele>1167</ele>
        <time>2022-06-06T09:06:35Z</time>
      </trkpt>
      <trkpt lat="44.66661" lon="3.84713">
        <ele>1170</ele>
        <time>2022-06-06T09:06:48Z</time>
      </trkpt>
      <trkpt lat="44.66631" lon="3.84703">
        <ele>1170</ele>
        <time>2022-06-06T09:06:53Z</time>
      </trkpt>
      <trkpt lat="44.6655" lon="3.84667">
        <ele>1172</ele>
        <time>2022-06-06T09:07:08Z</time>
      </trkpt>
      <trkpt lat="44.66392" lon="3.84577">
        <ele>1175</ele>
        <time>2022-06-06T09:07:39Z</time>
      </trkpt>
      <trkpt lat="44.66307" lon="3.84522">
        <ele>1172</ele>
        <time>2022-06-06T09:07:55Z</time>
      </trkpt>
      <trkpt lat="44.66287" lon="3.84503">
        <ele>1172</ele>
        <time>2022-06-06T09:08:00Z</time>
      </trkpt>
      <trkpt lat="44.66248" lon="3.84435">
        <ele>1176</ele>
        <time>2022-06-06T09:08:11Z</time>
      </trkpt>
      <trkpt lat="44.66224" lon="3.84411">
        <ele>1177</ele>
        <time>2022-06-06T09:08:16Z</time>
      </trkpt>
      <trkpt lat="44.66173" lon="3.84378">
        <ele>1176</ele>
        <time>2022-06-06T09:08:26Z</time>
      </trkpt>
      <trkpt lat="44.66114" lon="3.84363">
        <ele>1177</ele>
        <time>2022-06-06T09:08:36Z</time>
      </trkpt>
      <trkpt lat="44.66061" lon="3.84371">
        <ele>1177</ele>
        <time>2022-06-06T09:08:46Z</time>
      </trkpt>
      <trkpt lat="44.66021" lon="3.84369">
        <ele>1177</ele>
        <time>2022-06-06T09:08:53Z</time>
      </trkpt>
      <trkpt lat="44.65988" lon="3.84363">
        <ele>1176</ele>
        <time>2022-06-06T09:08:59Z</time>
      </trkpt>
      <trkpt lat="44.65969" lon="3.84364">
        <ele>1175</ele>
        <time>2022-06-06T09:09:02Z</time>
      </trkpt>
      <trkpt lat="44.65944" lon="3.84368">
        <ele>1174</ele>
        <time>2022-06-06T09:09:07Z</time>
      </trkpt>
      <trkpt lat="44.65888" lon="3.84382">
        <ele>1173</ele>
        <time>2022-06-06T09:09:17Z</time>
      </trkpt>
      <trkpt lat="44.65834" lon="3.84403">
        <ele>1172</ele>
        <time>2022-06-06T09:09:27Z</time>
      </trkpt>
      <trkpt lat="44.6578" lon="3.84435">
        <ele>1171</ele>
        <time>2022-06-06T09:09:37Z</time>
      </trkpt>
      <trkpt lat="44.65763" lon="3.8444">
        <ele>1170</ele>
        <time>2022-06-06T09:09:40Z</time>
      </trkpt>
      <trkpt lat="44.65745" lon="3.84442">
        <ele>1170</ele>
        <time>2022-06-06T09:09:44Z</time>
      </trkpt>
      <trkpt lat="44.65732" lon="3.84441">
        <ele>1169</ele>
        <time>2022-06-06T09:09:46Z</time>
      </trkpt>
      <trkpt lat="44.65604" lon="3.84417">
        <ele>1163</ele>
        <time>2022-06-06T09:10:09Z</time>
      </trkpt>
      <trkpt lat="44.65583" lon="3.8441">
        <ele>1161</ele>
        <time>2022-06-06T09:10:13Z</time>
      </trkpt>
      <trkpt lat="44.65558" lon="3.84399">
        <ele>1159</ele>
        <time>2022-06-06T09:10:17Z</time>
      </trkpt>
      <trkpt lat="44.65532" lon="3.84391">
        <ele>1157</ele>
        <time>2022-06-06T09:10:22Z</time>
      </trkpt>
      <trkpt lat="44.6547" lon="3.84378">
        <ele>1155</ele>
        <time>2022-06-06T09:10:33Z</time>
      </trkpt>
      <trkpt lat="44.65452" lon="3.8438">
        <ele>1155</ele>
        <time>2022-06-06T09:10:37Z</time>
      </trkpt>
      <trkpt lat="44.65401" lon="3.84397">
        <ele>1157</ele>
        <time>2022-06-06T09:10:46Z</time>
      </trkpt>
      <trkpt lat="44.65373" lon="3.84413">
        <ele>1159</ele>
        <time>2022-06-06T09:10:51Z</time>
      </trkpt>
      <trkpt lat="44.65359" lon="3.84417">
        <ele>1159</ele>
        <time>2022-06-06T09:10:54Z</time>
      </trkpt>
      <trkpt lat="44.65351" lon="3.84416">
        <ele>1160</ele>
        <time>2022-06-06T09:10:55Z</time>
      </trkpt>
      <trkpt lat="44.65345" lon="3.84408">
        <ele>1160</ele>
        <time>2022-06-06T09:10:57Z</time>
      </trkpt>
      <trkpt lat="44.65342" lon="3.84402">
        <ele>1160</ele>
        <time>2022-06-06T09:10:58Z</time>
      </trkpt>
      <trkpt lat="44.65341" lon="3.84387">
        <ele>1159</ele>
        <time>2022-06-06T09:11:00Z</time>
      </trkpt>
      <trkpt lat="44.65332" lon="3.84238">
        <ele>1162</ele>
        <time>2022-06-06T09:11:19Z</time>
      </trkpt>
      <trkpt lat="44.65331" lon="3.84135">
        <ele>1166</ele>
        <time>2022-06-06T09:11:32Z</time>
      </trkpt>
      <trkpt lat="44.65327" lon="3.8408">
        <ele>1168</ele>
        <time>2022-06-06T09:11:39Z</time>
      </trkpt>
      <trkpt lat="44.65313" lon="3.83983">
        <ele>1170</ele>
        <time>2022-06-06T09:11:51Z</time>
      </trkpt>
      <trkpt lat="44.65312" lon="3.83956">
        <ele>1170</ele>
        <time>2022-06-06T09:11:54Z</time>
      </trkpt>
      <trkpt lat="44.65314" lon="3.83912">
        <ele>1170</ele>
        <time>2022-06-06T09:12:00Z</time>
      </trkpt>
      <trkpt lat="44.65311" lon="3.83905">
        <ele>1170</ele>
        <time>2022-06-06T09:12:01Z</time>
      </trkpt>
      <trkpt lat="44.65307" lon="3.83911">
        <ele>1171</ele>
        <time>2022-06-06T09:12:02Z</time>
      </trkpt>
      <trkpt lat="44.65304" lon="3.83969">
        <ele>1171</ele>
        <time>2022-06-06T09:12:10Z</time>
      </trkpt>
      <trkpt lat="44.65287" lon="3.84121">
        <ele>1173</ele>
        <time>2022-06-06T09:12:29Z</time>
      </trkpt>
      <trkpt lat="44.65284" lon="3.84175">
        <ele>1173</ele>
        <time>2022-06-06T09:12:36Z</time>
      </trkpt>
      <trkpt lat="44.65277" lon="3.84362">
        <ele>1168</ele>
        <time>2022-06-06T09:13:00Z</time>
      </trkpt>
      <trkpt lat="44.65268" lon="3.84392">
        <ele>1169</ele>
        <time>2022-06-06T09:13:04Z</time>
      </trkpt>
      <trkpt lat="44.65236" lon="3.84431">
        <ele>1172</ele>
        <time>2022-06-06T09:13:11Z</time>
      </trkpt>
      <trkpt lat="44.6516" lon="3.84503">
        <ele>1174</ele>
        <time>2022-06-06T09:13:28Z</time>
      </trkpt>
      <trkpt lat="44.65141" lon="3.84515">
        <ele>1174</ele>
        <time>2022-06-06T09:13:31Z</time>
      </trkpt>
      <trkpt lat="44.65122" lon="3.84521">
        <ele>1174</ele>
        <time>2022-06-06T09:13:35Z</time>
      </trkpt>
      <trkpt lat="44.6511" lon="3.84521">
        <ele>1173</ele>
        <time>2022-06-06T09:13:37Z</time>
      </trkpt>
      <trkpt lat="44.65096" lon="3.84528">
        <ele>1173</ele>
        <time>2022-06-06T09:13:39Z</time>
      </trkpt>
      <trkpt lat="44.65081" lon="3.84548">
        <ele>1174</ele>
        <time>2022-06-06T09:13:43Z</time>
      </trkpt>
      <trkpt lat="44.65071" lon="3.84566">
        <ele>1174</ele>
        <time>2022-06-06T09:13:46Z</time>
      </trkpt>
      <trkpt lat="44.65053" lon="3.84585">
        <ele>1174</ele>
        <time>2022-06-06T09:13:50Z</time>
      </trkpt>
      <trkpt lat="44.65035" lon="3.84594">
        <ele>1175</ele>
        <time>2022-06-06T09:13:53Z</time>
      </trkpt>
      <trkpt lat="44.64895" lon="3.84618">
        <ele>1177</ele>
        <time>2022-06-06T09:14:19Z</time>
      </trkpt>
      <trkpt lat="44.6488" lon="3.8463">
        <ele>1178</ele>
        <time>2022-06-06T09:14:22Z</time>
      </trkpt>
      <trkpt lat="44.64869" lon="3.84642">
        <ele>1180</ele>
        <time>2022-06-06T09:14:24Z</time>
      </trkpt>
      <trkpt lat="44.64845" lon="3.84679">
        <ele>1183</ele>
        <time>2022-06-06T09:14:30Z</time>
      </trkpt>
      <trkpt lat="44.64823" lon="3.84721">
        <ele>1186</ele>
        <time>2022-06-06T09:14:37Z</time>
      </trkpt>
      <trkpt lat="44.6478" lon="3.84828">
        <ele>1189</ele>
        <time>2022-06-06T09:14:53Z</time>
      </trkpt>
      <trkpt lat="44.64721" lon="3.84958">
        <ele>1190</ele>
        <time>2022-06-06T09:15:12Z</time>
      </trkpt>
      <trkpt lat="44.64711" lon="3.84987">
        <ele>1190</ele>
        <time>2022-06-06T09:15:16Z</time>
      </trkpt>
      <trkpt lat="44.64701" lon="3.85035">
        <ele>1191</ele>
        <time>2022-06-06T09:15:22Z</time>
      </trkpt>
      <trkpt lat="44.64697" lon="3.85093">
        <ele>1193</ele>
        <time>2022-06-06T09:15:30Z</time>
      </trkpt>
      <trkpt lat="44.64704" lon="3.8519">
        <ele>1196</ele>
        <time>2022-06-06T09:15:42Z</time>
      </trkpt>
      <trkpt lat="44.64719" lon="3.85257">
        <ele>1199</ele>
        <time>2022-06-06T09:15:51Z</time>
      </trkpt>
      <trkpt lat="44.64721" lon="3.85286">
        <ele>1201</ele>
        <time>2022-06-06T09:15:55Z</time>
      </trkpt>
      <trkpt lat="44.64714" lon="3.85361">
        <ele>1203</ele>
        <time>2022-06-06T09:16:04Z</time>
      </trkpt>
      <trkpt lat="44.64713" lon="3.85407">
        <ele>1203</ele>
        <time>2022-06-06T09:16:10Z</time>
      </trkpt>
      <trkpt lat="44.64719" lon="3.85445">
        <ele>1204</ele>
        <time>2022-06-06T09:16:15Z</time>
      </trkpt>
      <trkpt lat="44.64726" lon="3.85471">
        <ele>1204</ele>
        <time>2022-06-06T09:16:19Z</time>
      </trkpt>
      <trkpt lat="44.64737" lon="3.85494">
        <ele>1206</ele>
        <time>2022-06-06T09:16:22Z</time>
      </trkpt>
      <trkpt lat="44.64753" lon="3.85511">
        <ele>1207</ele>
        <time>2022-06-06T09:16:26Z</time>
      </trkpt>
      <trkpt lat="44.64783" lon="3.85532">
        <ele>1209</ele>
        <time>2022-06-06T09:16:32Z</time>
      </trkpt>
      <trkpt lat="44.64837" lon="3.85591">
        <ele>1212</ele>
        <time>2022-06-06T09:16:44Z</time>
      </trkpt>
      <trkpt lat="44.64859" lon="3.85608">
        <ele>1213</ele>
        <time>2022-06-06T09:16:48Z</time>
      </trkpt>
      <trkpt lat="44.64868" lon="3.85619">
        <ele>1214</ele>
        <time>2022-06-06T09:16:50Z</time>
      </trkpt>
      <trkpt lat="44.64874" lon="3.85636">
        <ele>1214</ele>
        <time>2022-06-06T09:16:53Z</time>
      </trkpt>
      <trkpt lat="44.64877" lon="3.85659">
        <ele>1213</ele>
        <time>2022-06-06T09:16:56Z</time>
      </trkpt>
      <trkpt lat="44.64862" lon="3.85859">
        <ele>1222</ele>
        <time>2022-06-06T09:17:21Z</time>
      </trkpt>
      <trkpt lat="44.64861" lon="3.8589">
        <ele>1223</ele>
        <time>2022-06-06T09:17:25Z</time>
      </trkpt>
      <trkpt lat="44.64864" lon="3.85915">
        <ele>1225</ele>
        <time>2022-06-06T09:17:28Z</time>
      </trkpt>
      <trkpt lat="44.64875" lon="3.85966">
        <ele>1227</ele>
        <time>2022-06-06T09:17:35Z</time>
      </trkpt>
      <trkpt lat="44.64888" lon="3.86014">
        <ele>1228</ele>
        <time>2022-06-06T09:17:42Z</time>
      </trkpt>
      <trkpt lat="44.64952" lon="3.86121">
        <ele>1229</ele>
        <time>2022-06-06T09:17:59Z</time>
      </trkpt>
      <trkpt lat="44.64967" lon="3.86155">
        <ele>1229</ele>
        <time>2022-06-06T09:18:04Z</time>
      </trkpt>
      <trkpt lat="44.64979" lon="3.86192">
        <ele>1229</ele>
        <time>2022-06-06T09:18:10Z</time>
      </trkpt>
      <trkpt lat="44.64986" lon="3.86223">
        <ele>1229</ele>
        <time>2022-06-06T09:18:14Z</time>
      </trkpt>
      <trkpt lat="44.64989" lon="3.8625">
        <ele>1229</ele>
        <time>2022-06-06T09:18:17Z</time>
      </trkpt>
      <trkpt lat="44.64997" lon="3.86539">
        <ele>1232</ele>
        <time>2022-06-06T09:18:54Z</time>
      </trkpt>
      <trkpt lat="44.6499" lon="3.86637">
        <ele>1234</ele>
        <time>2022-06-06T09:19:06Z</time>
      </trkpt>
      <trkpt lat="44.64984" lon="3.86673">
        <ele>1234</ele>
        <time>2022-06-06T09:19:11Z</time>
      </trkpt>
      <trkpt lat="44.64976" lon="3.86713">
        <ele>1234</ele>
        <time>2022-06-06T09:19:16Z</time>
      </trkpt>
      <trkpt lat="44.64957" lon="3.86776">
        <ele>1234</ele>
        <time>2022-06-06T09:19:25Z</time>
      </trkpt>
      <trkpt lat="44.64942" lon="3.86833">
        <ele>1234</ele>
        <time>2022-06-06T09:19:32Z</time>
      </trkpt>
      <trkpt lat="44.64919" lon="3.86964">
        <ele>1235</ele>
        <time>2022-06-06T09:19:50Z</time>
      </trkpt>
      <trkpt lat="44.64918" lon="3.86993">
        <ele>1235</ele>
        <time>2022-06-06T09:19:53Z</time>
      </trkpt>
      <trkpt lat="44.64921" lon="3.87067">
        <ele>1233</ele>
        <time>2022-06-06T09:20:03Z</time>
      </trkpt>
      <trkpt lat="44.64923" lon="3.87156">
        <ele>1232</ele>
        <time>2022-06-06T09:20:14Z</time>
      </trkpt>
      <trkpt lat="44.64922" lon="3.87202">
        <ele>1231</ele>
        <time>2022-06-06T09:20:20Z</time>
      </trkpt>
      <trkpt lat="44.64921" lon="3.87228">
        <ele>1230</ele>
        <time>2022-06-06T09:20:23Z</time>
      </trkpt>
      <trkpt lat="44.64916" lon="3.87251">
        <ele>1230</ele>
        <time>2022-06-06T09:20:26Z</time>
      </trkpt>
      <trkpt lat="44.64901" lon="3.87291">
        <ele>1229</ele>
        <time>2022-06-06T09:20:32Z</time>
      </trkpt>
      <trkpt lat="44.64897" lon="3.87305">
        <ele>1229</ele>
        <time>2022-06-06T09:20:34Z</time>
      </trkpt>
      <trkpt lat="44.64897" lon="3.87321">
        <ele>1228</ele>
        <time>2022-06-06T09:20:36Z</time>
      </trkpt>
      <trkpt lat="44.64928" lon="3.87553">
        <ele>1221</ele>
        <time>2022-06-06T09:21:06Z</time>
      </trkpt>
      <trkpt lat="44.64934" lon="3.8757">
        <ele>1220</ele>
        <time>2022-06-06T09:21:08Z</time>
      </trkpt>
      <trkpt lat="44.64942" lon="3.87579">
        <ele>1219</ele>
        <time>2022-06-06T09:21:10Z</time>
      </trkpt>
      <trkpt lat="44.64949" lon="3.87578">
        <ele>1218</ele>
        <time>2022-06-06T09:21:11Z</time>
      </trkpt>
      <trkpt lat="44.64966" lon="3.87571">
        <ele>1217</ele>
        <time>2022-06-06T09:21:14Z</time>
      </trkpt>
      <trkpt lat="44.65007" lon="3.87547">
        <ele>1214</ele>
        <time>2022-06-06T09:21:22Z</time>
      </trkpt>
      <trkpt lat="44.65045" lon="3.87521">
        <ele>1213</ele>
        <time>2022-06-06T09:21:30Z</time>
      </trkpt>
      <trkpt lat="44.65091" lon="3.87499">
        <ele>1211</ele>
        <time>2022-06-06T09:21:38Z</time>
      </trkpt>
      <trkpt lat="44.65131" lon="3.87486">
        <ele>1208</ele>
        <time>2022-06-06T09:21:46Z</time>
      </trkpt>
      <trkpt lat="44.65165" lon="3.87477">
        <ele>1207</ele>
        <time>2022-06-06T09:21:52Z</time>
      </trkpt>
      <trkpt lat="44.65178" lon="3.87476">
        <ele>1205</ele>
        <time>2022-06-06T09:21:54Z</time>
      </trkpt>
      <trkpt lat="44.65191" lon="3.87481">
        <ele>1204</ele>
        <time>2022-06-06T09:21:56Z</time>
      </trkpt>
      <trkpt lat="44.65209" lon="3.87497">
        <ele>1201</ele>
        <time>2022-06-06T09:22:00Z</time>
      </trkpt>
      <trkpt lat="44.65221" lon="3.87525">
        <ele>1199</ele>
        <time>2022-06-06T09:22:04Z</time>
      </trkpt>
      <trkpt lat="44.65222" lon="3.87543">
        <ele>1199</ele>
        <time>2022-06-06T09:22:07Z</time>
      </trkpt>
      <trkpt lat="44.65216" lon="3.87602">
        <ele>1197</ele>
        <time>2022-06-06T09:22:14Z</time>
      </trkpt>
      <trkpt lat="44.65211" lon="3.87625">
        <ele>1195</ele>
        <time>2022-06-06T09:22:17Z</time>
      </trkpt>
      <trkpt lat="44.65205" lon="3.87639">
        <ele>1195</ele>
        <time>2022-06-06T09:22:19Z</time>
      </trkpt>
      <trkpt lat="44.65178" lon="3.8767">
        <ele>1197</ele>
        <time>2022-06-06T09:22:26Z</time>
      </trkpt>
      <trkpt lat="44.65142" lon="3.87726">
        <ele>1192</ele>
        <time>2022-06-06T09:22:35Z</time>
      </trkpt>
      <trkpt lat="44.65105" lon="3.87794">
        <ele>1187</ele>
        <time>2022-06-06T09:22:46Z</time>
      </trkpt>
      <trkpt lat="44.65081" lon="3.87847">
        <ele>1184</ele>
        <time>2022-06-06T09:22:54Z</time>
      </trkpt>
      <trkpt lat="44.64998" lon="3.88064">
        <ele>1174</ele>
        <time>2022-06-06T09:23:25Z</time>
      </trkpt>
      <trkpt lat="44.64992" lon="3.88096">
        <ele>1172</ele>
        <time>2022-06-06T09:23:29Z</time>
      </trkpt>
      <trkpt lat="44.64988" lon="3.88125">
        <ele>1170</ele>
        <time>2022-06-06T09:23:33Z</time>
      </trkpt>
      <trkpt lat="44.64995" lon="3.88232">
        <ele>1162</ele>
        <time>2022-06-06T09:23:47Z</time>
      </trkpt>
      <trkpt lat="44.64993" lon="3.88266">
        <ele>1159</ele>
        <time>2022-06-06T09:23:51Z</time>
      </trkpt>
      <trkpt lat="44.64978" lon="3.88311">
        <ele>1157</ele>
        <time>2022-06-06T09:23:57Z</time>
      </trkpt>
      <trkpt lat="44.64949" lon="3.88364">
        <ele>1154</ele>
        <time>2022-06-06T09:24:06Z</time>
      </trkpt>
      <trkpt lat="44.6494" lon="3.88373">
        <ele>1153</ele>
        <time>2022-06-06T09:24:08Z</time>
      </trkpt>
      <trkpt lat="44.64912" lon="3.8839">
        <ele>1153</ele>
        <time>2022-06-06T09:24:13Z</time>
      </trkpt>
      <trkpt lat="44.64893" lon="3.88396">
        <ele>1150</ele>
        <time>2022-06-06T09:24:17Z</time>
      </trkpt>
      <trkpt lat="44.64879" lon="3.88395">
        <ele>1149</ele>
        <time>2022-06-06T09:24:19Z</time>
      </trkpt>
      <trkpt lat="44.64861" lon="3.88386">
        <ele>1149</ele>
        <time>2022-06-06T09:24:22Z</time>
      </trkpt>
      <trkpt lat="44.64825" lon="3.88356">
        <ele>1153</ele>
        <time>2022-06-06T09:24:30Z</time>
      </trkpt>
      <trkpt lat="44.64795" lon="3.88334">
        <ele>1153</ele>
        <time>2022-06-06T09:24:36Z</time>
      </trkpt>
      <trkpt lat="44.64776" lon="3.88317">
        <ele>1153</ele>
        <time>2022-06-06T09:24:40Z</time>
      </trkpt>
      <trkpt lat="44.6476" lon="3.88299">
        <ele>1155</ele>
        <time>2022-06-06T09:24:44Z</time>
      </trkpt>
      <trkpt lat="44.64755" lon="3.88297">
        <ele>1155</ele>
        <time>2022-06-06T09:24:44Z</time>
      </trkpt>
      <trkpt lat="44.64751" lon="3.883">
        <ele>1153</ele>
        <time>2022-06-06T09:24:45Z</time>
      </trkpt>
      <trkpt lat="44.64751" lon="3.88306">
        <ele>1151</ele>
        <time>2022-06-06T09:24:46Z</time>
      </trkpt>
      <trkpt lat="44.64754" lon="3.88312">
        <ele>1150</ele>
        <time>2022-06-06T09:24:47Z</time>
      </trkpt>
      <trkpt lat="44.64773" lon="3.8833">
        <ele>1149</ele>
        <time>2022-06-06T09:24:51Z</time>
      </trkpt>
      <trkpt lat="44.64818" lon="3.88377">
        <ele>1146</ele>
        <time>2022-06-06T09:25:01Z</time>
      </trkpt>
      <trkpt lat="44.64851" lon="3.88438">
        <ele>1135</ele>
        <time>2022-06-06T09:25:11Z</time>
      </trkpt>
      <trkpt lat="44.64863" lon="3.88457">
        <ele>1133</ele>
        <time>2022-06-06T09:25:14Z</time>
      </trkpt>
      <trkpt lat="44.64874" lon="3.8847">
        <ele>1131</ele>
        <time>2022-06-06T09:25:17Z</time>
      </trkpt>
      <trkpt lat="44.64887" lon="3.88478">
        <ele>1131</ele>
        <time>2022-06-06T09:25:19Z</time>
      </trkpt>
      <trkpt lat="44.64903" lon="3.88484">
        <ele>1132</ele>
        <time>2022-06-06T09:25:22Z</time>
      </trkpt>
      <trkpt lat="44.64923" lon="3.88484">
        <ele>1133</ele>
        <time>2022-06-06T09:25:26Z</time>
      </trkpt>
      <trkpt lat="44.6495" lon="3.88477">
        <ele>1131</ele>
        <time>2022-06-06T09:25:30Z</time>
      </trkpt>
      <trkpt lat="44.64992" lon="3.8846">
        <ele>1130</ele>
        <time>2022-06-06T09:25:38Z</time>
      </trkpt>
      <trkpt lat="44.65018" lon="3.88441">
        <ele>1127</ele>
        <time>2022-06-06T09:25:43Z</time>
      </trkpt>
      <trkpt lat="44.6505" lon="3.8841">
        <ele>1123</ele>
        <time>2022-06-06T09:25:50Z</time>
      </trkpt>
      <trkpt lat="44.6507" lon="3.88384">
        <ele>1121</ele>
        <time>2022-06-06T09:25:55Z</time>
      </trkpt>
      <trkpt lat="44.65086" lon="3.88357">
        <ele>1120</ele>
        <time>2022-06-06T09:26:00Z</time>
      </trkpt>
      <trkpt lat="44.65098" lon="3.88333">
        <ele>1119</ele>
        <time>2022-06-06T09:26:03Z</time>
      </trkpt>
      <trkpt lat="44.65106" lon="3.88309">
        <ele>1117</ele>
        <time>2022-06-06T09:26:07Z</time>
      </trkpt>
      <trkpt lat="44.65116" lon="3.88265">
        <ele>1116</ele>
        <time>2022-06-06T09:26:13Z</time>
      </trkpt>
      <trkpt lat="44.6513" lon="3.88179">
        <ele>1116</ele>
        <time>2022-06-06T09:26:24Z</time>
      </trkpt>
      <trkpt lat="44.65137" lon="3.88156">
        <ele>1115</ele>
        <time>2022-06-06T09:26:27Z</time>
      </trkpt>
      <trkpt lat="44.65148" lon="3.8813">
        <ele>1115</ele>
        <time>2022-06-06T09:26:31Z</time>
      </trkpt>
      <trkpt lat="44.6517" lon="3.88097">
        <ele>1112</ele>
        <time>2022-06-06T09:26:36Z</time>
      </trkpt>
      <trkpt lat="44.6519" lon="3.88073">
        <ele>1112</ele>
        <time>2022-06-06T09:26:41Z</time>
      </trkpt>
      <trkpt lat="44.65209" lon="3.88065">
        <ele>1110</ele>
        <time>2022-06-06T09:26:45Z</time>
      </trkpt>
      <trkpt lat="44.65227" lon="3.88062">
        <ele>1106</ele>
        <time>2022-06-06T09:26:48Z</time>
      </trkpt>
      <trkpt lat="44.65242" lon="3.88053">
        <ele>1105</ele>
        <time>2022-06-06T09:26:51Z</time>
      </trkpt>
      <trkpt lat="44.6526" lon="3.88034">
        <ele>1105</ele>
        <time>2022-06-06T09:26:55Z</time>
      </trkpt>
      <trkpt lat="44.65269" lon="3.88034">
        <ele>1103</ele>
        <time>2022-06-06T09:26:56Z</time>
      </trkpt>
      <trkpt lat="44.65271" lon="3.88041">
        <ele>1101</ele>
        <time>2022-06-06T09:26:57Z</time>
      </trkpt>
      <trkpt lat="44.65269" lon="3.88049">
        <ele>1100</ele>
        <time>2022-06-06T09:26:58Z</time>
      </trkpt>
      <trkpt lat="44.65223" lon="3.88094">
        <ele>1101</ele>
        <time>2022-06-06T09:27:08Z</time>
      </trkpt>
      <trkpt lat="44.6521" lon="3.8811">
        <ele>1101</ele>
        <time>2022-06-06T09:27:11Z</time>
      </trkpt>
      <trkpt lat="44.652" lon="3.88133">
        <ele>1099</ele>
        <time>2022-06-06T09:27:15Z</time>
      </trkpt>
      <trkpt lat="44.65183" lon="3.88186">
        <ele>1097</ele>
        <time>2022-06-06T09:27:22Z</time>
      </trkpt>
      <trkpt lat="44.65179" lon="3.88208">
        <ele>1096</ele>
        <time>2022-06-06T09:27:25Z</time>
      </trkpt>
      <trkpt lat="44.65177" lon="3.88262">
        <ele>1093</ele>
        <time>2022-06-06T09:27:32Z</time>
      </trkpt>
      <trkpt lat="44.65175" lon="3.88293">
        <ele>1092</ele>
        <time>2022-06-06T09:27:36Z</time>
      </trkpt>
      <trkpt lat="44.65174" lon="3.88331">
        <ele>1090</ele>
        <time>2022-06-06T09:27:41Z</time>
      </trkpt>
      <trkpt lat="44.65178" lon="3.88376">
        <ele>1085</ele>
        <time>2022-06-06T09:27:46Z</time>
      </trkpt>
      <trkpt lat="44.65176" lon="3.88421">
        <ele>1081</ele>
        <time>2022-06-06T09:27:52Z</time>
      </trkpt>
      <trkpt lat="44.65169" lon="3.88492">
        <ele>1078</ele>
        <time>2022-06-06T09:28:01Z</time>
      </trkpt>
      <trkpt lat="44.65164" lon="3.88524">
        <ele>1076</ele>
        <time>2022-06-06T09:28:05Z</time>
      </trkpt>
      <trkpt lat="44.65121" lon="3.88726">
        <ele>1062</ele>
        <time>2022-06-06T09:28:32Z</time>
      </trkpt>
      <trkpt lat="44.65098" lon="3.88769">
        <ele>1059</ele>
        <time>2022-06-06T09:28:39Z</time>
      </trkpt>
      <trkpt lat="44.65082" lon="3.88784">
        <ele>1058</ele>
        <time>2022-06-06T09:28:42Z</time>
      </trkpt>
      <trkpt lat="44.65034" lon="3.88802">
        <ele>1056</ele>
        <time>2022-06-06T09:28:51Z</time>
      </trkpt>
      <trkpt lat="44.64984" lon="3.88784">
        <ele>1060</ele>
        <time>2022-06-06T09:29:00Z</time>
      </trkpt>
      <trkpt lat="44.64954" lon="3.88783">
        <ele>1059</ele>
        <time>2022-06-06T09:29:06Z</time>
      </trkpt>
      <trkpt lat="44.64927" lon="3.88803">
        <ele>1052</ele>
        <time>2022-06-06T09:29:11Z</time>
      </trkpt>
      <trkpt lat="44.64915" lon="3.88807">
        <ele>1051</ele>
        <time>2022-06-06T09:29:13Z</time>
      </trkpt>
      <trkpt lat="44.64884" lon="3.88803">
        <ele>1049</ele>
        <time>2022-06-06T09:29:19Z</time>
      </trkpt>
      <trkpt lat="44.64809" lon="3.88779">
        <ele>1053</ele>
        <time>2022-06-06T09:29:32Z</time>
      </trkpt>
      <trkpt lat="44.64796" lon="3.88783">
        <ele>1054</ele>
        <time>2022-06-06T09:29:35Z</time>
      </trkpt>
      <trkpt lat="44.64787" lon="3.8879">
        <ele>1053</ele>
        <time>2022-06-06T09:29:37Z</time>
      </trkpt>
      <trkpt lat="44.64781" lon="3.88802">
        <ele>1051</ele>
        <time>2022-06-06T09:29:39Z</time>
      </trkpt>
      <trkpt lat="44.64773" lon="3.88858">
        <ele>1041</ele>
        <time>2022-06-06T09:29:46Z</time>
      </trkpt>
      <trkpt lat="44.64726" lon="3.88988">
        <ele>1030</ele>
        <time>2022-06-06T09:30:04Z</time>
      </trkpt>
      <trkpt lat="44.64702" lon="3.89032">
        <ele>1024</ele>
        <time>2022-06-06T09:30:11Z</time>
      </trkpt>
      <trkpt lat="44.64668" lon="3.89054">
        <ele>1023</ele>
        <time>2022-06-06T09:30:18Z</time>
      </trkpt>
      <trkpt lat="44.64669" lon="3.89065">
        <ele>1021</ele>
        <time>2022-06-06T09:30:19Z</time>
      </trkpt>
      <trkpt lat="44.64673" lon="3.8907">
        <ele>1020</ele>
        <time>2022-06-06T09:30:20Z</time>
      </trkpt>
      <trkpt lat="44.64678" lon="3.89072">
        <ele>1019</ele>
        <time>2022-06-06T09:30:21Z</time>
      </trkpt>
      <trkpt lat="44.64698" lon="3.89072">
        <ele>1018</ele>
        <time>2022-06-06T09:30:25Z</time>
      </trkpt>
      <trkpt lat="44.6472" lon="3.89071">
        <ele>1016</ele>
        <time>2022-06-06T09:30:29Z</time>
      </trkpt>
      <trkpt lat="44.64747" lon="3.89063">
        <ele>1016</ele>
        <time>2022-06-06T09:30:34Z</time>
      </trkpt>
      <trkpt lat="44.64763" lon="3.89054">
        <ele>1015</ele>
        <time>2022-06-06T09:30:37Z</time>
      </trkpt>
      <trkpt lat="44.64778" lon="3.89042">
        <ele>1015</ele>
        <time>2022-06-06T09:30:40Z</time>
      </trkpt>
      <trkpt lat="44.64838" lon="3.88982">
        <ele>1013</ele>
        <time>2022-06-06T09:30:53Z</time>
      </trkpt>
      <trkpt lat="44.64863" lon="3.88964">
        <ele>1015</ele>
        <time>2022-06-06T09:30:58Z</time>
      </trkpt>
      <trkpt lat="44.64867" lon="3.88961">
        <ele>1015</ele>
        <time>2022-06-06T09:30:59Z</time>
      </trkpt>
      <trkpt lat="44.64868" lon="3.8896">
        <ele>1015</ele>
        <time>2022-06-06T09:30:59Z</time>
      </trkpt>
      <trkpt lat="44.64874" lon="3.88958">
        <ele>1015</ele>
        <time>2022-06-06T09:31:00Z</time>
      </trkpt>
      <trkpt lat="44.6488" lon="3.88961">
        <ele>1015</ele>
        <time>2022-06-06T09:31:01Z</time>
      </trkpt>
      <trkpt lat="44.64884" lon="3.88967">
        <ele>1014</ele>
        <time>2022-06-06T09:31:02Z</time>
      </trkpt>
      <trkpt lat="44.64893" lon="3.88988">
        <ele>1010</ele>
        <time>2022-06-06T09:31:05Z</time>
      </trkpt>
      <trkpt lat="44.64899" lon="3.88996">
        <ele>1009</ele>
        <time>2022-06-06T09:31:07Z</time>
      </trkpt>
      <trkpt lat="44.64919" lon="3.89006">
        <ele>1007</ele>
        <time>2022-06-06T09:31:10Z</time>
      </trkpt>
      <trkpt lat="44.64924" lon="3.89015">
        <ele>1006</ele>
        <time>2022-06-06T09:31:12Z</time>
      </trkpt>
      <trkpt lat="44.64926" lon="3.89024">
        <ele>1005</ele>
        <time>2022-06-06T09:31:13Z</time>
      </trkpt>
      <trkpt lat="44.64932" lon="3.8902">
        <ele>1006</ele>
        <time>2022-06-06T09:31:14Z</time>
      </trkpt>
      <trkpt lat="44.64978" lon="3.89007">
        <ele>1011</ele>
        <time>2022-06-06T09:31:23Z</time>
      </trkpt>
      <trkpt lat="44.64997" lon="3.89005">
        <ele>1013</ele>
        <time>2022-06-06T09:31:26Z</time>
      </trkpt>
      <trkpt lat="44.65011" lon="3.89006">
        <ele>1014</ele>
        <time>2022-06-06T09:31:29Z</time>
      </trkpt>
      <trkpt lat="44.65015" lon="3.89015">
        <ele>1013</ele>
        <time>2022-06-06T09:31:30Z</time>
      </trkpt>
      <trkpt lat="44.6502" lon="3.89017">
        <ele>1013</ele>
        <time>2022-06-06T09:31:31Z</time>
      </trkpt>
      <trkpt lat="44.65033" lon="3.89018">
        <ele>1013</ele>
        <time>2022-06-06T09:31:33Z</time>
      </trkpt>
      <trkpt lat="44.65039" lon="3.89022">
        <ele>1013</ele>
        <time>2022-06-06T09:31:34Z</time>
      </trkpt>
      <trkpt lat="44.65047" lon="3.89031">
        <ele>1012</ele>
        <time>2022-06-06T09:31:36Z</time>
      </trkpt>
      <trkpt lat="44.65078" lon="3.89057">
        <ele>1009</ele>
        <time>2022-06-06T09:31:43Z</time>
      </trkpt>
      <trkpt lat="44.65083" lon="3.89068">
        <ele>1007</ele>
        <time>2022-06-06T09:31:44Z</time>
      </trkpt>
      <trkpt lat="44.65093" lon="3.89066">
        <ele>1007</ele>
        <time>2022-06-06T09:31:46Z</time>
      </trkpt>
      <trkpt lat="44.6513" lon="3.89072">
        <ele>1005</ele>
        <time>2022-06-06T09:31:53Z</time>
      </trkpt>
      <trkpt lat="44.6515" lon="3.89068">
        <ele>1006</ele>
        <time>2022-06-06T09:31:56Z</time>
      </trkpt>
      <trkpt lat="44.65157" lon="3.89098">
        <ele>998</ele>
        <time>2022-06-06T09:32:00Z</time>
      </trkpt>
      <trkpt lat="44.65159" lon="3.89101">
        <ele>998</ele>
        <time>2022-06-06T09:32:01Z</time>
      </trkpt>
      <trkpt lat="44.65177" lon="3.89102">
        <ele>996</ele>
        <time>2022-06-06T09:32:04Z</time>
      </trkpt>
      <trkpt lat="44.65187" lon="3.89105">
        <ele>995</ele>
        <time>2022-06-06T09:32:06Z</time>
      </trkpt>
      <trkpt lat="44.65203" lon="3.89115">
        <ele>992</ele>
        <time>2022-06-06T09:32:09Z</time>
      </trkpt>
      <trkpt lat="44.65231" lon="3.89142">
        <ele>985</ele>
        <time>2022-06-06T09:32:15Z</time>
      </trkpt>
      <trkpt lat="44.65256" lon="3.89153">
        <ele>981</ele>
        <time>2022-06-06T09:32:20Z</time>
      </trkpt>
      <trkpt lat="44.65274" lon="3.89151">
        <ele>980</ele>
        <time>2022-06-06T09:32:23Z</time>
      </trkpt>
      <trkpt lat="44.65275" lon="3.89156">
        <ele>979</ele>
        <time>2022-06-06T09:32:23Z</time>
      </trkpt>
      <trkpt lat="44.6528" lon="3.89165">
        <ele>977</ele>
        <time>2022-06-06T09:32:25Z</time>
      </trkpt>
      <trkpt lat="44.65284" lon="3.89167">
        <ele>976</ele>
        <time>2022-06-06T09:32:26Z</time>
      </trkpt>
      <trkpt lat="44.65289" lon="3.89167">
        <ele>976</ele>
        <time>2022-06-06T09:32:27Z</time>
      </trkpt>
      <trkpt lat="44.6531" lon="3.89158">
        <ele>976</ele>
        <time>2022-06-06T09:32:30Z</time>
      </trkpt>
      <trkpt lat="44.65337" lon="3.89141">
        <ele>977</ele>
        <time>2022-06-06T09:32:36Z</time>
      </trkpt>
      <trkpt lat="44.6537" lon="3.89118">
        <ele>978</ele>
        <time>2022-06-06T09:32:42Z</time>
      </trkpt>
      <trkpt lat="44.65418" lon="3.89089">
        <ele>975</ele>
        <time>2022-06-06T09:32:52Z</time>
      </trkpt>
      <trkpt lat="44.65434" lon="3.89076">
        <ele>975</ele>
        <time>2022-06-06T09:32:55Z</time>
      </trkpt>
      <trkpt lat="44.6545" lon="3.89054">
        <ele>976</ele>
        <time>2022-06-06T09:32:59Z</time>
      </trkpt>
      <trkpt lat="44.65518" lon="3.88947">
        <ele>975</ele>
        <time>2022-06-06T09:33:17Z</time>
      </trkpt>
      <trkpt lat="44.65529" lon="3.88926">
        <ele>974</ele>
        <time>2022-06-06T09:33:20Z</time>
      </trkpt>
      <trkpt lat="44.65534" lon="3.88906">
        <ele>974</ele>
        <time>2022-06-06T09:33:23Z</time>
      </trkpt>
      <trkpt lat="44.65545" lon="3.88852">
        <ele>975</ele>
        <time>2022-06-06T09:33:30Z</time>
      </trkpt>
      <trkpt lat="44.65552" lon="3.88843">
        <ele>974</ele>
        <time>2022-06-06T09:33:32Z</time>
      </trkpt>
      <trkpt lat="44.65566" lon="3.88836">
        <ele>971</ele>
        <time>2022-06-06T09:33:34Z</time>
      </trkpt>
      <trkpt lat="44.65593" lon="3.88818">
        <ele>968</ele>
        <time>2022-06-06T09:33:40Z</time>
      </trkpt>
      <trkpt lat="44.65611" lon="3.888">
        <ele>966</ele>
        <time>2022-06-06T09:33:44Z</time>
      </trkpt>
      <trkpt lat="44.65618" lon="3.88788">
        <ele>966</ele>
        <time>2022-06-06T09:33:46Z</time>
      </trkpt>
      <trkpt lat="44.65622" lon="3.88782">
        <ele>965</ele>
        <time>2022-06-06T09:33:47Z</time>
      </trkpt>
      <trkpt lat="44.65632" lon="3.88763">
        <ele>964</ele>
        <time>2022-06-06T09:33:50Z</time>
      </trkpt>
      <trkpt lat="44.65641" lon="3.88722">
        <ele>963</ele>
        <time>2022-06-06T09:33:55Z</time>
      </trkpt>
      <trkpt lat="44.65651" lon="3.88693">
        <ele>962</ele>
        <time>2022-06-06T09:33:59Z</time>
      </trkpt>
      <trkpt lat="44.65674" lon="3.88658">
        <ele>964</ele>
        <time>2022-06-06T09:34:05Z</time>
      </trkpt>
      <trkpt lat="44.65684" lon="3.88655">
        <ele>968</ele>
        <time>2022-06-06T09:34:07Z</time>
      </trkpt>
      <trkpt lat="44.65692" lon="3.88659">
        <ele>970</ele>
        <time>2022-06-06T09:34:09Z</time>
      </trkpt>
      <trkpt lat="44.65712" lon="3.88683">
        <ele>975</ele>
        <time>2022-06-06T09:34:13Z</time>
      </trkpt>
      <trkpt lat="44.65728" lon="3.88706">
        <ele>977</ele>
        <time>2022-06-06T09:34:17Z</time>
      </trkpt>
      <trkpt lat="44.65736" lon="3.88722">
        <ele>976</ele>
        <time>2022-06-06T09:34:20Z</time>
      </trkpt>
      <trkpt lat="44.65741" lon="3.88743">
        <ele>974</ele>
        <time>2022-06-06T09:34:23Z</time>
      </trkpt>
      <trkpt lat="44.65744" lon="3.88766">
        <ele>972</ele>
        <time>2022-06-06T09:34:25Z</time>
      </trkpt>
      <trkpt lat="44.65748" lon="3.88894">
        <ele>971</ele>
        <time>2022-06-06T09:34:42Z</time>
      </trkpt>
      <trkpt lat="44.65746" lon="3.88925">
        <ele>971</ele>
        <time>2022-06-06T09:34:46Z</time>
      </trkpt>
      <trkpt lat="44.6574" lon="3.88967">
        <ele>974</ele>
        <time>2022-06-06T09:34:51Z</time>
      </trkpt>
      <trkpt lat="44.65719" lon="3.89024">
        <ele>974</ele>
        <time>2022-06-06T09:34:59Z</time>
      </trkpt>
      <trkpt lat="44.65673" lon="3.89089">
        <ele>967</ele>
        <time>2022-06-06T09:35:11Z</time>
      </trkpt>
      <trkpt lat="44.65576" lon="3.89171">
        <ele>966</ele>
        <time>2022-06-06T09:35:31Z</time>
      </trkpt>
      <trkpt lat="44.65515" lon="3.89227">
        <ele>970</ele>
        <time>2022-06-06T09:35:44Z</time>
      </trkpt>
      <trkpt lat="44.65482" lon="3.89249">
        <ele>968</ele>
        <time>2022-06-06T09:35:50Z</time>
      </trkpt>
      <trkpt lat="44.65459" lon="3.89263">
        <ele>969</ele>
        <time>2022-06-06T09:35:55Z</time>
      </trkpt>
      <trkpt lat="44.65433" lon="3.89273">
        <ele>968</ele>
        <time>2022-06-06T09:36:00Z</time>
      </trkpt>
      <trkpt lat="44.65364" lon="3.89283">
        <ele>964</ele>
        <time>2022-06-06T09:36:12Z</time>
      </trkpt>
      <trkpt lat="44.65335" lon="3.893">
        <ele>964</ele>
        <time>2022-06-06T09:36:18Z</time>
      </trkpt>
      <trkpt lat="44.65325" lon="3.89316">
        <ele>965</ele>
        <time>2022-06-06T09:36:20Z</time>
      </trkpt>
      <trkpt lat="44.65317" lon="3.89334">
        <ele>966</ele>
        <time>2022-06-06T09:36:23Z</time>
      </trkpt>
      <trkpt lat="44.65304" lon="3.89385">
        <ele>969</ele>
        <time>2022-06-06T09:36:30Z</time>
      </trkpt>
      <trkpt lat="44.65297" lon="3.89408">
        <ele>971</ele>
        <time>2022-06-06T09:36:33Z</time>
      </trkpt>
      <trkpt lat="44.65287" lon="3.89427">
        <ele>971</ele>
        <time>2022-06-06T09:36:36Z</time>
      </trkpt>
      <trkpt lat="44.65273" lon="3.89447">
        <ele>973</ele>
        <time>2022-06-06T09:36:40Z</time>
      </trkpt>
      <trkpt lat="44.65261" lon="3.89458">
        <ele>973</ele>
        <time>2022-06-06T09:36:42Z</time>
      </trkpt>
      <trkpt lat="44.65227" lon="3.89474">
        <ele>974</ele>
        <time>2022-06-06T09:36:48Z</time>
      </trkpt>
      <trkpt lat="44.65088" lon="3.89531">
        <ele>974</ele>
        <time>2022-06-06T09:37:14Z</time>
      </trkpt>
      <trkpt lat="44.65062" lon="3.8955">
        <ele>973</ele>
        <time>2022-06-06T09:37:19Z</time>
      </trkpt>
      <trkpt lat="44.6504" lon="3.89579">
        <ele>973</ele>
        <time>2022-06-06T09:37:25Z</time>
      </trkpt>
      <trkpt lat="44.65032" lon="3.89599">
        <ele>973</ele>
        <time>2022-06-06T09:37:28Z</time>
      </trkpt>
      <trkpt lat="44.65026" lon="3.89663">
        <ele>978</ele>
        <time>2022-06-06T09:37:36Z</time>
      </trkpt>
      <trkpt lat="44.65027" lon="3.89751">
        <ele>981</ele>
        <time>2022-06-06T09:37:47Z</time>
      </trkpt>
      <trkpt lat="44.65029" lon="3.89796">
        <ele>983</ele>
        <time>2022-06-06T09:37:53Z</time>
      </trkpt>
      <trkpt lat="44.65028" lon="3.89837">
        <ele>983</ele>
        <time>2022-06-06T09:37:58Z</time>
      </trkpt>
      <trkpt lat="44.65021" lon="3.89908">
        <ele>981</ele>
        <time>2022-06-06T09:38:07Z</time>
      </trkpt>
      <trkpt lat="44.65012" lon="3.89947">
        <ele>979</ele>
        <time>2022-06-06T09:38:12Z</time>
      </trkpt>
      <trkpt lat="44.64992" lon="3.9002">
        <ele>978</ele>
        <time>2022-06-06T09:38:22Z</time>
      </trkpt>
      <trkpt lat="44.64989" lon="3.90045">
        <ele>979</ele>
        <time>2022-06-06T09:38:25Z</time>
      </trkpt>
      <trkpt lat="44.64992" lon="3.90072">
        <ele>981</ele>
        <time>2022-06-06T09:38:29Z</time>
      </trkpt>
      <trkpt lat="44.64997" lon="3.90105">
        <ele>984</ele>
        <time>2022-06-06T09:38:33Z</time>
      </trkpt>
      <trkpt lat="44.64996" lon="3.90131">
        <ele>985</ele>
        <time>2022-06-06T09:38:36Z</time>
      </trkpt>
      <trkpt lat="44.64989" lon="3.90155">
        <ele>984</ele>
        <time>2022-06-06T09:38:40Z</time>
      </trkpt>
      <trkpt lat="44.64946" lon="3.90245">
        <ele>980</ele>
        <time>2022-06-06T09:38:53Z</time>
      </trkpt>
      <trkpt lat="44.64921" lon="3.90321">
        <ele>976</ele>
        <time>2022-06-06T09:39:04Z</time>
      </trkpt>
      <trkpt lat="44.64905" lon="3.90347">
        <ele>975</ele>
        <time>2022-06-06T09:39:08Z</time>
      </trkpt>
      <trkpt lat="44.64885" lon="3.90364">
        <ele>975</ele>
        <time>2022-06-06T09:39:12Z</time>
      </trkpt>
      <trkpt lat="44.64873" lon="3.90371">
        <ele>975</ele>
        <time>2022-06-06T09:39:15Z</time>
      </trkpt>
      <trkpt lat="44.64854" lon="3.90375">
        <ele>974</ele>
        <time>2022-06-06T09:39:18Z</time>
      </trkpt>
      <trkpt lat="44.64817" lon="3.90374">
        <ele>973</ele>
        <time>2022-06-06T09:39:25Z</time>
      </trkpt>
      <trkpt lat="44.64801" lon="3.90377">
        <ele>973</ele>
        <time>2022-06-06T09:39:28Z</time>
      </trkpt>
      <trkpt lat="44.64785" lon="3.90384">
        <ele>974</ele>
        <time>2022-06-06T09:39:31Z</time>
      </trkpt>
      <trkpt lat="44.6476" lon="3.90404">
        <ele>975</ele>
        <time>2022-06-06T09:39:36Z</time>
      </trkpt>
      <trkpt lat="44.64652" lon="3.90534">
        <ele>979</ele>
        <time>2022-06-06T09:40:01Z</time>
      </trkpt>
      <trkpt lat="44.64638" lon="3.90558">
        <ele>979</ele>
        <time>2022-06-06T09:40:05Z</time>
      </trkpt>
      <trkpt lat="44.64627" lon="3.90582">
        <ele>978</ele>
        <time>2022-06-06T09:40:09Z</time>
      </trkpt>
      <trkpt lat="44.64619" lon="3.90608">
        <ele>978</ele>
        <time>2022-06-06T09:40:12Z</time>
      </trkpt>
      <trkpt lat="44.64606" lon="3.9067">
        <ele>978</ele>
        <time>2022-06-06T09:40:20Z</time>
      </trkpt>
      <trkpt lat="44.64605" lon="3.90698">
        <ele>978</ele>
        <time>2022-06-06T09:40:24Z</time>
      </trkpt>
      <trkpt lat="44.64606" lon="3.90728">
        <ele>979</ele>
        <time>2022-06-06T09:40:28Z</time>
      </trkpt>
      <trkpt lat="44.64637" lon="3.90864">
        <ele>983</ele>
        <time>2022-06-06T09:40:46Z</time>
      </trkpt>
      <trkpt lat="44.64639" lon="3.90899">
        <ele>984</ele>
        <time>2022-06-06T09:40:50Z</time>
      </trkpt>
      <trkpt lat="44.64634" lon="3.90929">
        <ele>984</ele>
        <time>2022-06-06T09:40:54Z</time>
      </trkpt>
      <trkpt lat="44.64611" lon="3.91002">
        <ele>981</ele>
        <time>2022-06-06T09:41:04Z</time>
      </trkpt>
      <trkpt lat="44.64579" lon="3.9108">
        <ele>980</ele>
        <time>2022-06-06T09:41:16Z</time>
      </trkpt>
      <trkpt lat="44.64554" lon="3.91186">
        <ele>986</ele>
        <time>2022-06-06T09:41:30Z</time>
      </trkpt>
      <trkpt lat="44.64515" lon="3.91302">
        <ele>987</ele>
        <time>2022-06-06T09:41:46Z</time>
      </trkpt>
      <trkpt lat="44.64481" lon="3.91387">
        <ele>986</ele>
        <time>2022-06-06T09:41:58Z</time>
      </trkpt>
      <trkpt lat="44.64478" lon="3.91413">
        <ele>987</ele>
        <time>2022-06-06T09:42:02Z</time>
      </trkpt>
      <trkpt lat="44.64479" lon="3.91431">
        <ele>986</ele>
        <time>2022-06-06T09:42:04Z</time>
      </trkpt>
      <trkpt lat="44.64483" lon="3.91446">
        <ele>986</ele>
        <time>2022-06-06T09:42:06Z</time>
      </trkpt>
      <trkpt lat="44.64496" lon="3.91471">
        <ele>985</ele>
        <time>2022-06-06T09:42:10Z</time>
      </trkpt>
      <trkpt lat="44.64546" lon="3.9153">
        <ele>986</ele>
        <time>2022-06-06T09:42:22Z</time>
      </trkpt>
      <trkpt lat="44.64587" lon="3.91557">
        <ele>988</ele>
        <time>2022-06-06T09:42:30Z</time>
      </trkpt>
      <trkpt lat="44.64606" lon="3.9158">
        <ele>989</ele>
        <time>2022-06-06T09:42:34Z</time>
      </trkpt>
      <trkpt lat="44.64619" lon="3.91603">
        <ele>989</ele>
        <time>2022-06-06T09:42:38Z</time>
      </trkpt>
      <trkpt lat="44.64629" lon="3.91632">
        <ele>988</ele>
        <time>2022-06-06T09:42:42Z</time>
      </trkpt>
      <trkpt lat="44.6467" lon="3.91811">
        <ele>987</ele>
        <time>2022-06-06T09:43:06Z</time>
      </trkpt>
      <trkpt lat="44.64677" lon="3.91833">
        <ele>989</ele>
        <time>2022-06-06T09:43:09Z</time>
      </trkpt>
      <trkpt lat="44.64709" lon="3.9191">
        <ele>993</ele>
        <time>2022-06-06T09:43:20Z</time>
      </trkpt>
      <trkpt lat="44.6474" lon="3.91966">
        <ele>993</ele>
        <time>2022-06-06T09:43:29Z</time>
      </trkpt>
      <trkpt lat="44.6475" lon="3.9199">
        <ele>991</ele>
        <time>2022-06-06T09:43:32Z</time>
      </trkpt>
      <trkpt lat="44.64761" lon="3.92025">
        <ele>991</ele>
        <time>2022-06-06T09:43:37Z</time>
      </trkpt>
      <trkpt lat="44.64787" lon="3.92099">
        <ele>995</ele>
        <time>2022-06-06T09:43:48Z</time>
      </trkpt>
      <trkpt lat="44.64791" lon="3.9212">
        <ele>995</ele>
        <time>2022-06-06T09:43:51Z</time>
      </trkpt>
      <trkpt lat="44.64791" lon="3.92141">
        <ele>994</ele>
        <time>2022-06-06T09:43:53Z</time>
      </trkpt>
      <trkpt lat="44.64789" lon="3.92186">
        <ele>992</ele>
        <time>2022-06-06T09:43:59Z</time>
      </trkpt>
      <trkpt lat="44.64785" lon="3.92223">
        <ele>989</ele>
        <time>2022-06-06T09:44:04Z</time>
      </trkpt>
      <trkpt lat="44.6478" lon="3.92247">
        <ele>988</ele>
        <time>2022-06-06T09:44:07Z</time>
      </trkpt>
      <trkpt lat="44.64752" lon="3.92327">
        <ele>986</ele>
        <time>2022-06-06T09:44:18Z</time>
      </trkpt>
      <trkpt lat="44.64752" lon="3.92345">
        <ele>986</ele>
        <time>2022-06-06T09:44:20Z</time>
      </trkpt>
      <trkpt lat="44.64756" lon="3.92359">
        <ele>986</ele>
        <time>2022-06-06T09:44:22Z</time>
      </trkpt>
      <trkpt lat="44.64777" lon="3.924">
        <ele>988</ele>
        <time>2022-06-06T09:44:29Z</time>
      </trkpt>
      <trkpt lat="44.64783" lon="3.92417">
        <ele>989</ele>
        <time>2022-06-06T09:44:31Z</time>
      </trkpt>
      <trkpt lat="44.64787" lon="3.92454">
        <ele>989</ele>
        <time>2022-06-06T09:44:36Z</time>
      </trkpt>
      <trkpt lat="44.64777" lon="3.92554">
        <ele>987</ele>
        <time>2022-06-06T09:44:49Z</time>
      </trkpt>
      <trkpt lat="44.64775" lon="3.9258">
        <ele>987</ele>
        <time>2022-06-06T09:44:52Z</time>
      </trkpt>
      <trkpt lat="44.64777" lon="3.92598">
        <ele>987</ele>
        <time>2022-06-06T09:44:54Z</time>
      </trkpt>
      <trkpt lat="44.64781" lon="3.92614">
        <ele>988</ele>
        <time>2022-06-06T09:44:56Z</time>
      </trkpt>
      <trkpt lat="44.64789" lon="3.92631">
        <ele>988</ele>
        <time>2022-06-06T09:44:59Z</time>
      </trkpt>
      <trkpt lat="44.64815" lon="3.92665">
        <ele>990</ele>
        <time>2022-06-06T09:45:05Z</time>
      </trkpt>
      <trkpt lat="44.64872" lon="3.92749">
        <ele>990</ele>
        <time>2022-06-06T09:45:20Z</time>
      </trkpt>
      <trkpt lat="44.64901" lon="3.92815">
        <ele>990</ele>
        <time>2022-06-06T09:45:30Z</time>
      </trkpt>
      <trkpt lat="44.65006" lon="3.93078">
        <ele>991</ele>
        <time>2022-06-06T09:46:08Z</time>
      </trkpt>
      <trkpt lat="44.65101" lon="3.93368">
        <ele>991</ele>
        <time>2022-06-06T09:46:48Z</time>
      </trkpt>
      <trkpt lat="44.65116" lon="3.93408">
        <ele>991</ele>
        <time>2022-06-06T09:46:54Z</time>
      </trkpt>
      <trkpt lat="44.65134" lon="3.93443">
        <ele>992</ele>
        <time>2022-06-06T09:47:00Z</time>
      </trkpt>
      <trkpt lat="44.65197" lon="3.93536">
        <ele>995</ele>
        <time>2022-06-06T09:47:16Z</time>
      </trkpt>
      <trkpt lat="44.65247" lon="3.93654">
        <ele>998</ele>
        <time>2022-06-06T09:47:33Z</time>
      </trkpt>
      <trkpt lat="44.65325" lon="3.93776">
        <ele>1001</ele>
        <time>2022-06-06T09:47:54Z</time>
      </trkpt>
      <trkpt lat="44.65335" lon="3.93793">
        <ele>1001</ele>
        <time>2022-06-06T09:47:57Z</time>
      </trkpt>
      <trkpt lat="44.65351" lon="3.93837">
        <ele>1002</ele>
        <time>2022-06-06T09:48:03Z</time>
      </trkpt>
      <trkpt lat="44.6536" lon="3.9388">
        <ele>1005</ele>
        <time>2022-06-06T09:48:09Z</time>
      </trkpt>
      <trkpt lat="44.65359" lon="3.9392">
        <ele>1006</ele>
        <time>2022-06-06T09:48:14Z</time>
      </trkpt>
      <trkpt lat="44.65348" lon="3.93961">
        <ele>1006</ele>
        <time>2022-06-06T09:48:19Z</time>
      </trkpt>
      <trkpt lat="44.65319" lon="3.94011">
        <ele>1006</ele>
        <time>2022-06-06T09:48:27Z</time>
      </trkpt>
      <trkpt lat="44.6525" lon="3.9407">
        <ele>1002</ele>
        <time>2022-06-06T09:48:42Z</time>
      </trkpt>
      <trkpt lat="44.65226" lon="3.941">
        <ele>1003</ele>
        <time>2022-06-06T09:48:48Z</time>
      </trkpt>
      <trkpt lat="44.65204" lon="3.9414">
        <ele>1005</ele>
        <time>2022-06-06T09:48:54Z</time>
      </trkpt>
      <trkpt lat="44.65163" lon="3.94234">
        <ele>1004</ele>
        <time>2022-06-06T09:49:08Z</time>
      </trkpt>
      <trkpt lat="44.65156" lon="3.94252">
        <ele>1004</ele>
        <time>2022-06-06T09:49:10Z</time>
      </trkpt>
      <trkpt lat="44.65124" lon="3.94322">
        <ele>1005</ele>
        <time>2022-06-06T09:49:21Z</time>
      </trkpt>
      <trkpt lat="44.65112" lon="3.94367">
        <ele>1005</ele>
        <time>2022-06-06T09:49:27Z</time>
      </trkpt>
      <trkpt lat="44.65104" lon="3.94404">
        <ele>1004</ele>
        <time>2022-06-06T09:49:32Z</time>
      </trkpt>
      <trkpt lat="44.65107" lon="3.94437">
        <ele>1005</ele>
        <time>2022-06-06T09:49:36Z</time>
      </trkpt>
      <trkpt lat="44.6514" lon="3.94499">
        <ele>1007</ele>
        <time>2022-06-06T09:49:46Z</time>
      </trkpt>
      <trkpt lat="44.65146" lon="3.94523">
        <ele>1007</ele>
        <time>2022-06-06T09:49:49Z</time>
      </trkpt>
      <trkpt lat="44.65138" lon="3.94555">
        <ele>1006</ele>
        <time>2022-06-06T09:49:54Z</time>
      </trkpt>
      <trkpt lat="44.65122" lon="3.94585">
        <ele>1005</ele>
        <time>2022-06-06T09:49:58Z</time>
      </trkpt>
      <trkpt lat="44.65093" lon="3.94635">
        <ele>1008</ele>
        <time>2022-06-06T09:50:06Z</time>
      </trkpt>
      <trkpt lat="44.65086" lon="3.94677">
        <ele>1010</ele>
        <time>2022-06-06T09:50:12Z</time>
      </trkpt>
      <trkpt lat="44.65093" lon="3.948">
        <ele>1017</ele>
        <time>2022-06-06T09:50:28Z</time>
      </trkpt>
      <trkpt lat="44.65097" lon="3.94895">
        <ele>1022</ele>
        <time>2022-06-06T09:50:40Z</time>
      </trkpt>
      <trkpt lat="44.65095" lon="3.94949">
        <ele>1024</ele>
        <time>2022-06-06T09:50:46Z</time>
      </trkpt>
      <trkpt lat="44.65084" lon="3.95046">
        <ele>1026</ele>
        <time>2022-06-06T09:50:59Z</time>
      </trkpt>
      <trkpt lat="44.65075" lon="3.95103">
        <ele>1025</ele>
        <time>2022-06-06T09:51:06Z</time>
      </trkpt>
      <trkpt lat="44.65065" lon="3.95201">
        <ele>1026</ele>
        <time>2022-06-06T09:51:19Z</time>
      </trkpt>
      <trkpt lat="44.65052" lon="3.95299">
        <ele>1027</ele>
        <time>2022-06-06T09:51:31Z</time>
      </trkpt>
      <trkpt lat="44.65057" lon="3.95375">
        <ele>1028</ele>
        <time>2022-06-06T09:51:41Z</time>
      </trkpt>
      <trkpt lat="44.6507" lon="3.95444">
        <ele>1030</ele>
        <time>2022-06-06T09:51:50Z</time>
      </trkpt>
      <trkpt lat="44.65097" lon="3.95516">
        <ele>1031</ele>
        <time>2022-06-06T09:52:00Z</time>
      </trkpt>
      <trkpt lat="44.65102" lon="3.95524">
        <ele>1031</ele>
        <time>2022-06-06T09:52:02Z</time>
      </trkpt>
      <trkpt lat="44.65116" lon="3.95554">
        <ele>1031</ele>
        <time>2022-06-06T09:52:06Z</time>
      </trkpt>
      <trkpt lat="44.65121" lon="3.95581">
        <ele>1030</ele>
        <time>2022-06-06T09:52:10Z</time>
      </trkpt>
      <trkpt lat="44.65153" lon="3.95653">
        <ele>1033</ele>
        <time>2022-06-06T09:52:21Z</time>
      </trkpt>
      <trkpt lat="44.6516" lon="3.95678">
        <ele>1033</ele>
        <time>2022-06-06T09:52:24Z</time>
      </trkpt>
      <trkpt lat="44.6517" lon="3.95803">
        <ele>1033</ele>
        <time>2022-06-06T09:52:40Z</time>
      </trkpt>
      <trkpt lat="44.65171" lon="3.95827">
        <ele>1033</ele>
        <time>2022-06-06T09:52:43Z</time>
      </trkpt>
      <trkpt lat="44.65169" lon="3.95851">
        <ele>1034</ele>
        <time>2022-06-06T09:52:46Z</time>
      </trkpt>
      <trkpt lat="44.65144" lon="3.95975">
        <ele>1034</ele>
        <time>2022-06-06T09:53:02Z</time>
      </trkpt>
      <trkpt lat="44.65136" lon="3.96003">
        <ele>1034</ele>
        <time>2022-06-06T09:53:06Z</time>
      </trkpt>
      <trkpt lat="44.6513" lon="3.9604">
        <ele>1033</ele>
        <time>2022-06-06T09:53:11Z</time>
      </trkpt>
      <trkpt lat="44.65132" lon="3.9612">
        <ele>1036</ele>
        <time>2022-06-06T09:53:21Z</time>
      </trkpt>
      <trkpt lat="44.65128" lon="3.96157">
        <ele>1036</ele>
        <time>2022-06-06T09:53:26Z</time>
      </trkpt>
      <trkpt lat="44.65117" lon="3.96191">
        <ele>1036</ele>
        <time>2022-06-06T09:53:30Z</time>
      </trkpt>
      <trkpt lat="44.65079" lon="3.9626">
        <ele>1034</ele>
        <time>2022-06-06T09:53:42Z</time>
      </trkpt>
      <trkpt lat="44.6505" lon="3.96361">
        <ele>1041</ele>
        <time>2022-06-06T09:53:55Z</time>
      </trkpt>
      <trkpt lat="44.65025" lon="3.96404">
        <ele>1040</ele>
        <time>2022-06-06T09:54:02Z</time>
      </trkpt>
      <trkpt lat="44.64985" lon="3.96434">
        <ele>1037</ele>
        <time>2022-06-06T09:54:10Z</time>
      </trkpt>
      <trkpt lat="44.64955" lon="3.96468">
        <ele>1037</ele>
        <time>2022-06-06T09:54:17Z</time>
      </trkpt>
      <trkpt lat="44.64916" lon="3.96535">
        <ele>1040</ele>
        <time>2022-06-06T09:54:28Z</time>
      </trkpt>
      <trkpt lat="44.64849" lon="3.96611">
        <ele>1038</ele>
        <time>2022-06-06T09:54:44Z</time>
      </trkpt>
      <trkpt lat="44.64833" lon="3.96641">
        <ele>1038</ele>
        <time>2022-06-06T09:54:48Z</time>
      </trkpt>
      <trkpt lat="44.64822" lon="3.9668">
        <ele>1039</ele>
        <time>2022-06-06T09:54:54Z</time>
      </trkpt>
      <trkpt lat="44.64816" lon="3.96737">
        <ele>1041</ele>
        <time>2022-06-06T09:55:01Z</time>
      </trkpt>
      <trkpt lat="44.64798" lon="3.96852">
        <ele>1036</ele>
        <time>2022-06-06T09:55:16Z</time>
      </trkpt>
      <trkpt lat="44.64773" lon="3.96949">
        <ele>1032</ele>
        <time>2022-06-06T09:55:29Z</time>
      </trkpt>
      <trkpt lat="44.64647" lon="3.97312">
        <ele>1032</ele>
        <time>2022-06-06T09:56:20Z</time>
      </trkpt>
      <trkpt lat="44.64642" lon="3.97327">
        <ele>1032</ele>
        <time>2022-06-06T09:56:22Z</time>
      </trkpt>
      <trkpt lat="44.64623" lon="3.97381">
        <ele>1033</ele>
        <time>2022-06-06T09:56:30Z</time>
      </trkpt>
      <trkpt lat="44.64582" lon="3.97444">
        <ele>1036</ele>
        <time>2022-06-06T09:56:41Z</time>
      </trkpt>
      <trkpt lat="44.64494" lon="3.9753">
        <ele>1038</ele>
        <time>2022-06-06T09:57:00Z</time>
      </trkpt>
      <trkpt lat="44.64464" lon="3.97576">
        <ele>1040</ele>
        <time>2022-06-06T09:57:07Z</time>
      </trkpt>
      <trkpt lat="44.64425" lon="3.9767">
        <ele>1042</ele>
        <time>2022-06-06T09:57:21Z</time>
      </trkpt>
      <trkpt lat="44.64377" lon="3.9777">
        <ele>1046</ele>
        <time>2022-06-06T09:57:37Z</time>
      </trkpt>
      <trkpt lat="44.64213" lon="3.9802">
        <ele>1048</ele>
        <time>2022-06-06T09:58:20Z</time>
      </trkpt>
      <trkpt lat="44.64192" lon="3.98068">
        <ele>1048</ele>
        <time>2022-06-06T09:58:27Z</time>
      </trkpt>
      <trkpt lat="44.64168" lon="3.98133">
        <ele>1049</ele>
        <time>2022-06-06T09:58:36Z</time>
      </trkpt>
      <trkpt lat="44.6412" lon="3.98211">
        <ele>1050</ele>
        <time>2022-06-06T09:58:49Z</time>
      </trkpt>
      <trkpt lat="44.64058" lon="3.98331">
        <ele>1051</ele>
        <time>2022-06-06T09:59:08Z</time>
      </trkpt>
      <trkpt lat="44.64051" lon="3.98351">
        <ele>1051</ele>
        <time>2022-06-06T09:59:11Z</time>
      </trkpt>
      <trkpt lat="44.64047" lon="3.98366">
        <ele>1051</ele>
        <time>2022-06-06T09:59:13Z</time>
      </trkpt>
      <trkpt lat="44.64041" lon="3.98426">
        <ele>1052</ele>
        <time>2022-06-06T09:59:20Z</time>
      </trkpt>
      <trkpt lat="44.64011" lon="3.9896">
        <ele>1057</ele>
        <time>2022-06-06T10:00:28Z</time>
      </trkpt>
      <trkpt lat="44.64012" lon="3.99009">
        <ele>1057</ele>
        <time>2022-06-06T10:00:34Z</time>
      </trkpt>
      <trkpt lat="44.64033" lon="3.99243">
        <ele>1067</ele>
        <time>2022-06-06T10:01:04Z</time>
      </trkpt>
      <trkpt lat="44.64037" lon="3.99307">
        <ele>1068</ele>
        <time>2022-06-06T10:01:12Z</time>
      </trkpt>
      <trkpt lat="44.64037" lon="3.99484">
        <ele>1071</ele>
        <time>2022-06-06T10:01:35Z</time>
      </trkpt>
      <trkpt lat="44.6406" lon="3.99684">
        <ele>1077</ele>
        <time>2022-06-06T10:02:00Z</time>
      </trkpt>
      <trkpt lat="44.64055" lon="3.99728">
        <ele>1077</ele>
        <time>2022-06-06T10:02:06Z</time>
      </trkpt>
      <trkpt lat="44.64047" lon="3.99769">
        <ele>1076</ele>
        <time>2022-06-06T10:02:11Z</time>
      </trkpt>
      <trkpt lat="44.64034" lon="3.99802">
        <ele>1074</ele>
        <time>2022-06-06T10:02:16Z</time>
      </trkpt>
      <trkpt lat="44.63981" lon="3.999">
        <ele>1072</ele>
        <time>2022-06-06T10:02:32Z</time>
      </trkpt>
      <trkpt lat="44.63949" lon="3.99979">
        <ele>1074</ele>
        <time>2022-06-06T10:02:43Z</time>
      </trkpt>
      <trkpt lat="44.63942" lon="4.00028">
        <ele>1074</ele>
        <time>2022-06-06T10:02:50Z</time>
      </trkpt>
      <trkpt lat="44.63944" lon="4.00064">
        <ele>1074</ele>
        <time>2022-06-06T10:02:54Z</time>
      </trkpt>
      <trkpt lat="44.63954" lon="4.00139">
        <ele>1076</ele>
        <time>2022-06-06T10:03:04Z</time>
      </trkpt>
      <trkpt lat="44.6395" lon="4.00185">
        <ele>1077</ele>
        <time>2022-06-06T10:03:10Z</time>
      </trkpt>
      <trkpt lat="44.63935" lon="4.00311">
        <ele>1075</ele>
        <time>2022-06-06T10:03:26Z</time>
      </trkpt>
      <trkpt lat="44.63941" lon="4.00354">
        <ele>1076</ele>
        <time>2022-06-06T10:03:31Z</time>
      </trkpt>
      <trkpt lat="44.63959" lon="4.00437">
        <ele>1077</ele>
        <time>2022-06-06T10:03:42Z</time>
      </trkpt>
      <trkpt lat="44.63962" lon="4.00451">
        <ele>1077</ele>
        <time>2022-06-06T10:03:44Z</time>
      </trkpt>
      <trkpt lat="44.63975" lon="4.00506">
        <ele>1078</ele>
        <time>2022-06-06T10:03:52Z</time>
      </trkpt>
      <trkpt lat="44.64" lon="4.00607">
        <ele>1077</ele>
        <time>2022-06-06T10:04:05Z</time>
      </trkpt>
      <trkpt lat="44.64002" lon="4.00622">
        <ele>1077</ele>
        <time>2022-06-06T10:04:07Z</time>
      </trkpt>
      <trkpt lat="44.64013" lon="4.00696">
        <ele>1079</ele>
        <time>2022-06-06T10:04:17Z</time>
      </trkpt>
      <trkpt lat="44.64015" lon="4.00712">
        <ele>1080</ele>
        <time>2022-06-06T10:04:19Z</time>
      </trkpt>
      <trkpt lat="44.64019" lon="4.00748">
        <ele>1081</ele>
        <time>2022-06-06T10:04:23Z</time>
      </trkpt>
      <trkpt lat="44.6406" lon="4.0106">
        <ele>1091</ele>
        <time>2022-06-06T10:05:04Z</time>
      </trkpt>
      <trkpt lat="44.6406" lon="4.01074">
        <ele>1091</ele>
        <time>2022-06-06T10:05:05Z</time>
      </trkpt>
      <trkpt lat="44.64057" lon="4.01093">
        <ele>1091</ele>
        <time>2022-06-06T10:05:08Z</time>
      </trkpt>
      <trkpt lat="44.64049" lon="4.01172">
        <ele>1096</ele>
        <time>2022-06-06T10:05:18Z</time>
      </trkpt>
      <trkpt lat="44.64028" lon="4.01406">
        <ele>1099</ele>
        <time>2022-06-06T10:05:48Z</time>
      </trkpt>
      <trkpt lat="44.6401" lon="4.01576">
        <ele>1095</ele>
        <time>2022-06-06T10:06:09Z</time>
      </trkpt>
      <trkpt lat="44.64004" lon="4.01653">
        <ele>1095</ele>
        <time>2022-06-06T10:06:19Z</time>
      </trkpt>
      <trkpt lat="44.64008" lon="4.01693">
        <ele>1095</ele>
        <time>2022-06-06T10:06:24Z</time>
      </trkpt>
      <trkpt lat="44.64036" lon="4.01841">
        <ele>1104</ele>
        <time>2022-06-06T10:06:44Z</time>
      </trkpt>
      <trkpt lat="44.64042" lon="4.01881">
        <ele>1108</ele>
        <time>2022-06-06T10:06:49Z</time>
      </trkpt>
      <trkpt lat="44.64043" lon="4.01905">
        <ele>1109</ele>
        <time>2022-06-06T10:06:52Z</time>
      </trkpt>
      <trkpt lat="44.64042" lon="4.01931">
        <ele>1111</ele>
        <time>2022-06-06T10:06:55Z</time>
      </trkpt>
      <trkpt lat="44.64038" lon="4.01956">
        <ele>1111</ele>
        <time>2022-06-06T10:06:59Z</time>
      </trkpt>
      <trkpt lat="44.64031" lon="4.01982">
        <ele>1111</ele>
        <time>2022-06-06T10:07:02Z</time>
      </trkpt>
      <trkpt lat="44.64014" lon="4.02024">
        <ele>1108</ele>
        <time>2022-06-06T10:07:08Z</time>
      </trkpt>
      <trkpt lat="44.64002" lon="4.0205">
        <ele>1106</ele>
        <time>2022-06-06T10:07:12Z</time>
      </trkpt>
      <trkpt lat="44.63976" lon="4.02118">
        <ele>1109</ele>
        <time>2022-06-06T10:07:22Z</time>
      </trkpt>
      <trkpt lat="44.63933" lon="4.02218">
        <ele>1109</ele>
        <time>2022-06-06T10:07:37Z</time>
      </trkpt>
      <trkpt lat="44.63925" lon="4.02247">
        <ele>1109</ele>
        <time>2022-06-06T10:07:41Z</time>
      </trkpt>
      <trkpt lat="44.63924" lon="4.02267">
        <ele>1108</ele>
        <time>2022-06-06T10:07:43Z</time>
      </trkpt>
      <trkpt lat="44.63926" lon="4.02366">
        <ele>1110</ele>
        <time>2022-06-06T10:07:56Z</time>
      </trkpt>
      <trkpt lat="44.63939" lon="4.02498">
        <ele>1121</ele>
        <time>2022-06-06T10:08:13Z</time>
      </trkpt>
      <trkpt lat="44.6394" lon="4.02567">
        <ele>1123</ele>
        <time>2022-06-06T10:08:21Z</time>
      </trkpt>
      <trkpt lat="44.63939" lon="4.02658">
        <ele>1126</ele>
        <time>2022-06-06T10:08:33Z</time>
      </trkpt>
      <trkpt lat="44.63936" lon="4.0268">
        <ele>1127</ele>
        <time>2022-06-06T10:08:36Z</time>
      </trkpt>
      <trkpt lat="44.63929" lon="4.02718">
        <ele>1126</ele>
        <time>2022-06-06T10:08:41Z</time>
      </trkpt>
      <trkpt lat="44.6392" lon="4.0275">
        <ele>1125</ele>
        <time>2022-06-06T10:08:45Z</time>
      </trkpt>
      <trkpt lat="44.63898" lon="4.02797">
        <ele>1127</ele>
        <time>2022-06-06T10:08:52Z</time>
      </trkpt>
      <trkpt lat="44.63882" lon="4.02837">
        <ele>1127</ele>
        <time>2022-06-06T10:08:58Z</time>
      </trkpt>
      <trkpt lat="44.63869" lon="4.02884">
        <ele>1129</ele>
        <time>2022-06-06T10:09:04Z</time>
      </trkpt>
      <trkpt lat="44.63862" lon="4.0293">
        <ele>1132</ele>
        <time>2022-06-06T10:09:10Z</time>
      </trkpt>
      <trkpt lat="44.63858" lon="4.02972">
        <ele>1135</ele>
        <time>2022-06-06T10:09:16Z</time>
      </trkpt>
      <trkpt lat="44.63861" lon="4.03002">
        <ele>1138</ele>
        <time>2022-06-06T10:09:19Z</time>
      </trkpt>
      <trkpt lat="44.63867" lon="4.03032">
        <ele>1138</ele>
        <time>2022-06-06T10:09:23Z</time>
      </trkpt>
      <trkpt lat="44.63878" lon="4.03055">
        <ele>1138</ele>
        <time>2022-06-06T10:09:27Z</time>
      </trkpt>
      <trkpt lat="44.63892" lon="4.03074">
        <ele>1139</ele>
        <time>2022-06-06T10:09:30Z</time>
      </trkpt>
      <trkpt lat="44.63914" lon="4.03093">
        <ele>1140</ele>
        <time>2022-06-06T10:09:35Z</time>
      </trkpt>
      <trkpt lat="44.63935" lon="4.03121">
        <ele>1140</ele>
        <time>2022-06-06T10:09:40Z</time>
      </trkpt>
      <trkpt lat="44.63948" lon="4.03146">
        <ele>1139</ele>
        <time>2022-06-06T10:09:44Z</time>
      </trkpt>
      <trkpt lat="44.63957" lon="4.03178">
        <ele>1139</ele>
        <time>2022-06-06T10:09:48Z</time>
      </trkpt>
      <trkpt lat="44.6396" lon="4.03215">
        <ele>1143</ele>
        <time>2022-06-06T10:09:53Z</time>
      </trkpt>
      <trkpt lat="44.63956" lon="4.03244">
        <ele>1145</ele>
        <time>2022-06-06T10:09:57Z</time>
      </trkpt>
      <trkpt lat="44.63946" lon="4.03277">
        <ele>1147</ele>
        <time>2022-06-06T10:10:01Z</time>
      </trkpt>
      <trkpt lat="44.63931" lon="4.03307">
        <ele>1149</ele>
        <time>2022-06-06T10:10:06Z</time>
      </trkpt>
      <trkpt lat="44.63925" lon="4.03328">
        <ele>1151</ele>
        <time>2022-06-06T10:10:09Z</time>
      </trkpt>
      <trkpt lat="44.63922" lon="4.03337">
        <ele>1151</ele>
        <time>2022-06-06T10:10:10Z</time>
      </trkpt>
      <trkpt lat="44.6392" lon="4.03376">
        <ele>1152</ele>
        <time>2022-06-06T10:10:15Z</time>
      </trkpt>
      <trkpt lat="44.63934" lon="4.03496">
        <ele>1158</ele>
        <time>2022-06-06T10:10:30Z</time>
      </trkpt>
      <trkpt lat="44.63953" lon="4.03615">
        <ele>1163</ele>
        <time>2022-06-06T10:10:46Z</time>
      </trkpt>
      <trkpt lat="44.63978" lon="4.03723">
        <ele>1170</ele>
        <time>2022-06-06T10:11:00Z</time>
      </trkpt>
      <trkpt lat="44.63982" lon="4.03754">
        <ele>1171</ele>
        <time>2022-06-06T10:11:04Z</time>
      </trkpt>
      <trkpt lat="44.63996" lon="4.04029">
        <ele>1183</ele>
        <time>2022-06-06T10:11:39Z</time>
      </trkpt>
      <trkpt lat="44.64002" lon="4.04063">
        <ele>1186</ele>
        <time>2022-06-06T10:11:44Z</time>
      </trkpt>
      <trkpt lat="44.64041" lon="4.04175">
        <ele>1195</ele>
        <time>2022-06-06T10:11:59Z</time>
      </trkpt>
      <trkpt lat="44.64045" lon="4.04198">
        <ele>1196</ele>
        <time>2022-06-06T10:12:02Z</time>
      </trkpt>
      <trkpt lat="44.64043" lon="4.0422">
        <ele>1196</ele>
        <time>2022-06-06T10:12:05Z</time>
      </trkpt>
      <trkpt lat="44.6404" lon="4.04235">
        <ele>1195</ele>
        <time>2022-06-06T10:12:07Z</time>
      </trkpt>
      <trkpt lat="44.64032" lon="4.04256">
        <ele>1195</ele>
        <time>2022-06-06T10:12:10Z</time>
      </trkpt>
      <trkpt lat="44.63984" lon="4.04316">
        <ele>1196</ele>
        <time>2022-06-06T10:12:22Z</time>
      </trkpt>
      <trkpt lat="44.6397" lon="4.04341">
        <ele>1196</ele>
        <time>2022-06-06T10:12:26Z</time>
      </trkpt>
      <trkpt lat="44.63961" lon="4.0437">
        <ele>1196</ele>
        <time>2022-06-06T10:12:30Z</time>
      </trkpt>
      <trkpt lat="44.63957" lon="4.0439">
        <ele>1197</ele>
        <time>2022-06-06T10:12:32Z</time>
      </trkpt>
      <trkpt lat="44.63955" lon="4.04476">
        <ele>1205</ele>
        <time>2022-06-06T10:12:43Z</time>
      </trkpt>
      <trkpt lat="44.6395" lon="4.04595">
        <ele>1210</ele>
        <time>2022-06-06T10:12:58Z</time>
      </trkpt>
      <trkpt lat="44.63954" lon="4.04632">
        <ele>1211</ele>
        <time>2022-06-06T10:13:03Z</time>
      </trkpt>
      <trkpt lat="44.6397" lon="4.04697">
        <ele>1218</ele>
        <time>2022-06-06T10:13:12Z</time>
      </trkpt>
      <trkpt lat="44.63971" lon="4.04722">
        <ele>1219</ele>
        <time>2022-06-06T10:13:15Z</time>
      </trkpt>
      <trkpt lat="44.63936" lon="4.04907">
        <ele>1222</ele>
        <time>2022-06-06T10:13:39Z</time>
      </trkpt>
      <trkpt lat="44.63931" lon="4.04927">
        <ele>1223</ele>
        <time>2022-06-06T10:13:42Z</time>
      </trkpt>
      <trkpt lat="44.63918" lon="4.04955">
        <ele>1223</ele>
        <time>2022-06-06T10:13:46Z</time>
      </trkpt>
      <trkpt lat="44.63898" lon="4.04987">
        <ele>1227</ele>
        <time>2022-06-06T10:13:51Z</time>
      </trkpt>
      <trkpt lat="44.63885" lon="4.05002">
        <ele>1228</ele>
        <time>2022-06-06T10:13:54Z</time>
      </trkpt>
      <trkpt lat="44.63858" lon="4.05025">
        <ele>1229</ele>
        <time>2022-06-06T10:14:00Z</time>
      </trkpt>
      <trkpt lat="44.63846" lon="4.05039">
        <ele>1229</ele>
        <time>2022-06-06T10:14:03Z</time>
      </trkpt>
      <trkpt lat="44.63843" lon="4.05046">
        <ele>1229</ele>
        <time>2022-06-06T10:14:04Z</time>
      </trkpt>
      <trkpt lat="44.63842" lon="4.05054">
        <ele>1229</ele>
        <time>2022-06-06T10:14:05Z</time>
      </trkpt>
      <trkpt lat="44.63842" lon="4.05059">
        <ele>1230</ele>
        <time>2022-06-06T10:14:06Z</time>
      </trkpt>
      <trkpt lat="44.63852" lon="4.05082">
        <ele>1232</ele>
        <time>2022-06-06T10:14:09Z</time>
      </trkpt>
      <trkpt lat="44.63855" lon="4.0508">
        <ele>1232</ele>
        <time>2022-06-06T10:14:10Z</time>
      </trkpt>
      <trkpt lat="44.63865" lon="4.05081">
        <ele>1233</ele>
        <time>2022-06-06T10:14:11Z</time>
      </trkpt>
      <trkpt lat="44.63867" lon="4.05084">
        <ele>1233</ele>
        <time>2022-06-06T10:14:12Z</time>
      </trkpt>
      <trkpt lat="44.63881" lon="4.05125">
        <ele>1233</ele>
        <time>2022-06-06T10:14:18Z</time>
      </trkpt>
      <trkpt lat="44.63897" lon="4.05158">
        <ele>1233</ele>
        <time>2022-06-06T10:14:23Z</time>
      </trkpt>
      <trkpt lat="44.63917" lon="4.05181">
        <ele>1233</ele>
        <time>2022-06-06T10:14:27Z</time>
      </trkpt>
      <trkpt lat="44.63953" lon="4.05209">
        <ele>1241</ele>
        <time>2022-06-06T10:14:35Z</time>
      </trkpt>
      <trkpt lat="44.63961" lon="4.0522">
        <ele>1242</ele>
        <time>2022-06-06T10:14:37Z</time>
      </trkpt>
      <trkpt lat="44.63968" lon="4.05234">
        <ele>1242</ele>
        <time>2022-06-06T10:14:39Z</time>
      </trkpt>
      <trkpt lat="44.63983" lon="4.05311">
        <ele>1246</ele>
        <time>2022-06-06T10:14:49Z</time>
      </trkpt>
      <trkpt lat="44.63989" lon="4.05356">
        <ele>1248</ele>
        <time>2022-06-06T10:14:55Z</time>
      </trkpt>
      <trkpt lat="44.63991" lon="4.05386">
        <ele>1250</ele>
        <time>2022-06-06T10:14:58Z</time>
      </trkpt>
      <trkpt lat="44.63989" lon="4.05442">
        <ele>1251</ele>
        <time>2022-06-06T10:15:06Z</time>
      </trkpt>
      <trkpt lat="44.63991" lon="4.05451">
        <ele>1252</ele>
        <time>2022-06-06T10:15:07Z</time>
      </trkpt>
      <trkpt lat="44.63996" lon="4.05457">
        <ele>1254</ele>
        <time>2022-06-06T10:15:08Z</time>
      </trkpt>
      <trkpt lat="44.64003" lon="4.05459">
        <ele>1256</ele>
        <time>2022-06-06T10:15:09Z</time>
      </trkpt>
      <trkpt lat="44.6401" lon="4.05455">
        <ele>1257</ele>
        <time>2022-06-06T10:15:11Z</time>
      </trkpt>
      <trkpt lat="44.64014" lon="4.05447">
        <ele>1258</ele>
        <time>2022-06-06T10:15:12Z</time>
      </trkpt>
      <trkpt lat="44.64015" lon="4.05442">
        <ele>1258</ele>
        <time>2022-06-06T10:15:12Z</time>
      </trkpt>
      <trkpt lat="44.64018" lon="4.05368">
        <ele>1258</ele>
        <time>2022-06-06T10:15:22Z</time>
      </trkpt>
      <trkpt lat="44.64038" lon="4.05221">
        <ele>1267</ele>
        <time>2022-06-06T10:15:41Z</time>
      </trkpt>
      <trkpt lat="44.6404" lon="4.05195">
        <ele>1269</ele>
        <time>2022-06-06T10:15:44Z</time>
      </trkpt>
      <trkpt lat="44.64041" lon="4.05164">
        <ele>1272</ele>
        <time>2022-06-06T10:15:48Z</time>
      </trkpt>
      <trkpt lat="44.64042" lon="4.05127">
        <ele>1271</ele>
        <time>2022-06-06T10:15:53Z</time>
      </trkpt>
      <trkpt lat="44.64044" lon="4.05116">
        <ele>1271</ele>
        <time>2022-06-06T10:15:54Z</time>
      </trkpt>
      <trkpt lat="44.64052" lon="4.05093">
        <ele>1273</ele>
        <time>2022-06-06T10:15:57Z</time>
      </trkpt>
      <trkpt lat="44.64132" lon="4.04954">
        <ele>1283</ele>
        <time>2022-06-06T10:16:20Z</time>
      </trkpt>
      <trkpt lat="44.6421" lon="4.048">
        <ele>1292</ele>
        <time>2022-06-06T10:16:44Z</time>
      </trkpt>
      <trkpt lat="44.64258" lon="4.04733">
        <ele>1299</ele>
        <time>2022-06-06T10:16:56Z</time>
      </trkpt>
      <trkpt lat="44.64288" lon="4.04706">
        <ele>1301</ele>
        <time>2022-06-06T10:17:02Z</time>
      </trkpt>
      <trkpt lat="44.64309" lon="4.04693">
        <ele>1302</ele>
        <time>2022-06-06T10:17:06Z</time>
      </trkpt>
      <trkpt lat="44.64321" lon="4.04688">
        <ele>1303</ele>
        <time>2022-06-06T10:17:09Z</time>
      </trkpt>
      <trkpt lat="44.64407" lon="4.04662">
        <ele>1315</ele>
        <time>2022-06-06T10:17:24Z</time>
      </trkpt>
      <trkpt lat="44.64419" lon="4.04655">
        <ele>1317</ele>
        <time>2022-06-06T10:17:27Z</time>
      </trkpt>
      <trkpt lat="44.64429" lon="4.04644">
        <ele>1319</ele>
        <time>2022-06-06T10:17:29Z</time>
      </trkpt>
      <trkpt lat="44.64438" lon="4.0463">
        <ele>1320</ele>
        <time>2022-06-06T10:17:31Z</time>
      </trkpt>
      <trkpt lat="44.64447" lon="4.04605">
        <ele>1320</ele>
        <time>2022-06-06T10:17:35Z</time>
      </trkpt>
      <trkpt lat="44.64467" lon="4.0453">
        <ele>1322</ele>
        <time>2022-06-06T10:17:45Z</time>
      </trkpt>
      <trkpt lat="44.64472" lon="4.04517">
        <ele>1323</ele>
        <time>2022-06-06T10:17:47Z</time>
      </trkpt>
      <trkpt lat="44.64499" lon="4.0446">
        <ele>1326</ele>
        <time>2022-06-06T10:17:55Z</time>
      </trkpt>
      <trkpt lat="44.64553" lon="4.04355">
        <ele>1331</ele>
        <time>2022-06-06T10:18:12Z</time>
      </trkpt>
      <trkpt lat="44.64562" lon="4.04341">
        <ele>1332</ele>
        <time>2022-06-06T10:18:14Z</time>
      </trkpt>
      <trkpt lat="44.64568" lon="4.04337">
        <ele>1333</ele>
        <time>2022-06-06T10:18:15Z</time>
      </trkpt>
      <trkpt lat="44.64576" lon="4.04338">
        <ele>1335</ele>
        <time>2022-06-06T10:18:17Z</time>
      </trkpt>
      <trkpt lat="44.64583" lon="4.04348">
        <ele>1338</ele>
        <time>2022-06-06T10:18:19Z</time>
      </trkpt>
      <trkpt lat="44.64584" lon="4.04352">
        <ele>1339</ele>
        <time>2022-06-06T10:18:19Z</time>
      </trkpt>
      <trkpt lat="44.64584" lon="4.04355">
        <ele>1339</ele>
        <time>2022-06-06T10:18:20Z</time>
      </trkpt>
      <trkpt lat="44.64581" lon="4.04366">
        <ele>1340</ele>
        <time>2022-06-06T10:18:21Z</time>
      </trkpt>
      <trkpt lat="44.64567" lon="4.04392">
        <ele>1339</ele>
        <time>2022-06-06T10:18:25Z</time>
      </trkpt>
      <trkpt lat="44.64555" lon="4.04427">
        <ele>1340</ele>
        <time>2022-06-06T10:18:30Z</time>
      </trkpt>
      <trkpt lat="44.64552" lon="4.04448">
        <ele>1341</ele>
        <time>2022-06-06T10:18:33Z</time>
      </trkpt>
      <trkpt lat="44.64543" lon="4.04539">
        <ele>1348</ele>
        <time>2022-06-06T10:18:44Z</time>
      </trkpt>
      <trkpt lat="44.64533" lon="4.04604">
        <ele>1350</ele>
        <time>2022-06-06T10:18:53Z</time>
      </trkpt>
      <trkpt lat="44.64515" lon="4.04702">
        <ele>1355</ele>
        <time>2022-06-06T10:19:06Z</time>
      </trkpt>
      <trkpt lat="44.64497" lon="4.04768">
        <ele>1360</ele>
        <time>2022-06-06T10:19:15Z</time>
      </trkpt>
      <trkpt lat="44.64488" lon="4.04792">
        <ele>1361</ele>
        <time>2022-06-06T10:19:18Z</time>
      </trkpt>
      <trkpt lat="44.64472" lon="4.04824">
        <ele>1363</ele>
        <time>2022-06-06T10:19:23Z</time>
      </trkpt>
      <trkpt lat="44.64456" lon="4.04848">
        <ele>1363</ele>
        <time>2022-06-06T10:19:27Z</time>
      </trkpt>
      <trkpt lat="44.64407" lon="4.04909">
        <ele>1363</ele>
        <time>2022-06-06T10:19:39Z</time>
      </trkpt>
      <trkpt lat="44.64403" lon="4.04918">
        <ele>1364</ele>
        <time>2022-06-06T10:19:40Z</time>
      </trkpt>
      <trkpt lat="44.64402" lon="4.04926">
        <ele>1364</ele>
        <time>2022-06-06T10:19:41Z</time>
      </trkpt>
      <trkpt lat="44.64404" lon="4.04935">
        <ele>1366</ele>
        <time>2022-06-06T10:19:42Z</time>
      </trkpt>
      <trkpt lat="44.64407" lon="4.04939">
        <ele>1367</ele>
        <time>2022-06-06T10:19:43Z</time>
      </trkpt>
      <trkpt lat="44.6441" lon="4.04942">
        <ele>1368</ele>
        <time>2022-06-06T10:19:44Z</time>
      </trkpt>
      <trkpt lat="44.64413" lon="4.04944">
        <ele>1368</ele>
        <time>2022-06-06T10:19:44Z</time>
      </trkpt>
      <trkpt lat="44.64416" lon="4.04944">
        <ele>1369</ele>
        <time>2022-06-06T10:19:45Z</time>
      </trkpt>
      <trkpt lat="44.64424" lon="4.04939">
        <ele>1370</ele>
        <time>2022-06-06T10:19:46Z</time>
      </trkpt>
      <trkpt lat="44.64435" lon="4.0492">
        <ele>1371</ele>
        <time>2022-06-06T10:19:50Z</time>
      </trkpt>
      <trkpt lat="44.64445" lon="4.04904">
        <ele>1371</ele>
        <time>2022-06-06T10:19:52Z</time>
      </trkpt>
      <trkpt lat="44.64453" lon="4.04896">
        <ele>1371</ele>
        <time>2022-06-06T10:19:54Z</time>
      </trkpt>
      <trkpt lat="44.64515" lon="4.04839">
        <ele>1376</ele>
        <time>2022-06-06T10:20:07Z</time>
      </trkpt>
      <trkpt lat="44.64536" lon="4.04816">
        <ele>1378</ele>
        <time>2022-06-06T10:20:12Z</time>
      </trkpt>
      <trkpt lat="44.64563" lon="4.04776">
        <ele>1381</ele>
        <time>2022-06-06T10:20:19Z</time>
      </trkpt>
      <trkpt lat="44.646" lon="4.04717">
        <ele>1384</ele>
        <time>2022-06-06T10:20:29Z</time>
      </trkpt>
      <trkpt lat="44.64633" lon="4.04672">
        <ele>1388</ele>
        <time>2022-06-06T10:20:37Z</time>
      </trkpt>
      <trkpt lat="44.64798" lon="4.04527">
        <ele>1409</ele>
        <time>2022-06-06T10:21:12Z</time>
      </trkpt>
      <trkpt lat="44.64812" lon="4.04514">
        <ele>1411</ele>
        <time>2022-06-06T10:21:15Z</time>
      </trkpt>
      <trkpt lat="44.64841" lon="4.04487">
        <ele>1414</ele>
        <time>2022-06-06T10:21:21Z</time>
      </trkpt>
      <trkpt lat="44.64864" lon="4.04466">
        <ele>1416</ele>
        <time>2022-06-06T10:21:26Z</time>
      </trkpt>
      <trkpt lat="44.64871" lon="4.0446">
        <ele>1417</ele>
        <time>2022-06-06T10:21:27Z</time>
      </trkpt>
      <trkpt lat="44.64891" lon="4.04445">
        <ele>1419</ele>
        <time>2022-06-06T10:21:31Z</time>
      </trkpt>
      <trkpt lat="44.64955" lon="4.04401">
        <ele>1428</ele>
        <time>2022-06-06T10:21:44Z</time>
      </trkpt>
      <trkpt lat="44.64961" lon="4.04395">
        <ele>1428</ele>
        <time>2022-06-06T10:21:45Z</time>
      </trkpt>
      <trkpt lat="44.64968" lon="4.04384">
        <ele>1429</ele>
        <time>2022-06-06T10:21:47Z</time>
      </trkpt>
      <trkpt lat="44.64975" lon="4.04367">
        <ele>1428</ele>
        <time>2022-06-06T10:21:50Z</time>
      </trkpt>
      <trkpt lat="44.65016" lon="4.04267">
        <ele>1428</ele>
        <time>2022-06-06T10:22:04Z</time>
      </trkpt>
      <trkpt lat="44.65043" lon="4.04202">
        <ele>1428</ele>
        <time>2022-06-06T10:22:14Z</time>
      </trkpt>
      <trkpt lat="44.65058" lon="4.04164">
        <ele>1429</ele>
        <time>2022-06-06T10:22:19Z</time>
      </trkpt>
      <trkpt lat="44.65073" lon="4.04128">
        <ele>1429</ele>
        <time>2022-06-06T10:22:24Z</time>
      </trkpt>
      <trkpt lat="44.65109" lon="4.04039">
        <ele>1427</ele>
        <time>2022-06-06T10:22:37Z</time>
      </trkpt>
      <trkpt lat="44.65125" lon="4.03996">
        <ele>1426</ele>
        <time>2022-06-06T10:22:44Z</time>
      </trkpt>
      <trkpt lat="44.65173" lon="4.03837">
        <ele>1422</ele>
        <time>2022-06-06T10:23:05Z</time>
      </trkpt>
      <trkpt lat="44.65199" lon="4.03727">
        <ele>1416</ele>
        <time>2022-06-06T10:23:20Z</time>
      </trkpt>
      <trkpt lat="44.65203" lon="4.03692">
        <ele>1415</ele>
        <time>2022-06-06T10:23:25Z</time>
      </trkpt>
      <trkpt lat="44.65204" lon="4.03681">
        <ele>1414</ele>
        <time>2022-06-06T10:23:26Z</time>
      </trkpt>
      <trkpt lat="44.65203" lon="4.03667">
        <ele>1414</ele>
        <time>2022-06-06T10:23:28Z</time>
      </trkpt>
      <trkpt lat="44.65188" lon="4.03366">
        <ele>1410</ele>
        <time>2022-06-06T10:24:06Z</time>
      </trkpt>
      <trkpt lat="44.65182" lon="4.03273">
        <ele>1406</ele>
        <time>2022-06-06T10:24:18Z</time>
      </trkpt>
      <trkpt lat="44.65181" lon="4.03244">
        <ele>1404</ele>
        <time>2022-06-06T10:24:21Z</time>
      </trkpt>
      <trkpt lat="44.65189" lon="4.03156">
        <ele>1399</ele>
        <time>2022-06-06T10:24:33Z</time>
      </trkpt>
      <trkpt lat="44.65192" lon="4.03142">
        <ele>1399</ele>
        <time>2022-06-06T10:24:35Z</time>
      </trkpt>
      <trkpt lat="44.65195" lon="4.03128">
        <ele>1399</ele>
        <time>2022-06-06T10:24:36Z</time>
      </trkpt>
      <trkpt lat="44.65198" lon="4.03115">
        <ele>1399</ele>
        <time>2022-06-06T10:24:38Z</time>
      </trkpt>
      <trkpt lat="44.65206" lon="4.03097">
        <ele>1398</ele>
        <time>2022-06-06T10:24:41Z</time>
      </trkpt>
      <trkpt lat="44.65213" lon="4.03087">
        <ele>1398</ele>
        <time>2022-06-06T10:24:43Z</time>
      </trkpt>
      <trkpt lat="44.65222" lon="4.03081">
        <ele>1398</ele>
        <time>2022-06-06T10:24:44Z</time>
      </trkpt>
      <trkpt lat="44.65504" lon="4.02959">
        <ele>1386</ele>
        <time>2022-06-06T10:25:37Z</time>
      </trkpt>
      <trkpt lat="44.65524" lon="4.02953">
        <ele>1386</ele>
        <time>2022-06-06T10:25:40Z</time>
      </trkpt>
      <trkpt lat="44.65571" lon="4.02946">
        <ele>1385</ele>
        <time>2022-06-06T10:25:49Z</time>
      </trkpt>
      <trkpt lat="44.65706" lon="4.02929">
        <ele>1387</ele>
        <time>2022-06-06T10:26:13Z</time>
      </trkpt>
      <trkpt lat="44.65779" lon="4.02923">
        <ele>1387</ele>
        <time>2022-06-06T10:26:26Z</time>
      </trkpt>
      <trkpt lat="44.65796" lon="4.02917">
        <ele>1386</ele>
        <time>2022-06-06T10:26:29Z</time>
      </trkpt>
      <trkpt lat="44.65816" lon="4.02906">
        <ele>1385</ele>
        <time>2022-06-06T10:26:33Z</time>
      </trkpt>
      <trkpt lat="44.65833" lon="4.02891">
        <ele>1385</ele>
        <time>2022-06-06T10:26:37Z</time>
      </trkpt>
      <trkpt lat="44.65848" lon="4.02876">
        <ele>1383</ele>
        <time>2022-06-06T10:26:40Z</time>
      </trkpt>
      <trkpt lat="44.65864" lon="4.02851">
        <ele>1382</ele>
        <time>2022-06-06T10:26:44Z</time>
      </trkpt>
      <trkpt lat="44.65881" lon="4.02807">
        <ele>1381</ele>
        <time>2022-06-06T10:26:50Z</time>
      </trkpt>
      <trkpt lat="44.65919" lon="4.02678">
        <ele>1376</ele>
        <time>2022-06-06T10:27:08Z</time>
      </trkpt>
      <trkpt lat="44.65928" lon="4.02662">
        <ele>1375</ele>
        <time>2022-06-06T10:27:11Z</time>
      </trkpt>
      <trkpt lat="44.65942" lon="4.02645">
        <ele>1373</ele>
        <time>2022-06-06T10:27:14Z</time>
      </trkpt>
      <trkpt lat="44.65961" lon="4.02627">
        <ele>1372</ele>
        <time>2022-06-06T10:27:18Z</time>
      </trkpt>
      <trkpt lat="44.65981" lon="4.02609">
        <ele>1373</ele>
        <time>2022-06-06T10:27:22Z</time>
      </trkpt>
      <trkpt lat="44.6601" lon="4.02583">
        <ele>1376</ele>
        <time>2022-06-06T10:27:28Z</time>
      </trkpt>
      <trkpt lat="44.66028" lon="4.02571">
        <ele>1378</ele>
        <time>2022-06-06T10:27:32Z</time>
      </trkpt>
      <trkpt lat="44.66046" lon="4.02564">
        <ele>1380</ele>
        <time>2022-06-06T10:27:35Z</time>
      </trkpt>
      <trkpt lat="44.66057" lon="4.02563">
        <ele>1382</ele>
        <time>2022-06-06T10:27:37Z</time>
      </trkpt>
      <trkpt lat="44.66068" lon="4.02566">
        <ele>1383</ele>
        <time>2022-06-06T10:27:39Z</time>
      </trkpt>
      <trkpt lat="44.66153" lon="4.02617">
        <ele>1393</ele>
        <time>2022-06-06T10:27:56Z</time>
      </trkpt>
      <trkpt lat="44.66191" lon="4.02632">
        <ele>1396</ele>
        <time>2022-06-06T10:28:03Z</time>
      </trkpt>
      <trkpt lat="44.66225" lon="4.0264">
        <ele>1398</ele>
        <time>2022-06-06T10:28:09Z</time>
      </trkpt>
      <trkpt lat="44.66236" lon="4.02641">
        <ele>1399</ele>
        <time>2022-06-06T10:28:11Z</time>
      </trkpt>
      <trkpt lat="44.66253" lon="4.02641">
        <ele>1401</ele>
        <time>2022-06-06T10:28:14Z</time>
      </trkpt>
      <trkpt lat="44.66271" lon="4.02641">
        <ele>1401</ele>
        <time>2022-06-06T10:28:17Z</time>
      </trkpt>
      <trkpt lat="44.66296" lon="4.02635">
        <ele>1403</ele>
        <time>2022-06-06T10:28:21Z</time>
      </trkpt>
      <trkpt lat="44.66329" lon="4.02617">
        <ele>1407</ele>
        <time>2022-06-06T10:28:28Z</time>
      </trkpt>
      <trkpt lat="44.66371" lon="4.02584">
        <ele>1410</ele>
        <time>2022-06-06T10:28:36Z</time>
      </trkpt>
      <trkpt lat="44.66408" lon="4.0255">
        <ele>1412</ele>
        <time>2022-06-06T10:28:44Z</time>
      </trkpt>
      <trkpt lat="44.66442" lon="4.02513">
        <ele>1417</ele>
        <time>2022-06-06T10:28:52Z</time>
      </trkpt>
      <trkpt lat="44.66456" lon="4.02505">
        <ele>1418</ele>
        <time>2022-06-06T10:28:55Z</time>
      </trkpt>
      <trkpt lat="44.66465" lon="4.02504">
        <ele>1418</ele>
        <time>2022-06-06T10:28:56Z</time>
      </trkpt>
      <trkpt lat="44.66481" lon="4.02508">
        <ele>1417</ele>
        <time>2022-06-06T10:28:59Z</time>
      </trkpt>
      <trkpt lat="44.66518" lon="4.0252">
        <ele>1417</ele>
        <time>2022-06-06T10:29:06Z</time>
      </trkpt>
      <trkpt lat="44.66577" lon="4.02535">
        <ele>1419</ele>
        <time>2022-06-06T10:29:16Z</time>
      </trkpt>
      <trkpt lat="44.66608" lon="4.02539">
        <ele>1420</ele>
        <time>2022-06-06T10:29:22Z</time>
      </trkpt>
      <trkpt lat="44.66657" lon="4.02534">
        <ele>1423</ele>
        <time>2022-06-06T10:29:31Z</time>
      </trkpt>
      <trkpt lat="44.66701" lon="4.02526">
        <ele>1424</ele>
        <time>2022-06-06T10:29:39Z</time>
      </trkpt>
      <trkpt lat="44.66767" lon="4.025">
        <ele>1425</ele>
        <time>2022-06-06T10:29:51Z</time>
      </trkpt>
      <trkpt lat="44.66777" lon="4.02495">
        <ele>1424</ele>
        <time>2022-06-06T10:29:53Z</time>
      </trkpt>
      <trkpt lat="44.66795" lon="4.02488">
        <ele>1422</ele>
        <time>2022-06-06T10:29:56Z</time>
      </trkpt>
      <trkpt lat="44.66964" lon="4.02407">
        <ele>1414</ele>
        <time>2022-06-06T10:30:28Z</time>
      </trkpt>
      <trkpt lat="44.66992" lon="4.02392">
        <ele>1412</ele>
        <time>2022-06-06T10:30:33Z</time>
      </trkpt>
      <trkpt lat="44.67056" lon="4.02348">
        <ele>1413</ele>
        <time>2022-06-06T10:30:46Z</time>
      </trkpt>
      <trkpt lat="44.67064" lon="4.02345">
        <ele>1413</ele>
        <time>2022-06-06T10:30:47Z</time>
      </trkpt>
      <trkpt lat="44.67072" lon="4.02344">
        <ele>1413</ele>
        <time>2022-06-06T10:30:49Z</time>
      </trkpt>
      <trkpt lat="44.671" lon="4.02356">
        <ele>1411</ele>
        <time>2022-06-06T10:30:54Z</time>
      </trkpt>
      <trkpt lat="44.67155" lon="4.02394">
        <ele>1412</ele>
        <time>2022-06-06T10:31:05Z</time>
      </trkpt>
      <trkpt lat="44.67174" lon="4.02408">
        <ele>1412</ele>
        <time>2022-06-06T10:31:09Z</time>
      </trkpt>
      <trkpt lat="44.67184" lon="4.02419">
        <ele>1413</ele>
        <time>2022-06-06T10:31:11Z</time>
      </trkpt>
      <trkpt lat="44.67196" lon="4.0244">
        <ele>1413</ele>
        <time>2022-06-06T10:31:14Z</time>
      </trkpt>
      <trkpt lat="44.67203" lon="4.02465">
        <ele>1413</ele>
        <time>2022-06-06T10:31:18Z</time>
      </trkpt>
      <trkpt lat="44.67245" lon="4.02639">
        <ele>1418</ele>
        <time>2022-06-06T10:31:41Z</time>
      </trkpt>
      <trkpt lat="44.67275" lon="4.02685">
        <ele>1417</ele>
        <time>2022-06-06T10:31:49Z</time>
      </trkpt>
      <trkpt lat="44.67325" lon="4.02707">
        <ele>1415</ele>
        <time>2022-06-06T10:31:58Z</time>
      </trkpt>
      <trkpt lat="44.67482" lon="4.02691">
        <ele>1408</ele>
        <time>2022-06-06T10:32:26Z</time>
      </trkpt>
      <trkpt lat="44.67569" lon="4.02713">
        <ele>1402</ele>
        <time>2022-06-06T10:32:42Z</time>
      </trkpt>
      <trkpt lat="44.67672" lon="4.0271">
        <ele>1394</ele>
        <time>2022-06-06T10:33:00Z</time>
      </trkpt>
      <trkpt lat="44.67718" lon="4.02712">
        <ele>1389</ele>
        <time>2022-06-06T10:33:08Z</time>
      </trkpt>
      <trkpt lat="44.67752" lon="4.02686">
        <ele>1387</ele>
        <time>2022-06-06T10:33:15Z</time>
      </trkpt>
      <trkpt lat="44.67798" lon="4.02585">
        <ele>1384</ele>
        <time>2022-06-06T10:33:31Z</time>
      </trkpt>
      <trkpt lat="44.67812" lon="4.02553">
        <ele>1382</ele>
        <time>2022-06-06T10:33:35Z</time>
      </trkpt>
      <trkpt lat="44.67833" lon="4.02531">
        <ele>1382</ele>
        <time>2022-06-06T10:33:40Z</time>
      </trkpt>
      <trkpt lat="44.67932" lon="4.02508">
        <ele>1377</ele>
        <time>2022-06-06T10:33:58Z</time>
      </trkpt>
      <trkpt lat="44.6804" lon="4.0241">
        <ele>1367</ele>
        <time>2022-06-06T10:34:21Z</time>
      </trkpt>
      <trkpt lat="44.68152" lon="4.02355">
        <ele>1357</ele>
        <time>2022-06-06T10:34:42Z</time>
      </trkpt>
      <trkpt lat="44.6821" lon="4.02331">
        <ele>1356</ele>
        <time>2022-06-06T10:34:53Z</time>
      </trkpt>
      <trkpt lat="44.68344" lon="4.02375">
        <ele>1354</ele>
        <time>2022-06-06T10:35:17Z</time>
      </trkpt>
      <trkpt lat="44.68442" lon="4.02366">
        <ele>1349</ele>
        <time>2022-06-06T10:35:34Z</time>
      </trkpt>
      <trkpt lat="44.6847" lon="4.0236">
        <ele>1345</ele>
        <time>2022-06-06T10:35:40Z</time>
      </trkpt>
      <trkpt lat="44.68536" lon="4.02239">
        <ele>1346</ele>
        <time>2022-06-06T10:35:59Z</time>
      </trkpt>
      <trkpt lat="44.68562" lon="4.02236">
        <ele>1343</ele>
        <time>2022-06-06T10:36:03Z</time>
      </trkpt>
      <trkpt lat="44.68597" lon="4.02263">
        <ele>1339</ele>
        <time>2022-06-06T10:36:11Z</time>
      </trkpt>
      <trkpt lat="44.68614" lon="4.0232">
        <ele>1331</ele>
        <time>2022-06-06T10:36:18Z</time>
      </trkpt>
      <trkpt lat="44.68747" lon="4.02386">
        <ele>1319</ele>
        <time>2022-06-06T10:36:43Z</time>
      </trkpt>
      <trkpt lat="44.68767" lon="4.02389">
        <ele>1315</ele>
        <time>2022-06-06T10:36:47Z</time>
      </trkpt>
      <trkpt lat="44.6888" lon="4.0231">
        <ele>1305</ele>
        <time>2022-06-06T10:37:09Z</time>
      </trkpt>
      <trkpt lat="44.68898" lon="4.02269">
        <ele>1304</ele>
        <time>2022-06-06T10:37:16Z</time>
      </trkpt>
      <trkpt lat="44.68901" lon="4.02229">
        <ele>1304</ele>
        <time>2022-06-06T10:37:21Z</time>
      </trkpt>
      <trkpt lat="44.6891" lon="4.02195">
        <ele>1301</ele>
        <time>2022-06-06T10:37:25Z</time>
      </trkpt>
      <trkpt lat="44.68991" lon="4.02083">
        <ele>1293</ele>
        <time>2022-06-06T10:37:45Z</time>
      </trkpt>
      <trkpt lat="44.69052" lon="4.02052">
        <ele>1291</ele>
        <time>2022-06-06T10:37:57Z</time>
      </trkpt>
      <trkpt lat="44.69085" lon="4.02035">
        <ele>1288</ele>
        <time>2022-06-06T10:38:03Z</time>
      </trkpt>
      <trkpt lat="44.69139" lon="4.02007">
        <ele>1286</ele>
        <time>2022-06-06T10:38:14Z</time>
      </trkpt>
      <trkpt lat="44.69249" lon="4.01954">
        <ele>1281</ele>
        <time>2022-06-06T10:38:34Z</time>
      </trkpt>
      <trkpt lat="44.6933" lon="4.01961">
        <ele>1281</ele>
        <time>2022-06-06T10:38:49Z</time>
      </trkpt>
      <trkpt lat="44.69372" lon="4.01987">
        <ele>1278</ele>
        <time>2022-06-06T10:38:57Z</time>
      </trkpt>
      <trkpt lat="44.6941" lon="4.0201">
        <ele>1274</ele>
        <time>2022-06-06T10:39:04Z</time>
      </trkpt>
      <trkpt lat="44.69485" lon="4.0217">
        <ele>1271</ele>
        <time>2022-06-06T10:39:28Z</time>
      </trkpt>
      <trkpt lat="44.69492" lon="4.02189">
        <ele>1270</ele>
        <time>2022-06-06T10:39:31Z</time>
      </trkpt>
      <trkpt lat="44.69495" lon="4.02204">
        <ele>1269</ele>
        <time>2022-06-06T10:39:33Z</time>
      </trkpt>
      <trkpt lat="44.69495" lon="4.02222">
        <ele>1270</ele>
        <time>2022-06-06T10:39:35Z</time>
      </trkpt>
      <trkpt lat="44.69499" lon="4.02247">
        <ele>1269</ele>
        <time>2022-06-06T10:39:39Z</time>
      </trkpt>
      <trkpt lat="44.69506" lon="4.0226">
        <ele>1268</ele>
        <time>2022-06-06T10:39:41Z</time>
      </trkpt>
      <trkpt lat="44.69516" lon="4.02264">
        <ele>1266</ele>
        <time>2022-06-06T10:39:43Z</time>
      </trkpt>
      <trkpt lat="44.69529" lon="4.02261">
        <ele>1264</ele>
        <time>2022-06-06T10:39:45Z</time>
      </trkpt>
      <trkpt lat="44.69543" lon="4.02252">
        <ele>1264</ele>
        <time>2022-06-06T10:39:48Z</time>
      </trkpt>
      <trkpt lat="44.69663" lon="4.02138">
        <ele>1261</ele>
        <time>2022-06-06T10:40:13Z</time>
      </trkpt>
      <trkpt lat="44.69704" lon="4.02101">
        <ele>1261</ele>
        <time>2022-06-06T10:40:22Z</time>
      </trkpt>
      <trkpt lat="44.69731" lon="4.02086">
        <ele>1261</ele>
        <time>2022-06-06T10:40:27Z</time>
      </trkpt>
      <trkpt lat="44.6974" lon="4.02085">
        <ele>1262</ele>
        <time>2022-06-06T10:40:29Z</time>
      </trkpt>
      <trkpt lat="44.69747" lon="4.02086">
        <ele>1262</ele>
        <time>2022-06-06T10:40:30Z</time>
      </trkpt>
      <trkpt lat="44.69749" lon="4.02088">
        <ele>1262</ele>
        <time>2022-06-06T10:40:30Z</time>
      </trkpt>
      <trkpt lat="44.69753" lon="4.02092">
        <ele>1263</ele>
        <time>2022-06-06T10:40:31Z</time>
      </trkpt>
      <trkpt lat="44.69755" lon="4.02095">
        <ele>1263</ele>
        <time>2022-06-06T10:40:32Z</time>
      </trkpt>
      <trkpt lat="44.69782" lon="4.02066">
        <ele>1264</ele>
        <time>2022-06-06T10:40:38Z</time>
      </trkpt>
      <trkpt lat="44.69815" lon="4.02034">
        <ele>1264</ele>
        <time>2022-06-06T10:40:45Z</time>
      </trkpt>
      <trkpt lat="44.69841" lon="4.02013">
        <ele>1264</ele>
        <time>2022-06-06T10:40:50Z</time>
      </trkpt>
      <trkpt lat="44.69867" lon="4.01997">
        <ele>1265</ele>
        <time>2022-06-06T10:40:55Z</time>
      </trkpt>
      <trkpt lat="44.69888" lon="4.01976">
        <ele>1264</ele>
        <time>2022-06-06T10:41:00Z</time>
      </trkpt>
      <trkpt lat="44.70092" lon="4.01666">
        <ele>1262</ele>
        <time>2022-06-06T10:41:53Z</time>
      </trkpt>
      <trkpt lat="44.70108" lon="4.01645">
        <ele>1260</ele>
        <time>2022-06-06T10:41:57Z</time>
      </trkpt>
      <trkpt lat="44.70125" lon="4.01633">
        <ele>1260</ele>
        <time>2022-06-06T10:42:01Z</time>
      </trkpt>
      <trkpt lat="44.70259" lon="4.01555">
        <ele>1256</ele>
        <time>2022-06-06T10:42:27Z</time>
      </trkpt>
      <trkpt lat="44.70279" lon="4.01537">
        <ele>1256</ele>
        <time>2022-06-06T10:42:31Z</time>
      </trkpt>
      <trkpt lat="44.70296" lon="4.01517">
        <ele>1255</ele>
        <time>2022-06-06T10:42:35Z</time>
      </trkpt>
      <trkpt lat="44.70338" lon="4.01449">
        <ele>1253</ele>
        <time>2022-06-06T10:42:46Z</time>
      </trkpt>
      <trkpt lat="44.70379" lon="4.01351">
        <ele>1249</ele>
        <time>2022-06-06T10:43:00Z</time>
      </trkpt>
      <trkpt lat="44.70401" lon="4.0124">
        <ele>1244</ele>
        <time>2022-06-06T10:43:15Z</time>
      </trkpt>
      <trkpt lat="44.70446" lon="4.01103">
        <ele>1243</ele>
        <time>2022-06-06T10:43:34Z</time>
      </trkpt>
      <trkpt lat="44.7046" lon="4.0102">
        <ele>1237</ele>
        <time>2022-06-06T10:43:45Z</time>
      </trkpt>
      <trkpt lat="44.70478" lon="4.00974">
        <ele>1234</ele>
        <time>2022-06-06T10:43:52Z</time>
      </trkpt>
      <trkpt lat="44.705" lon="4.00945">
        <ele>1233</ele>
        <time>2022-06-06T10:43:57Z</time>
      </trkpt>
      <trkpt lat="44.70634" lon="4.00847">
        <ele>1223</ele>
        <time>2022-06-06T10:44:24Z</time>
      </trkpt>
      <trkpt lat="44.70676" lon="4.0083">
        <ele>1221</ele>
        <time>2022-06-06T10:44:32Z</time>
      </trkpt>
      <trkpt lat="44.70708" lon="4.00822">
        <ele>1219</ele>
        <time>2022-06-06T10:44:37Z</time>
      </trkpt>
      <trkpt lat="44.70759" lon="4.0082">
        <ele>1218</ele>
        <time>2022-06-06T10:44:46Z</time>
      </trkpt>
      <trkpt lat="44.70875" lon="4.00838">
        <ele>1213</ele>
        <time>2022-06-06T10:45:07Z</time>
      </trkpt>
      <trkpt lat="44.70899" lon="4.00847">
        <ele>1212</ele>
        <time>2022-06-06T10:45:12Z</time>
      </trkpt>
      <trkpt lat="44.70918" lon="4.00865">
        <ele>1212</ele>
        <time>2022-06-06T10:45:16Z</time>
      </trkpt>
      <trkpt lat="44.70938" lon="4.00903">
        <ele>1211</ele>
        <time>2022-06-06T10:45:22Z</time>
      </trkpt>
      <trkpt lat="44.70987" lon="4.00947">
        <ele>1207</ele>
        <time>2022-06-06T10:45:32Z</time>
      </trkpt>
      <trkpt lat="44.71018" lon="4.00963">
        <ele>1210</ele>
        <time>2022-06-06T10:45:38Z</time>
      </trkpt>
      <trkpt lat="44.71033" lon="4.00959">
        <ele>1212</ele>
        <time>2022-06-06T10:45:41Z</time>
      </trkpt>
      <trkpt lat="44.71048" lon="4.00938">
        <ele>1213</ele>
        <time>2022-06-06T10:45:44Z</time>
      </trkpt>
      <trkpt lat="44.71063" lon="4.00893">
        <ele>1211</ele>
        <time>2022-06-06T10:45:51Z</time>
      </trkpt>
      <trkpt lat="44.71081" lon="4.00857">
        <ele>1210</ele>
        <time>2022-06-06T10:45:56Z</time>
      </trkpt>
      <trkpt lat="44.71113" lon="4.00815">
        <ele>1210</ele>
        <time>2022-06-06T10:46:04Z</time>
      </trkpt>
      <trkpt lat="44.71217" lon="4.00749">
        <ele>1207</ele>
        <time>2022-06-06T10:46:24Z</time>
      </trkpt>
      <trkpt lat="44.7128" lon="4.00722">
        <ele>1206</ele>
        <time>2022-06-06T10:46:36Z</time>
      </trkpt>
      <trkpt lat="44.71328" lon="4.0072">
        <ele>1207</ele>
        <time>2022-06-06T10:46:45Z</time>
      </trkpt>
      <trkpt lat="44.71385" lon="4.00722">
        <ele>1207</ele>
        <time>2022-06-06T10:46:55Z</time>
      </trkpt>
      <trkpt lat="44.71596" lon="4.00778">
        <ele>1203</ele>
        <time>2022-06-06T10:47:33Z</time>
      </trkpt>
      <trkpt lat="44.71634" lon="4.00784">
        <ele>1208</ele>
        <time>2022-06-06T10:47:40Z</time>
      </trkpt>
      <trkpt lat="44.71674" lon="4.00759">
        <ele>1206</ele>
        <time>2022-06-06T10:47:48Z</time>
      </trkpt>
      <trkpt lat="44.71715" lon="4.00738">
        <ele>1205</ele>
        <time>2022-06-06T10:47:55Z</time>
      </trkpt>
      <trkpt lat="44.71934" lon="4.0073">
        <ele>1201</ele>
        <time>2022-06-06T10:48:34Z</time>
      </trkpt>
      <trkpt lat="44.72077" lon="4.00666">
        <ele>1195</ele>
        <time>2022-06-06T10:49:01Z</time>
      </trkpt>
      <trkpt lat="44.72114" lon="4.00631">
        <ele>1194</ele>
        <time>2022-06-06T10:49:09Z</time>
      </trkpt>
      <trkpt lat="44.72213" lon="4.0052">
        <ele>1186</ele>
        <time>2022-06-06T10:49:31Z</time>
      </trkpt>
      <trkpt lat="44.72259" lon="4.00486">
        <ele>1185</ele>
        <time>2022-06-06T10:49:41Z</time>
      </trkpt>
      <trkpt lat="44.72317" lon="4.00475">
        <ele>1185</ele>
        <time>2022-06-06T10:49:51Z</time>
      </trkpt>
      <trkpt lat="44.7236" lon="4.00471">
        <ele>1182</ele>
        <time>2022-06-06T10:49:59Z</time>
      </trkpt>
      <trkpt lat="44.72384" lon="4.00475">
        <ele>1180</ele>
        <time>2022-06-06T10:50:03Z</time>
      </trkpt>
      <trkpt lat="44.72399" lon="4.00485">
        <ele>1181</ele>
        <time>2022-06-06T10:50:06Z</time>
      </trkpt>
      <trkpt lat="44.72408" lon="4.00499">
        <ele>1182</ele>
        <time>2022-06-06T10:50:08Z</time>
      </trkpt>
      <trkpt lat="44.72413" lon="4.00512">
        <ele>1182</ele>
        <time>2022-06-06T10:50:10Z</time>
      </trkpt>
      <trkpt lat="44.72417" lon="4.00538">
        <ele>1183</ele>
        <time>2022-06-06T10:50:14Z</time>
      </trkpt>
      <trkpt lat="44.72407" lon="4.00637">
        <ele>1186</ele>
        <time>2022-06-06T10:50:26Z</time>
      </trkpt>
      <trkpt lat="44.72405" lon="4.00677">
        <ele>1185</ele>
        <time>2022-06-06T10:50:31Z</time>
      </trkpt>
      <trkpt lat="44.72405" lon="4.00698">
        <ele>1184</ele>
        <time>2022-06-06T10:50:34Z</time>
      </trkpt>
      <trkpt lat="44.72411" lon="4.00713">
        <ele>1182</ele>
        <time>2022-06-06T10:50:36Z</time>
      </trkpt>
      <trkpt lat="44.72427" lon="4.00731">
        <ele>1180</ele>
        <time>2022-06-06T10:50:40Z</time>
      </trkpt>
      <trkpt lat="44.72458" lon="4.00754">
        <ele>1184</ele>
        <time>2022-06-06T10:50:46Z</time>
      </trkpt>
      <trkpt lat="44.72464" lon="4.0076">
        <ele>1185</ele>
        <time>2022-06-06T10:50:47Z</time>
      </trkpt>
      <trkpt lat="44.72469" lon="4.00758">
        <ele>1185</ele>
        <time>2022-06-06T10:50:48Z</time>
      </trkpt>
      <trkpt lat="44.72472" lon="4.00762">
        <ele>1186</ele>
        <time>2022-06-06T10:50:49Z</time>
      </trkpt>
      <trkpt lat="44.72482" lon="4.00763">
        <ele>1188</ele>
        <time>2022-06-06T10:50:51Z</time>
      </trkpt>
      <trkpt lat="44.72489" lon="4.00758">
        <ele>1188</ele>
        <time>2022-06-06T10:50:52Z</time>
      </trkpt>
      <trkpt lat="44.72508" lon="4.0071">
        <ele>1185</ele>
        <time>2022-06-06T10:50:59Z</time>
      </trkpt>
      <trkpt lat="44.7252" lon="4.00701">
        <ele>1184</ele>
        <time>2022-06-06T10:51:02Z</time>
      </trkpt>
      <trkpt lat="44.72529" lon="4.00701">
        <ele>1185</ele>
        <time>2022-06-06T10:51:03Z</time>
      </trkpt>
      <trkpt lat="44.72541" lon="4.00716">
        <ele>1186</ele>
        <time>2022-06-06T10:51:06Z</time>
      </trkpt>
      <trkpt lat="44.72549" lon="4.00736">
        <ele>1188</ele>
        <time>2022-06-06T10:51:09Z</time>
      </trkpt>
      <trkpt lat="44.72539" lon="4.00778">
        <ele>1191</ele>
        <time>2022-06-06T10:51:14Z</time>
      </trkpt>
      <trkpt lat="44.72543" lon="4.00793">
        <ele>1192</ele>
        <time>2022-06-06T10:51:17Z</time>
      </trkpt>
      <trkpt lat="44.72558" lon="4.00874">
        <ele>1198</ele>
        <time>2022-06-06T10:51:27Z</time>
      </trkpt>
      <trkpt lat="44.72566" lon="4.00995">
        <ele>1206</ele>
        <time>2022-06-06T10:51:42Z</time>
      </trkpt>
      <trkpt lat="44.72564" lon="4.01038">
        <ele>1209</ele>
        <time>2022-06-06T10:51:48Z</time>
      </trkpt>
      <trkpt lat="44.72566" lon="4.0106">
        <ele>1210</ele>
        <time>2022-06-06T10:51:51Z</time>
      </trkpt>
      <trkpt lat="44.72575" lon="4.01072">
        <ele>1211</ele>
        <time>2022-06-06T10:51:53Z</time>
      </trkpt>
      <trkpt lat="44.72585" lon="4.01077">
        <ele>1211</ele>
        <time>2022-06-06T10:51:55Z</time>
      </trkpt>
      <trkpt lat="44.72594" lon="4.01077">
        <ele>1212</ele>
        <time>2022-06-06T10:51:56Z</time>
      </trkpt>
      <trkpt lat="44.72678" lon="4.01002">
        <ele>1213</ele>
        <time>2022-06-06T10:52:14Z</time>
      </trkpt>
      <trkpt lat="44.72712" lon="4.0098">
        <ele>1213</ele>
        <time>2022-06-06T10:52:21Z</time>
      </trkpt>
      <trkpt lat="44.72724" lon="4.00977">
        <ele>1214</ele>
        <time>2022-06-06T10:52:23Z</time>
      </trkpt>
      <trkpt lat="44.72735" lon="4.00985">
        <ele>1216</ele>
        <time>2022-06-06T10:52:25Z</time>
      </trkpt>
      <trkpt lat="44.72718" lon="4.00988">
        <ele>1215</ele>
        <time>2022-06-06T10:52:28Z</time>
      </trkpt>
      <trkpt lat="44.72704" lon="4.00996">
        <ele>1215</ele>
        <time>2022-06-06T10:52:31Z</time>
      </trkpt>
      <trkpt lat="44.72688" lon="4.01015">
        <ele>1216</ele>
        <time>2022-06-06T10:52:35Z</time>
      </trkpt>
      <trkpt lat="44.72575" lon="4.01224">
        <ele>1230</ele>
        <time>2022-06-06T10:53:08Z</time>
      </trkpt>
      <trkpt lat="44.72571" lon="4.0124">
        <ele>1231</ele>
        <time>2022-06-06T10:53:10Z</time>
      </trkpt>
      <trkpt lat="44.72565" lon="4.01264">
        <ele>1231</ele>
        <time>2022-06-06T10:53:13Z</time>
      </trkpt>
      <trkpt lat="44.72563" lon="4.01301">
        <ele>1232</ele>
        <time>2022-06-06T10:53:18Z</time>
      </trkpt>
      <trkpt lat="44.72564" lon="4.01338">
        <ele>1233</ele>
        <time>2022-06-06T10:53:23Z</time>
      </trkpt>
      <trkpt lat="44.72571" lon="4.01374">
        <ele>1234</ele>
        <time>2022-06-06T10:53:27Z</time>
      </trkpt>
      <trkpt lat="44.72583" lon="4.01405">
        <ele>1238</ele>
        <time>2022-06-06T10:53:32Z</time>
      </trkpt>
      <trkpt lat="44.72597" lon="4.01428">
        <ele>1242</ele>
        <time>2022-06-06T10:53:36Z</time>
      </trkpt>
      <trkpt lat="44.72605" lon="4.01443">
        <ele>1244</ele>
        <time>2022-06-06T10:53:38Z</time>
      </trkpt>
      <trkpt lat="44.72605" lon="4.01463">
        <ele>1245</ele>
        <time>2022-06-06T10:53:40Z</time>
      </trkpt>
      <trkpt lat="44.72595" lon="4.01479">
        <ele>1244</ele>
        <time>2022-06-06T10:53:43Z</time>
      </trkpt>
      <trkpt lat="44.72578" lon="4.0152">
        <ele>1242</ele>
        <time>2022-06-06T10:53:49Z</time>
      </trkpt>
      <trkpt lat="44.72569" lon="4.01551">
        <ele>1241</ele>
        <time>2022-06-06T10:53:53Z</time>
      </trkpt>
      <trkpt lat="44.7257" lon="4.01587">
        <ele>1243</ele>
        <time>2022-06-06T10:53:58Z</time>
      </trkpt>
      <trkpt lat="44.72581" lon="4.01613">
        <ele>1244</ele>
        <time>2022-06-06T10:54:02Z</time>
      </trkpt>
      <trkpt lat="44.72597" lon="4.01626">
        <ele>1247</ele>
        <time>2022-06-06T10:54:05Z</time>
      </trkpt>
      <trkpt lat="44.72616" lon="4.0162">
        <ele>1251</ele>
        <time>2022-06-06T10:54:08Z</time>
      </trkpt>
      <trkpt lat="44.72639" lon="4.01605">
        <ele>1256</ele>
        <time>2022-06-06T10:54:13Z</time>
      </trkpt>
      <trkpt lat="44.72655" lon="4.01601">
        <ele>1258</ele>
        <time>2022-06-06T10:54:16Z</time>
      </trkpt>
      <trkpt lat="44.72668" lon="4.0161">
        <ele>1261</ele>
        <time>2022-06-06T10:54:18Z</time>
      </trkpt>
      <trkpt lat="44.72669" lon="4.01629">
        <ele>1262</ele>
        <time>2022-06-06T10:54:21Z</time>
      </trkpt>
      <trkpt lat="44.72651" lon="4.01681">
        <ele>1261</ele>
        <time>2022-06-06T10:54:28Z</time>
      </trkpt>
      <trkpt lat="44.72648" lon="4.01693">
        <ele>1261</ele>
        <time>2022-06-06T10:54:30Z</time>
      </trkpt>
      <trkpt lat="44.72644" lon="4.0171">
        <ele>1262</ele>
        <time>2022-06-06T10:54:32Z</time>
      </trkpt>
      <trkpt lat="44.72613" lon="4.01794">
        <ele>1265</ele>
        <time>2022-06-06T10:54:44Z</time>
      </trkpt>
      <trkpt lat="44.72563" lon="4.01869">
        <ele>1265</ele>
        <time>2022-06-06T10:54:57Z</time>
      </trkpt>
      <trkpt lat="44.72518" lon="4.01975">
        <ele>1266</ele>
        <time>2022-06-06T10:55:13Z</time>
      </trkpt>
      <trkpt lat="44.72511" lon="4.01997">
        <ele>1266</ele>
        <time>2022-06-06T10:55:16Z</time>
      </trkpt>
      <trkpt lat="44.72511" lon="4.0205">
        <ele>1271</ele>
        <time>2022-06-06T10:55:22Z</time>
      </trkpt>
      <trkpt lat="44.72507" lon="4.02072">
        <ele>1272</ele>
        <time>2022-06-06T10:55:25Z</time>
      </trkpt>
      <trkpt lat="44.72437" lon="4.02223">
        <ele>1276</ele>
        <time>2022-06-06T10:55:48Z</time>
      </trkpt>
      <trkpt lat="44.7239" lon="4.02288">
        <ele>1278</ele>
        <time>2022-06-06T10:56:00Z</time>
      </trkpt>
      <trkpt lat="44.72323" lon="4.02405">
        <ele>1282</ele>
        <time>2022-06-06T10:56:19Z</time>
      </trkpt>
      <trkpt lat="44.72303" lon="4.02458">
        <ele>1282</ele>
        <time>2022-06-06T10:56:26Z</time>
      </trkpt>
      <trkpt lat="44.72299" lon="4.02511">
        <ele>1284</ele>
        <time>2022-06-06T10:56:33Z</time>
      </trkpt>
      <trkpt lat="44.72294" lon="4.02555">
        <ele>1285</ele>
        <time>2022-06-06T10:56:39Z</time>
      </trkpt>
      <trkpt lat="44.72283" lon="4.02596">
        <ele>1286</ele>
        <time>2022-06-06T10:56:44Z</time>
      </trkpt>
      <trkpt lat="44.72269" lon="4.02622">
        <ele>1285</ele>
        <time>2022-06-06T10:56:48Z</time>
      </trkpt>
      <trkpt lat="44.72184" lon="4.02687">
        <ele>1280</ele>
        <time>2022-06-06T10:57:06Z</time>
      </trkpt>
      <trkpt lat="44.72094" lon="4.02787">
        <ele>1275</ele>
        <time>2022-06-06T10:57:26Z</time>
      </trkpt>
      <trkpt lat="44.72091" lon="4.02793">
        <ele>1275</ele>
        <time>2022-06-06T10:57:27Z</time>
      </trkpt>
      <trkpt lat="44.7208" lon="4.02808">
        <ele>1275</ele>
        <time>2022-06-06T10:57:30Z</time>
      </trkpt>
      <trkpt lat="44.72072" lon="4.02836">
        <ele>1275</ele>
        <time>2022-06-06T10:57:33Z</time>
      </trkpt>
      <trkpt lat="44.72064" lon="4.02883">
        <ele>1275</ele>
        <time>2022-06-06T10:57:40Z</time>
      </trkpt>
      <trkpt lat="44.7202" lon="4.02989">
        <ele>1274</ele>
        <time>2022-06-06T10:57:55Z</time>
      </trkpt>
      <trkpt lat="44.71957" lon="4.03087">
        <ele>1275</ele>
        <time>2022-06-06T10:58:12Z</time>
      </trkpt>
      <trkpt lat="44.71823" lon="4.03213">
        <ele>1276</ele>
        <time>2022-06-06T10:58:41Z</time>
      </trkpt>
      <trkpt lat="44.7176" lon="4.03265">
        <ele>1275</ele>
        <time>2022-06-06T10:58:53Z</time>
      </trkpt>
      <trkpt lat="44.71749" lon="4.03277">
        <ele>1275</ele>
        <time>2022-06-06T10:58:56Z</time>
      </trkpt>
      <trkpt lat="44.71739" lon="4.03294">
        <ele>1276</ele>
        <time>2022-06-06T10:58:59Z</time>
      </trkpt>
      <trkpt lat="44.71741" lon="4.03313">
        <ele>1275</ele>
        <time>2022-06-06T10:59:01Z</time>
      </trkpt>
      <trkpt lat="44.71744" lon="4.03331">
        <ele>1274</ele>
        <time>2022-06-06T10:59:04Z</time>
      </trkpt>
      <trkpt lat="44.71749" lon="4.03344">
        <ele>1275</ele>
        <time>2022-06-06T10:59:05Z</time>
      </trkpt>
      <trkpt lat="44.71757" lon="4.03355">
        <ele>1276</ele>
        <time>2022-06-06T10:59:07Z</time>
      </trkpt>
      <trkpt lat="44.71786" lon="4.0339">
        <ele>1278</ele>
        <time>2022-06-06T10:59:14Z</time>
      </trkpt>
      <trkpt lat="44.71837" lon="4.03421">
        <ele>1278</ele>
        <time>2022-06-06T10:59:24Z</time>
      </trkpt>
      <trkpt lat="44.72074" lon="4.03422">
        <ele>1277</ele>
        <time>2022-06-06T11:00:06Z</time>
      </trkpt>
      <trkpt lat="44.72098" lon="4.03436">
        <ele>1277</ele>
        <time>2022-06-06T11:00:11Z</time>
      </trkpt>
      <trkpt lat="44.72171" lon="4.0351">
        <ele>1275</ele>
        <time>2022-06-06T11:00:27Z</time>
      </trkpt>
      <trkpt lat="44.72201" lon="4.03524">
        <ele>1270</ele>
        <time>2022-06-06T11:00:32Z</time>
      </trkpt>
      <trkpt lat="44.72418" lon="4.03503">
        <ele>1249</ele>
        <time>2022-06-06T11:01:11Z</time>
      </trkpt>
      <trkpt lat="44.72498" lon="4.03562">
        <ele>1240</ele>
        <time>2022-06-06T11:01:27Z</time>
      </trkpt>
      <trkpt lat="44.72614" lon="4.03711">
        <ele>1232</ele>
        <time>2022-06-06T11:01:55Z</time>
      </trkpt>
      <trkpt lat="44.72666" lon="4.03845">
        <ele>1225</ele>
        <time>2022-06-06T11:02:15Z</time>
      </trkpt>
      <trkpt lat="44.72666" lon="4.03871">
        <ele>1224</ele>
        <time>2022-06-06T11:02:18Z</time>
      </trkpt>
      <trkpt lat="44.72645" lon="4.04074">
        <ele>1214</ele>
        <time>2022-06-06T11:02:44Z</time>
      </trkpt>
      <trkpt lat="44.72653" lon="4.04115">
        <ele>1213</ele>
        <time>2022-06-06T11:02:49Z</time>
      </trkpt>
      <trkpt lat="44.72694" lon="4.04176">
        <ele>1211</ele>
        <time>2022-06-06T11:03:00Z</time>
      </trkpt>
      <trkpt lat="44.72713" lon="4.04217">
        <ele>1210</ele>
        <time>2022-06-06T11:03:06Z</time>
      </trkpt>
      <trkpt lat="44.72715" lon="4.04235">
        <ele>1209</ele>
        <time>2022-06-06T11:03:08Z</time>
      </trkpt>
      <trkpt lat="44.72717" lon="4.04255">
        <ele>1208</ele>
        <time>2022-06-06T11:03:11Z</time>
      </trkpt>
      <trkpt lat="44.72723" lon="4.04278">
        <ele>1210</ele>
        <time>2022-06-06T11:03:14Z</time>
      </trkpt>
      <trkpt lat="44.72732" lon="4.0429">
        <ele>1210</ele>
        <time>2022-06-06T11:03:16Z</time>
      </trkpt>
      <trkpt lat="44.72767" lon="4.04314">
        <ele>1208</ele>
        <time>2022-06-06T11:03:23Z</time>
      </trkpt>
      <trkpt lat="44.72782" lon="4.04339">
        <ele>1207</ele>
        <time>2022-06-06T11:03:27Z</time>
      </trkpt>
      <trkpt lat="44.72785" lon="4.04374">
        <ele>1209</ele>
        <time>2022-06-06T11:03:32Z</time>
      </trkpt>
      <trkpt lat="44.72766" lon="4.04442">
        <ele>1214</ele>
        <time>2022-06-06T11:03:41Z</time>
      </trkpt>
      <trkpt lat="44.72749" lon="4.04459">
        <ele>1216</ele>
        <time>2022-06-06T11:03:45Z</time>
      </trkpt>
      <trkpt lat="44.7272" lon="4.04471">
        <ele>1223</ele>
        <time>2022-06-06T11:03:50Z</time>
      </trkpt>
      <trkpt lat="44.72713" lon="4.04481">
        <ele>1224</ele>
        <time>2022-06-06T11:03:52Z</time>
      </trkpt>
      <trkpt lat="44.72711" lon="4.04493">
        <ele>1225</ele>
        <time>2022-06-06T11:03:53Z</time>
      </trkpt>
      <trkpt lat="44.72713" lon="4.0451">
        <ele>1225</ele>
        <time>2022-06-06T11:03:55Z</time>
      </trkpt>
      <trkpt lat="44.72734" lon="4.0454">
        <ele>1222</ele>
        <time>2022-06-06T11:04:01Z</time>
      </trkpt>
      <trkpt lat="44.72743" lon="4.04559">
        <ele>1222</ele>
        <time>2022-06-06T11:04:04Z</time>
      </trkpt>
      <trkpt lat="44.72765" lon="4.04638">
        <ele>1221</ele>
        <time>2022-06-06T11:04:14Z</time>
      </trkpt>
      <trkpt lat="44.72778" lon="4.04701">
        <ele>1219</ele>
        <time>2022-06-06T11:04:23Z</time>
      </trkpt>
      <trkpt lat="44.72788" lon="4.04733">
        <ele>1216</ele>
        <time>2022-06-06T11:04:27Z</time>
      </trkpt>
      <trkpt lat="44.72809" lon="4.04784">
        <ele>1214</ele>
        <time>2022-06-06T11:04:35Z</time>
      </trkpt>
      <trkpt lat="44.7282" lon="4.04804">
        <ele>1214</ele>
        <time>2022-06-06T11:04:38Z</time>
      </trkpt>
      <trkpt lat="44.72859" lon="4.0485">
        <ele>1213</ele>
        <time>2022-06-06T11:04:47Z</time>
      </trkpt>
      <trkpt lat="44.72891" lon="4.04877">
        <ele>1212</ele>
        <time>2022-06-06T11:04:53Z</time>
      </trkpt>
      <trkpt lat="44.72905" lon="4.04885">
        <ele>1211</ele>
        <time>2022-06-06T11:04:56Z</time>
      </trkpt>
      <trkpt lat="44.72975" lon="4.04901">
        <ele>1208</ele>
        <time>2022-06-06T11:05:09Z</time>
      </trkpt>
      <trkpt lat="44.72994" lon="4.04899">
        <ele>1206</ele>
        <time>2022-06-06T11:05:12Z</time>
      </trkpt>
      <trkpt lat="44.73031" lon="4.04889">
        <ele>1201</ele>
        <time>2022-06-06T11:05:19Z</time>
      </trkpt>
      <trkpt lat="44.73081" lon="4.04869">
        <ele>1192</ele>
        <time>2022-06-06T11:05:28Z</time>
      </trkpt>
      <trkpt lat="44.73107" lon="4.04863">
        <ele>1189</ele>
        <time>2022-06-06T11:05:33Z</time>
      </trkpt>
      <trkpt lat="44.73116" lon="4.04864">
        <ele>1188</ele>
        <time>2022-06-06T11:05:34Z</time>
      </trkpt>
      <trkpt lat="44.73124" lon="4.04868">
        <ele>1188</ele>
        <time>2022-06-06T11:05:36Z</time>
      </trkpt>
      <trkpt lat="44.7313" lon="4.04875">
        <ele>1188</ele>
        <time>2022-06-06T11:05:37Z</time>
      </trkpt>
      <trkpt lat="44.73206" lon="4.05028">
        <ele>1186</ele>
        <time>2022-06-06T11:06:01Z</time>
      </trkpt>
      <trkpt lat="44.7321" lon="4.0504">
        <ele>1184</ele>
        <time>2022-06-06T11:06:03Z</time>
      </trkpt>
      <trkpt lat="44.73212" lon="4.0505">
        <ele>1183</ele>
        <time>2022-06-06T11:06:04Z</time>
      </trkpt>
      <trkpt lat="44.73213" lon="4.05059">
        <ele>1182</ele>
        <time>2022-06-06T11:06:05Z</time>
      </trkpt>
      <trkpt lat="44.73211" lon="4.05071">
        <ele>1180</ele>
        <time>2022-06-06T11:06:07Z</time>
      </trkpt>
      <trkpt lat="44.73203" lon="4.0511">
        <ele>1181</ele>
        <time>2022-06-06T11:06:12Z</time>
      </trkpt>
      <trkpt lat="44.73203" lon="4.05122">
        <ele>1182</ele>
        <time>2022-06-06T11:06:13Z</time>
      </trkpt>
      <trkpt lat="44.73207" lon="4.0513">
        <ele>1182</ele>
        <time>2022-06-06T11:06:14Z</time>
      </trkpt>
      <trkpt lat="44.73218" lon="4.0514">
        <ele>1182</ele>
        <time>2022-06-06T11:06:17Z</time>
      </trkpt>
      <trkpt lat="44.7323" lon="4.05145">
        <ele>1182</ele>
        <time>2022-06-06T11:06:19Z</time>
      </trkpt>
      <trkpt lat="44.73265" lon="4.05152">
        <ele>1182</ele>
        <time>2022-06-06T11:06:25Z</time>
      </trkpt>
      <trkpt lat="44.73286" lon="4.05162">
        <ele>1184</ele>
        <time>2022-06-06T11:06:29Z</time>
      </trkpt>
      <trkpt lat="44.73312" lon="4.05169">
        <ele>1186</ele>
        <time>2022-06-06T11:06:34Z</time>
      </trkpt>
      <trkpt lat="44.73379" lon="4.0518">
        <ele>1190</ele>
        <time>2022-06-06T11:06:46Z</time>
      </trkpt>
      <trkpt lat="44.73431" lon="4.05194">
        <ele>1190</ele>
        <time>2022-06-06T11:06:55Z</time>
      </trkpt>
      <trkpt lat="44.73457" lon="4.05208">
        <ele>1188</ele>
        <time>2022-06-06T11:07:00Z</time>
      </trkpt>
      <trkpt lat="44.73465" lon="4.05214">
        <ele>1187</ele>
        <time>2022-06-06T11:07:02Z</time>
      </trkpt>
      <trkpt lat="44.73473" lon="4.05223">
        <ele>1187</ele>
        <time>2022-06-06T11:07:04Z</time>
      </trkpt>
      <trkpt lat="44.73477" lon="4.05233">
        <ele>1186</ele>
        <time>2022-06-06T11:07:05Z</time>
      </trkpt>
      <trkpt lat="44.7348" lon="4.05245">
        <ele>1186</ele>
        <time>2022-06-06T11:07:07Z</time>
      </trkpt>
      <trkpt lat="44.73479" lon="4.05257">
        <ele>1187</ele>
        <time>2022-06-06T11:07:08Z</time>
      </trkpt>
      <trkpt lat="44.73467" lon="4.05329">
        <ele>1191</ele>
        <time>2022-06-06T11:07:18Z</time>
      </trkpt>
      <trkpt lat="44.73468" lon="4.05348">
        <ele>1193</ele>
        <time>2022-06-06T11:07:20Z</time>
      </trkpt>
      <trkpt lat="44.73471" lon="4.0536">
        <ele>1193</ele>
        <time>2022-06-06T11:07:22Z</time>
      </trkpt>
      <trkpt lat="44.73485" lon="4.05371">
        <ele>1190</ele>
        <time>2022-06-06T11:07:25Z</time>
      </trkpt>
      <trkpt lat="44.73494" lon="4.05373">
        <ele>1188</ele>
        <time>2022-06-06T11:07:26Z</time>
      </trkpt>
      <trkpt lat="44.73538" lon="4.05357">
        <ele>1183</ele>
        <time>2022-06-06T11:07:34Z</time>
      </trkpt>
      <trkpt lat="44.73554" lon="4.05356">
        <ele>1181</ele>
        <time>2022-06-06T11:07:37Z</time>
      </trkpt>
      <trkpt lat="44.73592" lon="4.05365">
        <ele>1180</ele>
        <time>2022-06-06T11:07:44Z</time>
      </trkpt>
      <trkpt lat="44.7361" lon="4.05374">
        <ele>1177</ele>
        <time>2022-06-06T11:07:47Z</time>
      </trkpt>
      <trkpt lat="44.73627" lon="4.05389">
        <ele>1175</ele>
        <time>2022-06-06T11:07:51Z</time>
      </trkpt>
      <trkpt lat="44.73674" lon="4.05437">
        <ele>1170</ele>
        <time>2022-06-06T11:08:01Z</time>
      </trkpt>
      <trkpt lat="44.7368" lon="4.05452">
        <ele>1172</ele>
        <time>2022-06-06T11:08:03Z</time>
      </trkpt>
      <trkpt lat="44.73685" lon="4.05468">
        <ele>1173</ele>
        <time>2022-06-06T11:08:06Z</time>
      </trkpt>
      <trkpt lat="44.73697" lon="4.05534">
        <ele>1175</ele>
        <time>2022-06-06T11:08:14Z</time>
      </trkpt>
      <trkpt lat="44.73699" lon="4.05588">
        <ele>1177</ele>
        <time>2022-06-06T11:08:21Z</time>
      </trkpt>
      <trkpt lat="44.73702" lon="4.05623">
        <ele>1177</ele>
        <time>2022-06-06T11:08:26Z</time>
      </trkpt>
      <trkpt lat="44.73709" lon="4.05668">
        <ele>1176</ele>
        <time>2022-06-06T11:08:31Z</time>
      </trkpt>
      <trkpt lat="44.73714" lon="4.0569">
        <ele>1179</ele>
        <time>2022-06-06T11:08:34Z</time>
      </trkpt>
      <trkpt lat="44.73723" lon="4.0571">
        <ele>1180</ele>
        <time>2022-06-06T11:08:37Z</time>
      </trkpt>
      <trkpt lat="44.73745" lon="4.05739">
        <ele>1178</ele>
        <time>2022-06-06T11:08:43Z</time>
      </trkpt>
      <trkpt lat="44.73758" lon="4.05751">
        <ele>1177</ele>
        <time>2022-06-06T11:08:45Z</time>
      </trkpt>
      <trkpt lat="44.738" lon="4.05776">
        <ele>1169</ele>
        <time>2022-06-06T11:08:54Z</time>
      </trkpt>
      <trkpt lat="44.73841" lon="4.0579">
        <ele>1159</ele>
        <time>2022-06-06T11:09:01Z</time>
      </trkpt>
      <trkpt lat="44.7388" lon="4.05812">
        <ele>1158</ele>
        <time>2022-06-06T11:09:09Z</time>
      </trkpt>
      <trkpt lat="44.73907" lon="4.05822">
        <ele>1156</ele>
        <time>2022-06-06T11:09:13Z</time>
      </trkpt>
      <trkpt lat="44.73953" lon="4.05829">
        <ele>1151</ele>
        <time>2022-06-06T11:09:22Z</time>
      </trkpt>
      <trkpt lat="44.73992" lon="4.05858">
        <ele>1154</ele>
        <time>2022-06-06T11:09:30Z</time>
      </trkpt>
      <trkpt lat="44.74059" lon="4.05878">
        <ele>1146</ele>
        <time>2022-06-06T11:09:42Z</time>
      </trkpt>
      <trkpt lat="44.74072" lon="4.05885">
        <ele>1145</ele>
        <time>2022-06-06T11:09:44Z</time>
      </trkpt>
      <trkpt lat="44.7409" lon="4.05903">
        <ele>1143</ele>
        <time>2022-06-06T11:09:48Z</time>
      </trkpt>
      <trkpt lat="44.74103" lon="4.0592">
        <ele>1143</ele>
        <time>2022-06-06T11:09:51Z</time>
      </trkpt>
      <trkpt lat="44.74117" lon="4.05945">
        <ele>1143</ele>
        <time>2022-06-06T11:09:55Z</time>
      </trkpt>
      <trkpt lat="44.74127" lon="4.05966">
        <ele>1142</ele>
        <time>2022-06-06T11:09:59Z</time>
      </trkpt>
      <trkpt lat="44.74138" lon="4.06006">
        <ele>1140</ele>
        <time>2022-06-06T11:10:04Z</time>
      </trkpt>
      <trkpt lat="44.74142" lon="4.0603">
        <ele>1139</ele>
        <time>2022-06-06T11:10:07Z</time>
      </trkpt>
      <trkpt lat="44.74143" lon="4.06051">
        <ele>1138</ele>
        <time>2022-06-06T11:10:10Z</time>
      </trkpt>
      <trkpt lat="44.74142" lon="4.06068">
        <ele>1139</ele>
        <time>2022-06-06T11:10:12Z</time>
      </trkpt>
      <trkpt lat="44.74133" lon="4.06092">
        <ele>1141</ele>
        <time>2022-06-06T11:10:15Z</time>
      </trkpt>
      <trkpt lat="44.74072" lon="4.06215">
        <ele>1141</ele>
        <time>2022-06-06T11:10:34Z</time>
      </trkpt>
      <trkpt lat="44.74039" lon="4.06276">
        <ele>1148</ele>
        <time>2022-06-06T11:10:44Z</time>
      </trkpt>
      <trkpt lat="44.74032" lon="4.06295">
        <ele>1149</ele>
        <time>2022-06-06T11:10:47Z</time>
      </trkpt>
      <trkpt lat="44.74026" lon="4.06318">
        <ele>1148</ele>
        <time>2022-06-06T11:10:50Z</time>
      </trkpt>
      <trkpt lat="44.74025" lon="4.06344">
        <ele>1146</ele>
        <time>2022-06-06T11:10:53Z</time>
      </trkpt>
      <trkpt lat="44.74029" lon="4.06363">
        <ele>1144</ele>
        <time>2022-06-06T11:10:56Z</time>
      </trkpt>
      <trkpt lat="44.74037" lon="4.06382">
        <ele>1142</ele>
        <time>2022-06-06T11:10:58Z</time>
      </trkpt>
      <trkpt lat="44.74048" lon="4.06395">
        <ele>1140</ele>
        <time>2022-06-06T11:11:01Z</time>
      </trkpt>
      <trkpt lat="44.74122" lon="4.06443">
        <ele>1139</ele>
        <time>2022-06-06T11:11:15Z</time>
      </trkpt>
      <trkpt lat="44.74149" lon="4.0647">
        <ele>1143</ele>
        <time>2022-06-06T11:11:21Z</time>
      </trkpt>
      <trkpt lat="44.74173" lon="4.06501">
        <ele>1147</ele>
        <time>2022-06-06T11:11:27Z</time>
      </trkpt>
      <trkpt lat="44.74188" lon="4.06513">
        <ele>1149</ele>
        <time>2022-06-06T11:11:30Z</time>
      </trkpt>
      <trkpt lat="44.74266" lon="4.06563">
        <ele>1149</ele>
        <time>2022-06-06T11:11:45Z</time>
      </trkpt>
      <trkpt lat="44.74321" lon="4.06602">
        <ele>1149</ele>
        <time>2022-06-06T11:11:56Z</time>
      </trkpt>
      <trkpt lat="44.74344" lon="4.06609">
        <ele>1149</ele>
        <time>2022-06-06T11:12:01Z</time>
      </trkpt>
      <trkpt lat="44.74447" lon="4.06633">
        <ele>1145</ele>
        <time>2022-06-06T11:12:19Z</time>
      </trkpt>
      <trkpt lat="44.74459" lon="4.06639">
        <ele>1144</ele>
        <time>2022-06-06T11:12:21Z</time>
      </trkpt>
      <trkpt lat="44.74471" lon="4.06648">
        <ele>1144</ele>
        <time>2022-06-06T11:12:24Z</time>
      </trkpt>
      <trkpt lat="44.74483" lon="4.06658">
        <ele>1143</ele>
        <time>2022-06-06T11:12:26Z</time>
      </trkpt>
      <trkpt lat="44.74493" lon="4.0667">
        <ele>1143</ele>
        <time>2022-06-06T11:12:29Z</time>
      </trkpt>
      <trkpt lat="44.74513" lon="4.06699">
        <ele>1143</ele>
        <time>2022-06-06T11:12:34Z</time>
      </trkpt>
      <trkpt lat="44.74532" lon="4.06738">
        <ele>1145</ele>
        <time>2022-06-06T11:12:40Z</time>
      </trkpt>
      <trkpt lat="44.74544" lon="4.06772">
        <ele>1145</ele>
        <time>2022-06-06T11:12:45Z</time>
      </trkpt>
      <trkpt lat="44.74555" lon="4.06814">
        <ele>1145</ele>
        <time>2022-06-06T11:12:50Z</time>
      </trkpt>
      <trkpt lat="44.74591" lon="4.06971">
        <ele>1148</ele>
        <time>2022-06-06T11:13:11Z</time>
      </trkpt>
      <trkpt lat="44.74627" lon="4.07092">
        <ele>1142</ele>
        <time>2022-06-06T11:13:28Z</time>
      </trkpt>
      <trkpt lat="44.74643" lon="4.07138">
        <ele>1136</ele>
        <time>2022-06-06T11:13:34Z</time>
      </trkpt>
      <trkpt lat="44.74646" lon="4.07162">
        <ele>1135</ele>
        <time>2022-06-06T11:13:37Z</time>
      </trkpt>
      <trkpt lat="44.74646" lon="4.07177">
        <ele>1136</ele>
        <time>2022-06-06T11:13:39Z</time>
      </trkpt>
      <trkpt lat="44.74634" lon="4.0721">
        <ele>1141</ele>
        <time>2022-06-06T11:13:44Z</time>
      </trkpt>
      <trkpt lat="44.74632" lon="4.0722">
        <ele>1141</ele>
        <time>2022-06-06T11:13:45Z</time>
      </trkpt>
      <trkpt lat="44.74631" lon="4.07231">
        <ele>1142</ele>
        <time>2022-06-06T11:13:46Z</time>
      </trkpt>
      <trkpt lat="44.74633" lon="4.07242">
        <ele>1142</ele>
        <time>2022-06-06T11:13:48Z</time>
      </trkpt>
      <trkpt lat="44.74637" lon="4.07248">
        <ele>1141</ele>
        <time>2022-06-06T11:13:49Z</time>
      </trkpt>
      <trkpt lat="44.74643" lon="4.07253">
        <ele>1140</ele>
        <time>2022-06-06T11:13:50Z</time>
      </trkpt>
      <trkpt lat="44.74651" lon="4.07254">
        <ele>1139</ele>
        <time>2022-06-06T11:13:52Z</time>
      </trkpt>
      <trkpt lat="44.74669" lon="4.07249">
        <ele>1135</ele>
        <time>2022-06-06T11:13:55Z</time>
      </trkpt>
      <trkpt lat="44.74721" lon="4.07213">
        <ele>1122</ele>
        <time>2022-06-06T11:14:05Z</time>
      </trkpt>
      <trkpt lat="44.74735" lon="4.07211">
        <ele>1119</ele>
        <time>2022-06-06T11:14:08Z</time>
      </trkpt>
      <trkpt lat="44.74748" lon="4.0722">
        <ele>1118</ele>
        <time>2022-06-06T11:14:10Z</time>
      </trkpt>
      <trkpt lat="44.74753" lon="4.07227">
        <ele>1118</ele>
        <time>2022-06-06T11:14:11Z</time>
      </trkpt>
      <trkpt lat="44.74757" lon="4.07237">
        <ele>1119</ele>
        <time>2022-06-06T11:14:13Z</time>
      </trkpt>
      <trkpt lat="44.74762" lon="4.07266">
        <ele>1121</ele>
        <time>2022-06-06T11:14:17Z</time>
      </trkpt>
      <trkpt lat="44.74767" lon="4.07318">
        <ele>1123</ele>
        <time>2022-06-06T11:14:23Z</time>
      </trkpt>
      <trkpt lat="44.74767" lon="4.07361">
        <ele>1124</ele>
        <time>2022-06-06T11:14:29Z</time>
      </trkpt>
      <trkpt lat="44.74763" lon="4.07398">
        <ele>1124</ele>
        <time>2022-06-06T11:14:34Z</time>
      </trkpt>
      <trkpt lat="44.74764" lon="4.0741">
        <ele>1123</ele>
        <time>2022-06-06T11:14:35Z</time>
      </trkpt>
      <trkpt lat="44.74767" lon="4.0742">
        <ele>1123</ele>
        <time>2022-06-06T11:14:36Z</time>
      </trkpt>
      <trkpt lat="44.74773" lon="4.07428">
        <ele>1122</ele>
        <time>2022-06-06T11:14:38Z</time>
      </trkpt>
      <trkpt lat="44.7478" lon="4.07433">
        <ele>1121</ele>
        <time>2022-06-06T11:14:39Z</time>
      </trkpt>
      <trkpt lat="44.74788" lon="4.07433">
        <ele>1120</ele>
        <time>2022-06-06T11:14:41Z</time>
      </trkpt>
      <trkpt lat="44.74796" lon="4.07429">
        <ele>1119</ele>
        <time>2022-06-06T11:14:42Z</time>
      </trkpt>
      <trkpt lat="44.74808" lon="4.07418">
        <ele>1117</ele>
        <time>2022-06-06T11:14:45Z</time>
      </trkpt>
      <trkpt lat="44.74816" lon="4.07402">
        <ele>1116</ele>
        <time>2022-06-06T11:14:47Z</time>
      </trkpt>
      <trkpt lat="44.7483" lon="4.07364">
        <ele>1113</ele>
        <time>2022-06-06T11:14:53Z</time>
      </trkpt>
      <trkpt lat="44.7484" lon="4.07336">
        <ele>1111</ele>
        <time>2022-06-06T11:14:57Z</time>
      </trkpt>
      <trkpt lat="44.74848" lon="4.07313">
        <ele>1109</ele>
        <time>2022-06-06T11:15:00Z</time>
      </trkpt>
      <trkpt lat="44.74859" lon="4.07305">
        <ele>1107</ele>
        <time>2022-06-06T11:15:02Z</time>
      </trkpt>
      <trkpt lat="44.74866" lon="4.07302">
        <ele>1106</ele>
        <time>2022-06-06T11:15:03Z</time>
      </trkpt>
      <trkpt lat="44.74873" lon="4.07304">
        <ele>1105</ele>
        <time>2022-06-06T11:15:05Z</time>
      </trkpt>
      <trkpt lat="44.74885" lon="4.07314">
        <ele>1105</ele>
        <time>2022-06-06T11:15:07Z</time>
      </trkpt>
      <trkpt lat="44.74892" lon="4.07334">
        <ele>1104</ele>
        <time>2022-06-06T11:15:10Z</time>
      </trkpt>
      <trkpt lat="44.74892" lon="4.07346">
        <ele>1104</ele>
        <time>2022-06-06T11:15:11Z</time>
      </trkpt>
      <trkpt lat="44.7489" lon="4.07355">
        <ele>1105</ele>
        <time>2022-06-06T11:15:13Z</time>
      </trkpt>
      <trkpt lat="44.74841" lon="4.07476">
        <ele>1112</ele>
        <time>2022-06-06T11:15:30Z</time>
      </trkpt>
      <trkpt lat="44.74829" lon="4.07509">
        <ele>1114</ele>
        <time>2022-06-06T11:15:35Z</time>
      </trkpt>
      <trkpt lat="44.74825" lon="4.07541">
        <ele>1115</ele>
        <time>2022-06-06T11:15:39Z</time>
      </trkpt>
      <trkpt lat="44.74825" lon="4.07557">
        <ele>1116</ele>
        <time>2022-06-06T11:15:41Z</time>
      </trkpt>
      <trkpt lat="44.74829" lon="4.07587">
        <ele>1116</ele>
        <time>2022-06-06T11:15:45Z</time>
      </trkpt>
      <trkpt lat="44.74839" lon="4.07624">
        <ele>1118</ele>
        <time>2022-06-06T11:15:50Z</time>
      </trkpt>
      <trkpt lat="44.74855" lon="4.07656">
        <ele>1118</ele>
        <time>2022-06-06T11:15:55Z</time>
      </trkpt>
      <trkpt lat="44.74864" lon="4.07667">
        <ele>1117</ele>
        <time>2022-06-06T11:15:57Z</time>
      </trkpt>
      <trkpt lat="44.74878" lon="4.07677">
        <ele>1117</ele>
        <time>2022-06-06T11:16:00Z</time>
      </trkpt>
      <trkpt lat="44.74892" lon="4.07685">
        <ele>1116</ele>
        <time>2022-06-06T11:16:02Z</time>
      </trkpt>
      <trkpt lat="44.74948" lon="4.07704">
        <ele>1114</ele>
        <time>2022-06-06T11:16:13Z</time>
      </trkpt>
      <trkpt lat="44.74992" lon="4.07706">
        <ele>1112</ele>
        <time>2022-06-06T11:16:21Z</time>
      </trkpt>
      <trkpt lat="44.75039" lon="4.07694">
        <ele>1106</ele>
        <time>2022-06-06T11:16:29Z</time>
      </trkpt>
      <trkpt lat="44.75062" lon="4.07692">
        <ele>1105</ele>
        <time>2022-06-06T11:16:33Z</time>
      </trkpt>
      <trkpt lat="44.75146" lon="4.07696">
        <ele>1103</ele>
        <time>2022-06-06T11:16:48Z</time>
      </trkpt>
      <trkpt lat="44.75207" lon="4.07709">
        <ele>1100</ele>
        <time>2022-06-06T11:16:59Z</time>
      </trkpt>
      <trkpt lat="44.75223" lon="4.07721">
        <ele>1098</ele>
        <time>2022-06-06T11:17:02Z</time>
      </trkpt>
      <trkpt lat="44.75229" lon="4.07731">
        <ele>1098</ele>
        <time>2022-06-06T11:17:04Z</time>
      </trkpt>
      <trkpt lat="44.75236" lon="4.07757">
        <ele>1097</ele>
        <time>2022-06-06T11:17:07Z</time>
      </trkpt>
      <trkpt lat="44.75236" lon="4.07771">
        <ele>1097</ele>
        <time>2022-06-06T11:17:09Z</time>
      </trkpt>
      <trkpt lat="44.75221" lon="4.07857">
        <ele>1104</ele>
        <time>2022-06-06T11:17:20Z</time>
      </trkpt>
      <trkpt lat="44.75219" lon="4.07889">
        <ele>1106</ele>
        <time>2022-06-06T11:17:24Z</time>
      </trkpt>
      <trkpt lat="44.75221" lon="4.07905">
        <ele>1105</ele>
        <time>2022-06-06T11:17:27Z</time>
      </trkpt>
      <trkpt lat="44.75255" lon="4.08033">
        <ele>1093</ele>
        <time>2022-06-06T11:17:44Z</time>
      </trkpt>
      <trkpt lat="44.75297" lon="4.08136">
        <ele>1090</ele>
        <time>2022-06-06T11:17:59Z</time>
      </trkpt>
      <trkpt lat="44.753" lon="4.08152">
        <ele>1089</ele>
        <time>2022-06-06T11:18:01Z</time>
      </trkpt>
      <trkpt lat="44.75307" lon="4.08202">
        <ele>1087</ele>
        <time>2022-06-06T11:18:07Z</time>
      </trkpt>
      <trkpt lat="44.75309" lon="4.0823">
        <ele>1086</ele>
        <time>2022-06-06T11:18:11Z</time>
      </trkpt>
      <trkpt lat="44.75297" lon="4.08338">
        <ele>1087</ele>
        <time>2022-06-06T11:18:25Z</time>
      </trkpt>
      <trkpt lat="44.75297" lon="4.08351">
        <ele>1086</ele>
        <time>2022-06-06T11:18:26Z</time>
      </trkpt>
      <trkpt lat="44.753" lon="4.08364">
        <ele>1083</ele>
        <time>2022-06-06T11:18:28Z</time>
      </trkpt>
      <trkpt lat="44.75306" lon="4.08376">
        <ele>1080</ele>
        <time>2022-06-06T11:18:30Z</time>
      </trkpt>
      <trkpt lat="44.75324" lon="4.08416">
        <ele>1073</ele>
        <time>2022-06-06T11:18:36Z</time>
      </trkpt>
      <trkpt lat="44.75335" lon="4.08436">
        <ele>1073</ele>
        <time>2022-06-06T11:18:39Z</time>
      </trkpt>
      <trkpt lat="44.75337" lon="4.08445">
        <ele>1074</ele>
        <time>2022-06-06T11:18:40Z</time>
      </trkpt>
      <trkpt lat="44.75337" lon="4.08456">
        <ele>1075</ele>
        <time>2022-06-06T11:18:42Z</time>
      </trkpt>
      <trkpt lat="44.75327" lon="4.08479">
        <ele>1074</ele>
        <time>2022-06-06T11:18:45Z</time>
      </trkpt>
      <trkpt lat="44.75313" lon="4.08525">
        <ele>1075</ele>
        <time>2022-06-06T11:18:51Z</time>
      </trkpt>
      <trkpt lat="44.75311" lon="4.08537">
        <ele>1075</ele>
        <time>2022-06-06T11:18:53Z</time>
      </trkpt>
      <trkpt lat="44.75313" lon="4.08551">
        <ele>1075</ele>
        <time>2022-06-06T11:18:55Z</time>
      </trkpt>
      <trkpt lat="44.75316" lon="4.08565">
        <ele>1074</ele>
        <time>2022-06-06T11:18:57Z</time>
      </trkpt>
      <trkpt lat="44.75327" lon="4.08592">
        <ele>1073</ele>
        <time>2022-06-06T11:19:01Z</time>
      </trkpt>
      <trkpt lat="44.75333" lon="4.086">
        <ele>1072</ele>
        <time>2022-06-06T11:19:02Z</time>
      </trkpt>
      <trkpt lat="44.75345" lon="4.08607">
        <ele>1072</ele>
        <time>2022-06-06T11:19:04Z</time>
      </trkpt>
      <trkpt lat="44.75373" lon="4.08606">
        <ele>1076</ele>
        <time>2022-06-06T11:19:09Z</time>
      </trkpt>
      <trkpt lat="44.75389" lon="4.08607">
        <ele>1077</ele>
        <time>2022-06-06T11:19:12Z</time>
      </trkpt>
      <trkpt lat="44.75403" lon="4.08613">
        <ele>1078</ele>
        <time>2022-06-06T11:19:15Z</time>
      </trkpt>
      <trkpt lat="44.75442" lon="4.08633">
        <ele>1079</ele>
        <time>2022-06-06T11:19:22Z</time>
      </trkpt>
      <trkpt lat="44.75449" lon="4.08639">
        <ele>1079</ele>
        <time>2022-06-06T11:19:24Z</time>
      </trkpt>
      <trkpt lat="44.75457" lon="4.08644">
        <ele>1079</ele>
        <time>2022-06-06T11:19:25Z</time>
      </trkpt>
      <trkpt lat="44.75471" lon="4.08661">
        <ele>1077</ele>
        <time>2022-06-06T11:19:28Z</time>
      </trkpt>
      <trkpt lat="44.7549" lon="4.08692">
        <ele>1074</ele>
        <time>2022-06-06T11:19:34Z</time>
      </trkpt>
      <trkpt lat="44.75497" lon="4.08694">
        <ele>1075</ele>
        <time>2022-06-06T11:19:35Z</time>
      </trkpt>
      <trkpt lat="44.75503" lon="4.08689">
        <ele>1077</ele>
        <time>2022-06-06T11:19:36Z</time>
      </trkpt>
      <trkpt lat="44.75476" lon="4.0865">
        <ele>1080</ele>
        <time>2022-06-06T11:19:43Z</time>
      </trkpt>
      <trkpt lat="44.75458" lon="4.08631">
        <ele>1082</ele>
        <time>2022-06-06T11:19:47Z</time>
      </trkpt>
      <trkpt lat="44.75406" lon="4.08595">
        <ele>1081</ele>
        <time>2022-06-06T11:19:57Z</time>
      </trkpt>
      <trkpt lat="44.75355" lon="4.08578">
        <ele>1077</ele>
        <time>2022-06-06T11:20:07Z</time>
      </trkpt>
      <trkpt lat="44.75346" lon="4.08571">
        <ele>1075</ele>
        <time>2022-06-06T11:20:08Z</time>
      </trkpt>
      <trkpt lat="44.75341" lon="4.08564">
        <ele>1075</ele>
        <time>2022-06-06T11:20:10Z</time>
      </trkpt>
      <trkpt lat="44.75337" lon="4.08555">
        <ele>1074</ele>
        <time>2022-06-06T11:20:11Z</time>
      </trkpt>
      <trkpt lat="44.75336" lon="4.08545">
        <ele>1075</ele>
        <time>2022-06-06T11:20:12Z</time>
      </trkpt>
      <trkpt lat="44.75339" lon="4.08529">
        <ele>1076</ele>
        <time>2022-06-06T11:20:14Z</time>
      </trkpt>
      <trkpt lat="44.75416" lon="4.0839">
        <ele>1096</ele>
        <time>2022-06-06T11:20:37Z</time>
      </trkpt>
      <trkpt lat="44.75428" lon="4.08356">
        <ele>1097</ele>
        <time>2022-06-06T11:20:42Z</time>
      </trkpt>
      <trkpt lat="44.75445" lon="4.08303">
        <ele>1099</ele>
        <time>2022-06-06T11:20:49Z</time>
      </trkpt>
      <trkpt lat="44.7545" lon="4.08252">
        <ele>1098</ele>
        <time>2022-06-06T11:20:55Z</time>
      </trkpt>
      <trkpt lat="44.7545" lon="4.08199">
        <ele>1099</ele>
        <time>2022-06-06T11:21:02Z</time>
      </trkpt>
      <trkpt lat="44.75451" lon="4.08154">
        <ele>1102</ele>
        <time>2022-06-06T11:21:08Z</time>
      </trkpt>
      <trkpt lat="44.75445" lon="4.0812">
        <ele>1105</ele>
        <time>2022-06-06T11:21:12Z</time>
      </trkpt>
      <trkpt lat="44.75437" lon="4.08095">
        <ele>1107</ele>
        <time>2022-06-06T11:21:16Z</time>
      </trkpt>
      <trkpt lat="44.75425" lon="4.08071">
        <ele>1108</ele>
        <time>2022-06-06T11:21:19Z</time>
      </trkpt>
      <trkpt lat="44.75369" lon="4.08">
        <ele>1107</ele>
        <time>2022-06-06T11:21:33Z</time>
      </trkpt>
      <trkpt lat="44.75346" lon="4.07948">
        <ele>1109</ele>
        <time>2022-06-06T11:21:41Z</time>
      </trkpt>
      <trkpt lat="44.75334" lon="4.07895">
        <ele>1112</ele>
        <time>2022-06-06T11:21:48Z</time>
      </trkpt>
      <trkpt lat="44.75331" lon="4.07839">
        <ele>1115</ele>
        <time>2022-06-06T11:21:55Z</time>
      </trkpt>
      <trkpt lat="44.75343" lon="4.07792">
        <ele>1122</ele>
        <time>2022-06-06T11:22:01Z</time>
      </trkpt>
      <trkpt lat="44.75344" lon="4.07751">
        <ele>1123</ele>
        <time>2022-06-06T11:22:06Z</time>
      </trkpt>
      <trkpt lat="44.75354" lon="4.07656">
        <ele>1130</ele>
        <time>2022-06-06T11:22:18Z</time>
      </trkpt>
      <trkpt lat="44.75351" lon="4.07634">
        <ele>1131</ele>
        <time>2022-06-06T11:22:21Z</time>
      </trkpt>
      <trkpt lat="44.75322" lon="4.07558">
        <ele>1134</ele>
        <time>2022-06-06T11:22:32Z</time>
      </trkpt>
      <trkpt lat="44.75304" lon="4.07531">
        <ele>1136</ele>
        <time>2022-06-06T11:22:37Z</time>
      </trkpt>
      <trkpt lat="44.75282" lon="4.07512">
        <ele>1136</ele>
        <time>2022-06-06T11:22:41Z</time>
      </trkpt>
      <trkpt lat="44.75252" lon="4.07488">
        <ele>1137</ele>
        <time>2022-06-06T11:22:47Z</time>
      </trkpt>
      <trkpt lat="44.7522" lon="4.07468">
        <ele>1142</ele>
        <time>2022-06-06T11:22:54Z</time>
      </trkpt>
      <trkpt lat="44.7518" lon="4.07459">
        <ele>1144</ele>
        <time>2022-06-06T11:23:01Z</time>
      </trkpt>
      <trkpt lat="44.75138" lon="4.07456">
        <ele>1141</ele>
        <time>2022-06-06T11:23:08Z</time>
      </trkpt>
      <trkpt lat="44.75116" lon="4.07451">
        <ele>1140</ele>
        <time>2022-06-06T11:23:12Z</time>
      </trkpt>
      <trkpt lat="44.75096" lon="4.07439">
        <ele>1139</ele>
        <time>2022-06-06T11:23:16Z</time>
      </trkpt>
      <trkpt lat="44.7509" lon="4.07428">
        <ele>1139</ele>
        <time>2022-06-06T11:23:18Z</time>
      </trkpt>
      <trkpt lat="44.7509" lon="4.07407">
        <ele>1140</ele>
        <time>2022-06-06T11:23:21Z</time>
      </trkpt>
      <trkpt lat="44.75138" lon="4.07261">
        <ele>1149</ele>
        <time>2022-06-06T11:23:41Z</time>
      </trkpt>
      <trkpt lat="44.75165" lon="4.07205">
        <ele>1154</ele>
        <time>2022-06-06T11:23:49Z</time>
      </trkpt>
      <trkpt lat="44.75196" lon="4.07149">
        <ele>1155</ele>
        <time>2022-06-06T11:23:58Z</time>
      </trkpt>
      <trkpt lat="44.75211" lon="4.07134">
        <ele>1156</ele>
        <time>2022-06-06T11:24:02Z</time>
      </trkpt>
      <trkpt lat="44.75258" lon="4.07123">
        <ele>1159</ele>
        <time>2022-06-06T11:24:10Z</time>
      </trkpt>
      <trkpt lat="44.75269" lon="4.0711">
        <ele>1156</ele>
        <time>2022-06-06T11:24:13Z</time>
      </trkpt>
      <trkpt lat="44.75278" lon="4.07068">
        <ele>1155</ele>
        <time>2022-06-06T11:24:18Z</time>
      </trkpt>
      <trkpt lat="44.75291" lon="4.07006">
        <ele>1151</ele>
        <time>2022-06-06T11:24:26Z</time>
      </trkpt>
      <trkpt lat="44.75319" lon="4.06911">
        <ele>1158</ele>
        <time>2022-06-06T11:24:39Z</time>
      </trkpt>
      <trkpt lat="44.75329" lon="4.06886">
        <ele>1161</ele>
        <time>2022-06-06T11:24:43Z</time>
      </trkpt>
      <trkpt lat="44.75342" lon="4.06868">
        <ele>1162</ele>
        <time>2022-06-06T11:24:46Z</time>
      </trkpt>
      <trkpt lat="44.75383" lon="4.06844">
        <ele>1160</ele>
        <time>2022-06-06T11:24:54Z</time>
      </trkpt>
      <trkpt lat="44.75419" lon="4.0681">
        <ele>1162</ele>
        <time>2022-06-06T11:25:02Z</time>
      </trkpt>
      <trkpt lat="44.75451" lon="4.06757">
        <ele>1163</ele>
        <time>2022-06-06T11:25:11Z</time>
      </trkpt>
      <trkpt lat="44.75481" lon="4.06722">
        <ele>1163</ele>
        <time>2022-06-06T11:25:18Z</time>
      </trkpt>
      <trkpt lat="44.75501" lon="4.06696">
        <ele>1164</ele>
        <time>2022-06-06T11:25:22Z</time>
      </trkpt>
      <trkpt lat="44.75524" lon="4.06656">
        <ele>1166</ele>
        <time>2022-06-06T11:25:29Z</time>
      </trkpt>
      <trkpt lat="44.75617" lon="4.06558">
        <ele>1162</ele>
        <time>2022-06-06T11:25:50Z</time>
      </trkpt>
      <trkpt lat="44.7563" lon="4.06519">
        <ele>1167</ele>
        <time>2022-06-06T11:25:55Z</time>
      </trkpt>
      <trkpt lat="44.75639" lon="4.06503">
        <ele>1169</ele>
        <time>2022-06-06T11:25:58Z</time>
      </trkpt>
      <trkpt lat="44.75648" lon="4.065">
        <ele>1168</ele>
        <time>2022-06-06T11:25:59Z</time>
      </trkpt>
      <trkpt lat="44.75685" lon="4.06495">
        <ele>1164</ele>
        <time>2022-06-06T11:26:06Z</time>
      </trkpt>
      <trkpt lat="44.75809" lon="4.06422">
        <ele>1159</ele>
        <time>2022-06-06T11:26:30Z</time>
      </trkpt>
      <trkpt lat="44.75846" lon="4.06379">
        <ele>1161</ele>
        <time>2022-06-06T11:26:38Z</time>
      </trkpt>
      <trkpt lat="44.75871" lon="4.06362">
        <ele>1161</ele>
        <time>2022-06-06T11:26:43Z</time>
      </trkpt>
      <trkpt lat="44.759" lon="4.06348">
        <ele>1159</ele>
        <time>2022-06-06T11:26:49Z</time>
      </trkpt>
      <trkpt lat="44.75924" lon="4.06338">
        <ele>1157</ele>
        <time>2022-06-06T11:26:53Z</time>
      </trkpt>
      <trkpt lat="44.75923" lon="4.06324">
        <ele>1158</ele>
        <time>2022-06-06T11:26:55Z</time>
      </trkpt>
      <trkpt lat="44.75947" lon="4.06246">
        <ele>1164</ele>
        <time>2022-06-06T11:27:06Z</time>
      </trkpt>
      <trkpt lat="44.75954" lon="4.06211">
        <ele>1166</ele>
        <time>2022-06-06T11:27:10Z</time>
      </trkpt>
      <trkpt lat="44.75962" lon="4.0613">
        <ele>1169</ele>
        <time>2022-06-06T11:27:21Z</time>
      </trkpt>
      <trkpt lat="44.75967" lon="4.06106">
        <ele>1169</ele>
        <time>2022-06-06T11:27:24Z</time>
      </trkpt>
      <trkpt lat="44.75982" lon="4.06083">
        <ele>1171</ele>
        <time>2022-06-06T11:27:28Z</time>
      </trkpt>
      <trkpt lat="44.76037" lon="4.06032">
        <ele>1178</ele>
        <time>2022-06-06T11:27:39Z</time>
      </trkpt>
      <trkpt lat="44.76055" lon="4.06">
        <ele>1180</ele>
        <time>2022-06-06T11:27:45Z</time>
      </trkpt>
      <trkpt lat="44.76064" lon="4.05962">
        <ele>1181</ele>
        <time>2022-06-06T11:27:50Z</time>
      </trkpt>
      <trkpt lat="44.76073" lon="4.05919">
        <ele>1182</ele>
        <time>2022-06-06T11:27:55Z</time>
      </trkpt>
      <trkpt lat="44.7607" lon="4.05883">
        <ele>1184</ele>
        <time>2022-06-06T11:28:00Z</time>
      </trkpt>
      <trkpt lat="44.7606" lon="4.05848">
        <ele>1186</ele>
        <time>2022-06-06T11:28:05Z</time>
      </trkpt>
      <trkpt lat="44.76056" lon="4.05784">
        <ele>1188</ele>
        <time>2022-06-06T11:28:13Z</time>
      </trkpt>
      <trkpt lat="44.76094" lon="4.05717">
        <ele>1189</ele>
        <time>2022-06-06T11:28:24Z</time>
      </trkpt>
      <trkpt lat="44.76112" lon="4.05674">
        <ele>1191</ele>
        <time>2022-06-06T11:28:30Z</time>
      </trkpt>
      <trkpt lat="44.76168" lon="4.05582">
        <ele>1194</ele>
        <time>2022-06-06T11:28:45Z</time>
      </trkpt>
      <trkpt lat="44.76175" lon="4.05555">
        <ele>1196</ele>
        <time>2022-06-06T11:28:49Z</time>
      </trkpt>
      <trkpt lat="44.76175" lon="4.05535">
        <ele>1196</ele>
        <time>2022-06-06T11:28:51Z</time>
      </trkpt>
      <trkpt lat="44.76168" lon="4.0552">
        <ele>1196</ele>
        <time>2022-06-06T11:28:54Z</time>
      </trkpt>
      <trkpt lat="44.76159" lon="4.05514">
        <ele>1196</ele>
        <time>2022-06-06T11:28:55Z</time>
      </trkpt>
      <trkpt lat="44.76144" lon="4.05517">
        <ele>1197</ele>
        <time>2022-06-06T11:28:58Z</time>
      </trkpt>
      <trkpt lat="44.76128" lon="4.05541">
        <ele>1197</ele>
        <time>2022-06-06T11:29:02Z</time>
      </trkpt>
      <trkpt lat="44.76111" lon="4.05555">
        <ele>1197</ele>
        <time>2022-06-06T11:29:06Z</time>
      </trkpt>
      <trkpt lat="44.76088" lon="4.05568">
        <ele>1197</ele>
        <time>2022-06-06T11:29:10Z</time>
      </trkpt>
      <trkpt lat="44.76036" lon="4.0558">
        <ele>1202</ele>
        <time>2022-06-06T11:29:20Z</time>
      </trkpt>
      <trkpt lat="44.76024" lon="4.05577">
        <ele>1203</ele>
        <time>2022-06-06T11:29:22Z</time>
      </trkpt>
      <trkpt lat="44.76018" lon="4.05566">
        <ele>1204</ele>
        <time>2022-06-06T11:29:24Z</time>
      </trkpt>
      <trkpt lat="44.76021" lon="4.05552">
        <ele>1204</ele>
        <time>2022-06-06T11:29:25Z</time>
      </trkpt>
      <trkpt lat="44.76047" lon="4.05479">
        <ele>1204</ele>
        <time>2022-06-06T11:29:36Z</time>
      </trkpt>
      <trkpt lat="44.76056" lon="4.05422">
        <ele>1205</ele>
        <time>2022-06-06T11:29:43Z</time>
      </trkpt>
      <trkpt lat="44.76055" lon="4.05391">
        <ele>1208</ele>
        <time>2022-06-06T11:29:47Z</time>
      </trkpt>
      <trkpt lat="44.7605" lon="4.05363">
        <ele>1211</ele>
        <time>2022-06-06T11:29:51Z</time>
      </trkpt>
      <trkpt lat="44.76047" lon="4.05333">
        <ele>1214</ele>
        <time>2022-06-06T11:29:54Z</time>
      </trkpt>
      <trkpt lat="44.76048" lon="4.05304">
        <ele>1216</ele>
        <time>2022-06-06T11:29:58Z</time>
      </trkpt>
      <trkpt lat="44.76079" lon="4.05228">
        <ele>1223</ele>
        <time>2022-06-06T11:30:09Z</time>
      </trkpt>
      <trkpt lat="44.76084" lon="4.05222">
        <ele>1223</ele>
        <time>2022-06-06T11:30:10Z</time>
      </trkpt>
      <trkpt lat="44.76115" lon="4.05176">
        <ele>1226</ele>
        <time>2022-06-06T11:30:18Z</time>
      </trkpt>
      <trkpt lat="44.76159" lon="4.05106">
        <ele>1227</ele>
        <time>2022-06-06T11:30:30Z</time>
      </trkpt>
      <trkpt lat="44.76209" lon="4.0498">
        <ele>1228</ele>
        <time>2022-06-06T11:30:48Z</time>
      </trkpt>
      <trkpt lat="44.76223" lon="4.04931">
        <ele>1229</ele>
        <time>2022-06-06T11:30:55Z</time>
      </trkpt>
      <trkpt lat="44.76221" lon="4.04891">
        <ele>1230</ele>
        <time>2022-06-06T11:31:00Z</time>
      </trkpt>
      <trkpt lat="44.76175" lon="4.04806">
        <ele>1228</ele>
        <time>2022-06-06T11:31:14Z</time>
      </trkpt>
      <trkpt lat="44.76171" lon="4.04773">
        <ele>1228</ele>
        <time>2022-06-06T11:31:18Z</time>
      </trkpt>
      <trkpt lat="44.76181" lon="4.04716">
        <ele>1232</ele>
        <time>2022-06-06T11:31:25Z</time>
      </trkpt>
      <trkpt lat="44.76176" lon="4.04689">
        <ele>1233</ele>
        <time>2022-06-06T11:31:29Z</time>
      </trkpt>
      <trkpt lat="44.76163" lon="4.04668">
        <ele>1233</ele>
        <time>2022-06-06T11:31:32Z</time>
      </trkpt>
      <trkpt lat="44.76139" lon="4.04639">
        <ele>1234</ele>
        <time>2022-06-06T11:31:38Z</time>
      </trkpt>
      <trkpt lat="44.76114" lon="4.04599">
        <ele>1237</ele>
        <time>2022-06-06T11:31:45Z</time>
      </trkpt>
      <trkpt lat="44.76098" lon="4.04549">
        <ele>1242</ele>
        <time>2022-06-06T11:31:52Z</time>
      </trkpt>
      <trkpt lat="44.76081" lon="4.04484">
        <ele>1246</ele>
        <time>2022-06-06T11:32:00Z</time>
      </trkpt>
      <trkpt lat="44.76079" lon="4.04401">
        <ele>1244</ele>
        <time>2022-06-06T11:32:11Z</time>
      </trkpt>
      <trkpt lat="44.7608" lon="4.04313">
        <ele>1240</ele>
        <time>2022-06-06T11:32:22Z</time>
      </trkpt>
      <trkpt lat="44.76086" lon="4.04246">
        <ele>1237</ele>
        <time>2022-06-06T11:32:31Z</time>
      </trkpt>
      <trkpt lat="44.76096" lon="4.04162">
        <ele>1234</ele>
        <time>2022-06-06T11:32:41Z</time>
      </trkpt>
      <trkpt lat="44.76127" lon="4.04011">
        <ele>1230</ele>
        <time>2022-06-06T11:33:01Z</time>
      </trkpt>
      <trkpt lat="44.76131" lon="4.03945">
        <ele>1229</ele>
        <time>2022-06-06T11:33:10Z</time>
      </trkpt>
      <trkpt lat="44.76131" lon="4.03871">
        <ele>1227</ele>
        <time>2022-06-06T11:33:19Z</time>
      </trkpt>
      <trkpt lat="44.76126" lon="4.03813">
        <ele>1225</ele>
        <time>2022-06-06T11:33:26Z</time>
      </trkpt>
      <trkpt lat="44.76103" lon="4.03711">
        <ele>1223</ele>
        <time>2022-06-06T11:33:40Z</time>
      </trkpt>
      <trkpt lat="44.76075" lon="4.03613">
        <ele>1222</ele>
        <time>2022-06-06T11:33:53Z</time>
      </trkpt>
      <trkpt lat="44.76074" lon="4.03556">
        <ele>1221</ele>
        <time>2022-06-06T11:34:00Z</time>
      </trkpt>
      <trkpt lat="44.76082" lon="4.03525">
        <ele>1220</ele>
        <time>2022-06-06T11:34:05Z</time>
      </trkpt>
      <trkpt lat="44.76097" lon="4.03509">
        <ele>1219</ele>
        <time>2022-06-06T11:34:08Z</time>
      </trkpt>
      <trkpt lat="44.76125" lon="4.03498">
        <ele>1217</ele>
        <time>2022-06-06T11:34:13Z</time>
      </trkpt>
      <trkpt lat="44.76141" lon="4.03487">
        <ele>1216</ele>
        <time>2022-06-06T11:34:16Z</time>
      </trkpt>
      <trkpt lat="44.76168" lon="4.03453">
        <ele>1214</ele>
        <time>2022-06-06T11:34:23Z</time>
      </trkpt>
      <trkpt lat="44.76195" lon="4.03399">
        <ele>1213</ele>
        <time>2022-06-06T11:34:31Z</time>
      </trkpt>
      <trkpt lat="44.76229" lon="4.03263">
        <ele>1210</ele>
        <time>2022-06-06T11:34:49Z</time>
      </trkpt>
      <trkpt lat="44.76233" lon="4.03238">
        <ele>1210</ele>
        <time>2022-06-06T11:34:52Z</time>
      </trkpt>
      <trkpt lat="44.76234" lon="4.03216">
        <ele>1210</ele>
        <time>2022-06-06T11:34:55Z</time>
      </trkpt>
      <trkpt lat="44.76233" lon="4.0312">
        <ele>1209</ele>
        <time>2022-06-06T11:35:07Z</time>
      </trkpt>
      <trkpt lat="44.76239" lon="4.02951">
        <ele>1207</ele>
        <time>2022-06-06T11:35:29Z</time>
      </trkpt>
      <trkpt lat="44.76249" lon="4.02904">
        <ele>1205</ele>
        <time>2022-06-06T11:35:35Z</time>
      </trkpt>
      <trkpt lat="44.76282" lon="4.02798">
        <ele>1198</ele>
        <time>2022-06-06T11:35:50Z</time>
      </trkpt>
      <trkpt lat="44.76337" lon="4.02467">
        <ele>1190</ele>
        <time>2022-06-06T11:36:33Z</time>
      </trkpt>
      <trkpt lat="44.76345" lon="4.02417">
        <ele>1191</ele>
        <time>2022-06-06T11:36:39Z</time>
      </trkpt>
      <trkpt lat="44.76347" lon="4.02409">
        <ele>1191</ele>
        <time>2022-06-06T11:36:40Z</time>
      </trkpt>
      <trkpt lat="44.76353" lon="4.02375">
        <ele>1190</ele>
        <time>2022-06-06T11:36:44Z</time>
      </trkpt>
      <trkpt lat="44.76379" lon="4.02238">
        <ele>1191</ele>
        <time>2022-06-06T11:37:02Z</time>
      </trkpt>
      <trkpt lat="44.76411" lon="4.02045">
        <ele>1192</ele>
        <time>2022-06-06T11:37:27Z</time>
      </trkpt>
      <trkpt lat="44.76421" lon="4.0197">
        <ele>1193</ele>
        <time>2022-06-06T11:37:37Z</time>
      </trkpt>
      <trkpt lat="44.76421" lon="4.01969">
        <ele>1193</ele>
        <time>2022-06-06T11:37:37Z</time>
      </trkpt>
      <trkpt lat="44.76435" lon="4.01819">
        <ele>1199</ele>
        <time>2022-06-06T11:37:56Z</time>
      </trkpt>
      <trkpt lat="44.76444" lon="4.01747">
        <ele>1202</ele>
        <time>2022-06-06T11:38:06Z</time>
      </trkpt>
      <trkpt lat="44.7644" lon="4.0171">
        <ele>1203</ele>
        <time>2022-06-06T11:38:10Z</time>
      </trkpt>
      <trkpt lat="44.76417" lon="4.01585">
        <ele>1209</ele>
        <time>2022-06-06T11:38:27Z</time>
      </trkpt>
      <trkpt lat="44.76393" lon="4.01479">
        <ele>1215</ele>
        <time>2022-06-06T11:38:41Z</time>
      </trkpt>
      <trkpt lat="44.76333" lon="4.01389">
        <ele>1223</ele>
        <time>2022-06-06T11:38:56Z</time>
      </trkpt>
      <trkpt lat="44.76313" lon="4.01348">
        <ele>1227</ele>
        <time>2022-06-06T11:39:03Z</time>
      </trkpt>
      <trkpt lat="44.76305" lon="4.01318">
        <ele>1229</ele>
        <time>2022-06-06T11:39:07Z</time>
      </trkpt>
      <trkpt lat="44.76307" lon="4.01299">
        <ele>1231</ele>
        <time>2022-06-06T11:39:09Z</time>
      </trkpt>
      <trkpt lat="44.76295" lon="4.01301">
        <ele>1231</ele>
        <time>2022-06-06T11:39:11Z</time>
      </trkpt>
      <trkpt lat="44.76265" lon="4.01338">
        <ele>1230</ele>
        <time>2022-06-06T11:39:18Z</time>
      </trkpt>
      <trkpt lat="44.76233" lon="4.01409">
        <ele>1235</ele>
        <time>2022-06-06T11:39:29Z</time>
      </trkpt>
      <trkpt lat="44.76185" lon="4.01343">
        <ele>1240</ele>
        <time>2022-06-06T11:39:41Z</time>
      </trkpt>
      <trkpt lat="44.76171" lon="4.01308">
        <ele>1243</ele>
        <time>2022-06-06T11:39:46Z</time>
      </trkpt>
      <trkpt lat="44.76158" lon="4.01225">
        <ele>1250</ele>
        <time>2022-06-06T11:39:57Z</time>
      </trkpt>
      <trkpt lat="44.76139" lon="4.01163">
        <ele>1255</ele>
        <time>2022-06-06T11:40:05Z</time>
      </trkpt>
      <trkpt lat="44.7613" lon="4.01147">
        <ele>1257</ele>
        <time>2022-06-06T11:40:08Z</time>
      </trkpt>
      <trkpt lat="44.76115" lon="4.01155">
        <ele>1258</ele>
        <time>2022-06-06T11:40:11Z</time>
      </trkpt>
      <trkpt lat="44.76092" lon="4.01174">
        <ele>1261</ele>
        <time>2022-06-06T11:40:15Z</time>
      </trkpt>
      <trkpt lat="44.76079" lon="4.01177">
        <ele>1262</ele>
        <time>2022-06-06T11:40:18Z</time>
      </trkpt>
      <trkpt lat="44.76071" lon="4.01177">
        <ele>1263</ele>
        <time>2022-06-06T11:40:19Z</time>
      </trkpt>
      <trkpt lat="44.76047" lon="4.01168">
        <ele>1266</ele>
        <time>2022-06-06T11:40:24Z</time>
      </trkpt>
      <trkpt lat="44.76027" lon="4.01168">
        <ele>1268</ele>
        <time>2022-06-06T11:40:27Z</time>
      </trkpt>
      <trkpt lat="44.76002" lon="4.01172">
        <ele>1271</ele>
        <time>2022-06-06T11:40:32Z</time>
      </trkpt>
      <trkpt lat="44.75927" lon="4.01191">
        <ele>1273</ele>
        <time>2022-06-06T11:40:45Z</time>
      </trkpt>
      <trkpt lat="44.75912" lon="4.01195">
        <ele>1273</ele>
        <time>2022-06-06T11:40:48Z</time>
      </trkpt>
      <trkpt lat="44.75779" lon="4.01239">
        <ele>1275</ele>
        <time>2022-06-06T11:41:12Z</time>
      </trkpt>
      <trkpt lat="44.75726" lon="4.0124">
        <ele>1273</ele>
        <time>2022-06-06T11:41:22Z</time>
      </trkpt>
      <trkpt lat="44.7567" lon="4.01247">
        <ele>1271</ele>
        <time>2022-06-06T11:41:32Z</time>
      </trkpt>
      <trkpt lat="44.75647" lon="4.01249">
        <ele>1271</ele>
        <time>2022-06-06T11:41:36Z</time>
      </trkpt>
      <trkpt lat="44.75633" lon="4.01248">
        <ele>1271</ele>
        <time>2022-06-06T11:41:38Z</time>
      </trkpt>
      <trkpt lat="44.75583" lon="4.01238">
        <ele>1271</ele>
        <time>2022-06-06T11:41:47Z</time>
      </trkpt>
      <trkpt lat="44.75563" lon="4.01234">
        <ele>1271</ele>
        <time>2022-06-06T11:41:51Z</time>
      </trkpt>
      <trkpt lat="44.75544" lon="4.01227">
        <ele>1271</ele>
        <time>2022-06-06T11:41:54Z</time>
      </trkpt>
      <trkpt lat="44.75514" lon="4.01216">
        <ele>1271</ele>
        <time>2022-06-06T11:42:00Z</time>
      </trkpt>
      <trkpt lat="44.75501" lon="4.01211">
        <ele>1271</ele>
        <time>2022-06-06T11:42:02Z</time>
      </trkpt>
      <trkpt lat="44.75489" lon="4.01203">
        <ele>1271</ele>
        <time>2022-06-06T11:42:05Z</time>
      </trkpt>
      <trkpt lat="44.7548" lon="4.01198">
        <ele>1272</ele>
        <time>2022-06-06T11:42:06Z</time>
      </trkpt>
      <trkpt lat="44.75468" lon="4.01187">
        <ele>1273</ele>
        <time>2022-06-06T11:42:09Z</time>
      </trkpt>
      <trkpt lat="44.75424" lon="4.01121">
        <ele>1274</ele>
        <time>2022-06-06T11:42:20Z</time>
      </trkpt>
      <trkpt lat="44.75408" lon="4.01101">
        <ele>1275</ele>
        <time>2022-06-06T11:42:24Z</time>
      </trkpt>
      <trkpt lat="44.75331" lon="4.01031">
        <ele>1276</ele>
        <time>2022-06-06T11:42:40Z</time>
      </trkpt>
      <trkpt lat="44.75305" lon="4.00998">
        <ele>1276</ele>
        <time>2022-06-06T11:42:47Z</time>
      </trkpt>
      <trkpt lat="44.75296" lon="4.00982">
        <ele>1276</ele>
        <time>2022-06-06T11:42:49Z</time>
      </trkpt>
      <trkpt lat="44.75285" lon="4.00951">
        <ele>1277</ele>
        <time>2022-06-06T11:42:54Z</time>
      </trkpt>
      <trkpt lat="44.75276" lon="4.00912">
        <ele>1278</ele>
        <time>2022-06-06T11:42:59Z</time>
      </trkpt>
      <trkpt lat="44.75269" lon="4.00865">
        <ele>1280</ele>
        <time>2022-06-06T11:43:05Z</time>
      </trkpt>
      <trkpt lat="44.75264" lon="4.00819">
        <ele>1282</ele>
        <time>2022-06-06T11:43:11Z</time>
      </trkpt>
      <trkpt lat="44.75263" lon="4.00727">
        <ele>1287</ele>
        <time>2022-06-06T11:43:22Z</time>
      </trkpt>
      <trkpt lat="44.75265" lon="4.00676">
        <ele>1287</ele>
        <time>2022-06-06T11:43:29Z</time>
      </trkpt>
      <trkpt lat="44.75265" lon="4.00513">
        <ele>1287</ele>
        <time>2022-06-06T11:43:49Z</time>
      </trkpt>
      <trkpt lat="44.75267" lon="4.00492">
        <ele>1287</ele>
        <time>2022-06-06T11:43:52Z</time>
      </trkpt>
      <trkpt lat="44.75272" lon="4.00468">
        <ele>1286</ele>
        <time>2022-06-06T11:43:55Z</time>
      </trkpt>
      <trkpt lat="44.7528" lon="4.00446">
        <ele>1285</ele>
        <time>2022-06-06T11:43:58Z</time>
      </trkpt>
      <trkpt lat="44.75305" lon="4.00391">
        <ele>1283</ele>
        <time>2022-06-06T11:44:07Z</time>
      </trkpt>
      <trkpt lat="44.75341" lon="4.00321">
        <ele>1282</ele>
        <time>2022-06-06T11:44:17Z</time>
      </trkpt>
      <trkpt lat="44.75344" lon="4.003">
        <ele>1281</ele>
        <time>2022-06-06T11:44:20Z</time>
      </trkpt>
      <trkpt lat="44.75342" lon="4.00282">
        <ele>1282</ele>
        <time>2022-06-06T11:44:22Z</time>
      </trkpt>
      <trkpt lat="44.75338" lon="4.00272">
        <ele>1282</ele>
        <time>2022-06-06T11:44:24Z</time>
      </trkpt>
      <trkpt lat="44.75318" lon="4.00236">
        <ele>1283</ele>
        <time>2022-06-06T11:44:30Z</time>
      </trkpt>
      <trkpt lat="44.75288" lon="4.00167">
        <ele>1284</ele>
        <time>2022-06-06T11:44:40Z</time>
      </trkpt>
      <trkpt lat="44.75282" lon="4.00157">
        <ele>1284</ele>
        <time>2022-06-06T11:44:42Z</time>
      </trkpt>
      <trkpt lat="44.75275" lon="4.00151">
        <ele>1284</ele>
        <time>2022-06-06T11:44:43Z</time>
      </trkpt>
      <trkpt lat="44.75264" lon="4.00144">
        <ele>1284</ele>
        <time>2022-06-06T11:44:45Z</time>
      </trkpt>
      <trkpt lat="44.75244" lon="4.00139">
        <ele>1283</ele>
        <time>2022-06-06T11:44:49Z</time>
      </trkpt>
      <trkpt lat="44.752" lon="4.00119">
        <ele>1281</ele>
        <time>2022-06-06T11:44:57Z</time>
      </trkpt>
      <trkpt lat="44.75107" lon="4.001">
        <ele>1278</ele>
        <time>2022-06-06T11:45:14Z</time>
      </trkpt>
      <trkpt lat="44.7509" lon="4.00094">
        <ele>1277</ele>
        <time>2022-06-06T11:45:17Z</time>
      </trkpt>
      <trkpt lat="44.75065" lon="4.00076">
        <ele>1278</ele>
        <time>2022-06-06T11:45:22Z</time>
      </trkpt>
      <trkpt lat="44.75054" lon="4.00065">
        <ele>1278</ele>
        <time>2022-06-06T11:45:24Z</time>
      </trkpt>
      <trkpt lat="44.75021" lon="4.00038">
        <ele>1280</ele>
        <time>2022-06-06T11:45:31Z</time>
      </trkpt>
      <trkpt lat="44.75011" lon="4.00025">
        <ele>1281</ele>
        <time>2022-06-06T11:45:33Z</time>
      </trkpt>
      <trkpt lat="44.75003" lon="4.00005">
        <ele>1283</ele>
        <time>2022-06-06T11:45:36Z</time>
      </trkpt>
      <trkpt lat="44.74999" lon="3.99986">
        <ele>1284</ele>
        <time>2022-06-06T11:45:39Z</time>
      </trkpt>
      <trkpt lat="44.75" lon="3.99958">
        <ele>1285</ele>
        <time>2022-06-06T11:45:42Z</time>
      </trkpt>
      <trkpt lat="44.75005" lon="3.99937">
        <ele>1286</ele>
        <time>2022-06-06T11:45:45Z</time>
      </trkpt>
      <trkpt lat="44.75006" lon="3.99921">
        <ele>1286</ele>
        <time>2022-06-06T11:45:47Z</time>
      </trkpt>
      <trkpt lat="44.75005" lon="3.99909">
        <ele>1287</ele>
        <time>2022-06-06T11:45:49Z</time>
      </trkpt>
      <trkpt lat="44.75001" lon="3.99896">
        <ele>1287</ele>
        <time>2022-06-06T11:45:51Z</time>
      </trkpt>
      <trkpt lat="44.74995" lon="3.99884">
        <ele>1287</ele>
        <time>2022-06-06T11:45:52Z</time>
      </trkpt>
      <trkpt lat="44.74982" lon="3.99865">
        <ele>1286</ele>
        <time>2022-06-06T11:45:56Z</time>
      </trkpt>
      <trkpt lat="44.74954" lon="3.9983">
        <ele>1285</ele>
        <time>2022-06-06T11:46:02Z</time>
      </trkpt>
      <trkpt lat="44.74928" lon="3.99807">
        <ele>1284</ele>
        <time>2022-06-06T11:46:08Z</time>
      </trkpt>
      <trkpt lat="44.74873" lon="3.99769">
        <ele>1282</ele>
        <time>2022-06-06T11:46:19Z</time>
      </trkpt>
      <trkpt lat="44.74857" lon="3.99754">
        <ele>1281</ele>
        <time>2022-06-06T11:46:22Z</time>
      </trkpt>
      <trkpt lat="44.74843" lon="3.99741">
        <ele>1280</ele>
        <time>2022-06-06T11:46:25Z</time>
      </trkpt>
      <trkpt lat="44.74828" lon="3.99719">
        <ele>1279</ele>
        <time>2022-06-06T11:46:29Z</time>
      </trkpt>
      <trkpt lat="44.74821" lon="3.99698">
        <ele>1277</ele>
        <time>2022-06-06T11:46:32Z</time>
      </trkpt>
      <trkpt lat="44.74815" lon="3.9967">
        <ele>1275</ele>
        <time>2022-06-06T11:46:36Z</time>
      </trkpt>
      <trkpt lat="44.74811" lon="3.99631">
        <ele>1274</ele>
        <time>2022-06-06T11:46:41Z</time>
      </trkpt>
      <trkpt lat="44.74808" lon="3.99596">
        <ele>1273</ele>
        <time>2022-06-06T11:46:45Z</time>
      </trkpt>
      <trkpt lat="44.74805" lon="3.99513">
        <ele>1270</ele>
        <time>2022-06-06T11:46:56Z</time>
      </trkpt>
      <trkpt lat="44.74805" lon="3.99504">
        <ele>1270</ele>
        <time>2022-06-06T11:46:57Z</time>
      </trkpt>
      <trkpt lat="44.74805" lon="3.99479">
        <ele>1269</ele>
        <time>2022-06-06T11:47:00Z</time>
      </trkpt>
      <trkpt lat="44.748" lon="3.99453">
        <ele>1269</ele>
        <time>2022-06-06T11:47:03Z</time>
      </trkpt>
      <trkpt lat="44.74783" lon="3.99405">
        <ele>1266</ele>
        <time>2022-06-06T11:47:10Z</time>
      </trkpt>
      <trkpt lat="44.74766" lon="3.99363">
        <ele>1265</ele>
        <time>2022-06-06T11:47:16Z</time>
      </trkpt>
      <trkpt lat="44.7475" lon="3.99337">
        <ele>1264</ele>
        <time>2022-06-06T11:47:21Z</time>
      </trkpt>
      <trkpt lat="44.74732" lon="3.99327">
        <ele>1262</ele>
        <time>2022-06-06T11:47:24Z</time>
      </trkpt>
      <trkpt lat="44.74671" lon="3.99308">
        <ele>1256</ele>
        <time>2022-06-06T11:47:35Z</time>
      </trkpt>
      <trkpt lat="44.7464" lon="3.99301">
        <ele>1254</ele>
        <time>2022-06-06T11:47:41Z</time>
      </trkpt>
      <trkpt lat="44.74631" lon="3.99294">
        <ele>1253</ele>
        <time>2022-06-06T11:47:43Z</time>
      </trkpt>
      <trkpt lat="44.74649" lon="3.99252">
        <ele>1253</ele>
        <time>2022-06-06T11:47:49Z</time>
      </trkpt>
      <trkpt lat="44.75211" lon="3.98548">
        <ele>1256</ele>
        <time>2022-06-06T11:50:03Z</time>
      </trkpt>
      <trkpt lat="44.75236" lon="3.98491">
        <ele>1256</ele>
        <time>2022-06-06T11:50:11Z</time>
      </trkpt>
      <trkpt lat="44.75327" lon="3.97794">
        <ele>1261</ele>
        <time>2022-06-06T11:51:41Z</time>
      </trkpt>
      <trkpt lat="44.75335" lon="3.97748">
        <ele>1262</ele>
        <time>2022-06-06T11:51:47Z</time>
      </trkpt>
      <trkpt lat="44.75348" lon="3.97718">
        <ele>1262</ele>
        <time>2022-06-06T11:51:51Z</time>
      </trkpt>
      <trkpt lat="44.75461" lon="3.97546">
        <ele>1264</ele>
        <time>2022-06-06T11:52:21Z</time>
      </trkpt>
      <trkpt lat="44.75506" lon="3.97474">
        <ele>1265</ele>
        <time>2022-06-06T11:52:33Z</time>
      </trkpt>
      <trkpt lat="44.75517" lon="3.97451">
        <ele>1265</ele>
        <time>2022-06-06T11:52:36Z</time>
      </trkpt>
      <trkpt lat="44.75525" lon="3.97422">
        <ele>1265</ele>
        <time>2022-06-06T11:52:40Z</time>
      </trkpt>
      <trkpt lat="44.75529" lon="3.9739">
        <ele>1265</ele>
        <time>2022-06-06T11:52:44Z</time>
      </trkpt>
      <trkpt lat="44.7554" lon="3.97179">
        <ele>1261</ele>
        <time>2022-06-06T11:53:11Z</time>
      </trkpt>
      <trkpt lat="44.75577" lon="3.9637">
        <ele>1276</ele>
        <time>2022-06-06T11:54:53Z</time>
      </trkpt>
      <trkpt lat="44.75574" lon="3.96314">
        <ele>1275</ele>
        <time>2022-06-06T11:55:01Z</time>
      </trkpt>
      <trkpt lat="44.75558" lon="3.96268">
        <ele>1273</ele>
        <time>2022-06-06T11:55:07Z</time>
      </trkpt>
      <trkpt lat="44.75526" lon="3.96192">
        <ele>1269</ele>
        <time>2022-06-06T11:55:18Z</time>
      </trkpt>
      <trkpt lat="44.7545" lon="3.96034">
        <ele>1264</ele>
        <time>2022-06-06T11:55:42Z</time>
      </trkpt>
      <trkpt lat="44.75433" lon="3.95994">
        <ele>1265</ele>
        <time>2022-06-06T11:55:48Z</time>
      </trkpt>
      <trkpt lat="44.7542" lon="3.95996">
        <ele>1265</ele>
        <time>2022-06-06T11:55:50Z</time>
      </trkpt>
      <trkpt lat="44.75389" lon="3.95978">
        <ele>1265</ele>
        <time>2022-06-06T11:55:56Z</time>
      </trkpt>
      <trkpt lat="44.7534" lon="3.95943">
        <ele>1267</ele>
        <time>2022-06-06T11:56:06Z</time>
      </trkpt>
      <trkpt lat="44.75314" lon="3.95937">
        <ele>1269</ele>
        <time>2022-06-06T11:56:11Z</time>
      </trkpt>
      <trkpt lat="44.75132" lon="3.95932">
        <ele>1275</ele>
        <time>2022-06-06T11:56:43Z</time>
      </trkpt>
      <trkpt lat="44.7501" lon="3.95953">
        <ele>1276</ele>
        <time>2022-06-06T11:57:05Z</time>
      </trkpt>
      <trkpt lat="44.74922" lon="3.95978">
        <ele>1272</ele>
        <time>2022-06-06T11:57:21Z</time>
      </trkpt>
      <trkpt lat="44.74871" lon="3.95981">
        <ele>1270</ele>
        <time>2022-06-06T11:57:30Z</time>
      </trkpt>
      <trkpt lat="44.74813" lon="3.95969">
        <ele>1268</ele>
        <time>2022-06-06T11:57:41Z</time>
      </trkpt>
      <trkpt lat="44.74757" lon="3.95943">
        <ele>1266</ele>
        <time>2022-06-06T11:57:51Z</time>
      </trkpt>
      <trkpt lat="44.74702" lon="3.9589">
        <ele>1267</ele>
        <time>2022-06-06T11:58:03Z</time>
      </trkpt>
      <trkpt lat="44.74642" lon="3.95822">
        <ele>1263</ele>
        <time>2022-06-06T11:58:17Z</time>
      </trkpt>
      <trkpt lat="44.74585" lon="3.95766">
        <ele>1255</ele>
        <time>2022-06-06T11:58:29Z</time>
      </trkpt>
      <trkpt lat="44.74573" lon="3.95725">
        <ele>1253</ele>
        <time>2022-06-06T11:58:35Z</time>
      </trkpt>
      <trkpt lat="44.74551" lon="3.95627">
        <ele>1253</ele>
        <time>2022-06-06T11:58:48Z</time>
      </trkpt>
      <trkpt lat="44.7451" lon="3.95569">
        <ele>1245</ele>
        <time>2022-06-06T11:58:58Z</time>
      </trkpt>
      <trkpt lat="44.74482" lon="3.95459">
        <ele>1240</ele>
        <time>2022-06-06T11:59:13Z</time>
      </trkpt>
      <trkpt lat="44.74467" lon="3.95419">
        <ele>1237</ele>
        <time>2022-06-06T11:59:18Z</time>
      </trkpt>
      <trkpt lat="44.74433" lon="3.95346">
        <ele>1231</ele>
        <time>2022-06-06T11:59:30Z</time>
      </trkpt>
      <trkpt lat="44.7442" lon="3.95266">
        <ele>1226</ele>
        <time>2022-06-06T11:59:40Z</time>
      </trkpt>
      <trkpt lat="44.74412" lon="3.95187">
        <ele>1221</ele>
        <time>2022-06-06T11:59:50Z</time>
      </trkpt>
      <trkpt lat="44.74418" lon="3.95152">
        <ele>1220</ele>
        <time>2022-06-06T11:59:55Z</time>
      </trkpt>
      <trkpt lat="44.74437" lon="3.95095">
        <ele>1219</ele>
        <time>2022-06-06T12:00:02Z</time>
      </trkpt>
      <trkpt lat="44.7444" lon="3.9505">
        <ele>1219</ele>
        <time>2022-06-06T12:00:08Z</time>
      </trkpt>
      <trkpt lat="44.74423" lon="3.94997">
        <ele>1214</ele>
        <time>2022-06-06T12:00:16Z</time>
      </trkpt>
      <trkpt lat="44.74383" lon="3.94844">
        <ele>1208</ele>
        <time>2022-06-06T12:00:36Z</time>
      </trkpt>
      <trkpt lat="44.7437" lon="3.9483">
        <ele>1206</ele>
        <time>2022-06-06T12:00:39Z</time>
      </trkpt>
      <trkpt lat="44.74355" lon="3.94828">
        <ele>1202</ele>
        <time>2022-06-06T12:00:42Z</time>
      </trkpt>
      <trkpt lat="44.74346" lon="3.94842">
        <ele>1199</ele>
        <time>2022-06-06T12:00:44Z</time>
      </trkpt>
      <trkpt lat="44.74354" lon="3.94891">
        <ele>1199</ele>
        <time>2022-06-06T12:00:50Z</time>
      </trkpt>
      <trkpt lat="44.74358" lon="3.94947">
        <ele>1198</ele>
        <time>2022-06-06T12:00:58Z</time>
      </trkpt>
      <trkpt lat="44.74351" lon="3.95028">
        <ele>1196</ele>
        <time>2022-06-06T12:01:08Z</time>
      </trkpt>
      <trkpt lat="44.74347" lon="3.95044">
        <ele>1196</ele>
        <time>2022-06-06T12:01:10Z</time>
      </trkpt>
      <trkpt lat="44.74338" lon="3.95052">
        <ele>1194</ele>
        <time>2022-06-06T12:01:12Z</time>
      </trkpt>
      <trkpt lat="44.74327" lon="3.95057">
        <ele>1191</ele>
        <time>2022-06-06T12:01:14Z</time>
      </trkpt>
      <trkpt lat="44.7432" lon="3.95063">
        <ele>1190</ele>
        <time>2022-06-06T12:01:15Z</time>
      </trkpt>
      <trkpt lat="44.74311" lon="3.95083">
        <ele>1188</ele>
        <time>2022-06-06T12:01:18Z</time>
      </trkpt>
      <trkpt lat="44.74297" lon="3.95109">
        <ele>1189</ele>
        <time>2022-06-06T12:01:23Z</time>
      </trkpt>
      <trkpt lat="44.74259" lon="3.95136">
        <ele>1184</ele>
        <time>2022-06-06T12:01:30Z</time>
      </trkpt>
      <trkpt lat="44.7421" lon="3.95147">
        <ele>1175</ele>
        <time>2022-06-06T12:01:39Z</time>
      </trkpt>
      <trkpt lat="44.74185" lon="3.95168">
        <ele>1174</ele>
        <time>2022-06-06T12:01:44Z</time>
      </trkpt>
      <trkpt lat="44.74165" lon="3.95226">
        <ele>1172</ele>
        <time>2022-06-06T12:01:52Z</time>
      </trkpt>
      <trkpt lat="44.74154" lon="3.953">
        <ele>1168</ele>
        <time>2022-06-06T12:02:02Z</time>
      </trkpt>
      <trkpt lat="44.74155" lon="3.9533">
        <ele>1166</ele>
        <time>2022-06-06T12:02:06Z</time>
      </trkpt>
      <trkpt lat="44.74197" lon="3.95501">
        <ele>1161</ele>
        <time>2022-06-06T12:02:29Z</time>
      </trkpt>
      <trkpt lat="44.74195" lon="3.95531">
        <ele>1161</ele>
        <time>2022-06-06T12:02:32Z</time>
      </trkpt>
      <trkpt lat="44.74178" lon="3.95555">
        <ele>1157</ele>
        <time>2022-06-06T12:02:37Z</time>
      </trkpt>
      <trkpt lat="44.74126" lon="3.95618">
        <ele>1148</ele>
        <time>2022-06-06T12:02:49Z</time>
      </trkpt>
      <trkpt lat="44.74114" lon="3.95641">
        <ele>1146</ele>
        <time>2022-06-06T12:02:52Z</time>
      </trkpt>
      <trkpt lat="44.74109" lon="3.95669">
        <ele>1147</ele>
        <time>2022-06-06T12:02:56Z</time>
      </trkpt>
      <trkpt lat="44.74097" lon="3.95684">
        <ele>1147</ele>
        <time>2022-06-06T12:02:59Z</time>
      </trkpt>
      <trkpt lat="44.74066" lon="3.9569">
        <ele>1142</ele>
        <time>2022-06-06T12:03:04Z</time>
      </trkpt>
      <trkpt lat="44.74038" lon="3.95676">
        <ele>1134</ele>
        <time>2022-06-06T12:03:10Z</time>
      </trkpt>
      <trkpt lat="44.74" lon="3.95691">
        <ele>1129</ele>
        <time>2022-06-06T12:03:17Z</time>
      </trkpt>
      <trkpt lat="44.73935" lon="3.95746">
        <ele>1122</ele>
        <time>2022-06-06T12:03:30Z</time>
      </trkpt>
      <trkpt lat="44.73926" lon="3.95786">
        <ele>1123</ele>
        <time>2022-06-06T12:03:36Z</time>
      </trkpt>
      <trkpt lat="44.73917" lon="3.95843">
        <ele>1124</ele>
        <time>2022-06-06T12:03:43Z</time>
      </trkpt>
      <trkpt lat="44.73896" lon="3.95878">
        <ele>1120</ele>
        <time>2022-06-06T12:03:49Z</time>
      </trkpt>
      <trkpt lat="44.73862" lon="3.96041">
        <ele>1122</ele>
        <time>2022-06-06T12:04:10Z</time>
      </trkpt>
      <trkpt lat="44.73843" lon="3.96107">
        <ele>1117</ele>
        <time>2022-06-06T12:04:19Z</time>
      </trkpt>
      <trkpt lat="44.73839" lon="3.96113">
        <ele>1115</ele>
        <time>2022-06-06T12:04:20Z</time>
      </trkpt>
      <trkpt lat="44.73832" lon="3.96111">
        <ele>1112</ele>
        <time>2022-06-06T12:04:22Z</time>
      </trkpt>
      <trkpt lat="44.73832" lon="3.961">
        <ele>1112</ele>
        <time>2022-06-06T12:04:23Z</time>
      </trkpt>
      <trkpt lat="44.73837" lon="3.96074">
        <ele>1113</ele>
        <time>2022-06-06T12:04:26Z</time>
      </trkpt>
      <trkpt lat="44.73844" lon="3.9605">
        <ele>1115</ele>
        <time>2022-06-06T12:04:30Z</time>
      </trkpt>
      <trkpt lat="44.73865" lon="3.95911">
        <ele>1112</ele>
        <time>2022-06-06T12:04:48Z</time>
      </trkpt>
      <trkpt lat="44.7388" lon="3.95854">
        <ele>1113</ele>
        <time>2022-06-06T12:04:55Z</time>
      </trkpt>
      <trkpt lat="44.73876" lon="3.9583">
        <ele>1111</ele>
        <time>2022-06-06T12:04:58Z</time>
      </trkpt>
      <trkpt lat="44.73871" lon="3.95825">
        <ele>1109</ele>
        <time>2022-06-06T12:04:59Z</time>
      </trkpt>
      <trkpt lat="44.73863" lon="3.95824">
        <ele>1107</ele>
        <time>2022-06-06T12:05:01Z</time>
      </trkpt>
      <trkpt lat="44.7386" lon="3.95759">
        <ele>1105</ele>
        <time>2022-06-06T12:05:09Z</time>
      </trkpt>
      <trkpt lat="44.73872" lon="3.95703">
        <ele>1104</ele>
        <time>2022-06-06T12:05:17Z</time>
      </trkpt>
      <trkpt lat="44.73895" lon="3.95652">
        <ele>1104</ele>
        <time>2022-06-06T12:05:24Z</time>
      </trkpt>
      <trkpt lat="44.73927" lon="3.95594">
        <ele>1102</ele>
        <time>2022-06-06T12:05:33Z</time>
      </trkpt>
      <trkpt lat="44.73948" lon="3.95534">
        <ele>1103</ele>
        <time>2022-06-06T12:05:42Z</time>
      </trkpt>
      <trkpt lat="44.73961" lon="3.95486">
        <ele>1104</ele>
        <time>2022-06-06T12:05:48Z</time>
      </trkpt>
      <trkpt lat="44.73958" lon="3.95432">
        <ele>1107</ele>
        <time>2022-06-06T12:05:55Z</time>
      </trkpt>
      <trkpt lat="44.73957" lon="3.95424">
        <ele>1107</ele>
        <time>2022-06-06T12:05:56Z</time>
      </trkpt>
      <trkpt lat="44.73949" lon="3.95342">
        <ele>1110</ele>
        <time>2022-06-06T12:06:07Z</time>
      </trkpt>
      <trkpt lat="44.73916" lon="3.95269">
        <ele>1102</ele>
        <time>2022-06-06T12:06:18Z</time>
      </trkpt>
      <trkpt lat="44.73902" lon="3.95109">
        <ele>1100</ele>
        <time>2022-06-06T12:06:38Z</time>
      </trkpt>
      <trkpt lat="44.73904" lon="3.95071">
        <ele>1098</ele>
        <time>2022-06-06T12:06:43Z</time>
      </trkpt>
      <trkpt lat="44.73912" lon="3.95044">
        <ele>1096</ele>
        <time>2022-06-06T12:06:47Z</time>
      </trkpt>
      <trkpt lat="44.73927" lon="3.95002">
        <ele>1095</ele>
        <time>2022-06-06T12:06:52Z</time>
      </trkpt>
      <trkpt lat="44.73935" lon="3.94889">
        <ele>1098</ele>
        <time>2022-06-06T12:07:07Z</time>
      </trkpt>
      <trkpt lat="44.73938" lon="3.94831">
        <ele>1102</ele>
        <time>2022-06-06T12:07:14Z</time>
      </trkpt>
      <trkpt lat="44.73934" lon="3.94802">
        <ele>1104</ele>
        <time>2022-06-06T12:07:18Z</time>
      </trkpt>
      <trkpt lat="44.73921" lon="3.94785">
        <ele>1101</ele>
        <time>2022-06-06T12:07:21Z</time>
      </trkpt>
      <trkpt lat="44.73886" lon="3.94754">
        <ele>1102</ele>
        <time>2022-06-06T12:07:28Z</time>
      </trkpt>
      <trkpt lat="44.73868" lon="3.94728">
        <ele>1102</ele>
        <time>2022-06-06T12:07:33Z</time>
      </trkpt>
      <trkpt lat="44.73861" lon="3.94693">
        <ele>1101</ele>
        <time>2022-06-06T12:07:38Z</time>
      </trkpt>
      <trkpt lat="44.73861" lon="3.94654">
        <ele>1100</ele>
        <time>2022-06-06T12:07:43Z</time>
      </trkpt>
      <trkpt lat="44.73888" lon="3.94525">
        <ele>1101</ele>
        <time>2022-06-06T12:08:00Z</time>
      </trkpt>
      <trkpt lat="44.73904" lon="3.94459">
        <ele>1098</ele>
        <time>2022-06-06T12:08:08Z</time>
      </trkpt>
      <trkpt lat="44.73907" lon="3.9442">
        <ele>1095</ele>
        <time>2022-06-06T12:08:13Z</time>
      </trkpt>
      <trkpt lat="44.739" lon="3.94375">
        <ele>1094</ele>
        <time>2022-06-06T12:08:19Z</time>
      </trkpt>
      <trkpt lat="44.73899" lon="3.94334">
        <ele>1094</ele>
        <time>2022-06-06T12:08:24Z</time>
      </trkpt>
      <trkpt lat="44.73904" lon="3.9429">
        <ele>1090</ele>
        <time>2022-06-06T12:08:30Z</time>
      </trkpt>
      <trkpt lat="44.73927" lon="3.94231">
        <ele>1087</ele>
        <time>2022-06-06T12:08:38Z</time>
      </trkpt>
      <trkpt lat="44.73954" lon="3.9417">
        <ele>1094</ele>
        <time>2022-06-06T12:08:48Z</time>
      </trkpt>
      <trkpt lat="44.73963" lon="3.94135">
        <ele>1094</ele>
        <time>2022-06-06T12:08:52Z</time>
      </trkpt>
      <trkpt lat="44.73962" lon="3.93754">
        <ele>1080</ele>
        <time>2022-06-06T12:09:40Z</time>
      </trkpt>
      <trkpt lat="44.73977" lon="3.93705">
        <ele>1077</ele>
        <time>2022-06-06T12:09:47Z</time>
      </trkpt>
      <trkpt lat="44.74019" lon="3.93629">
        <ele>1074</ele>
        <time>2022-06-06T12:09:59Z</time>
      </trkpt>
      <trkpt lat="44.74072" lon="3.93552">
        <ele>1073</ele>
        <time>2022-06-06T12:10:13Z</time>
      </trkpt>
      <trkpt lat="44.74111" lon="3.93526">
        <ele>1075</ele>
        <time>2022-06-06T12:10:21Z</time>
      </trkpt>
      <trkpt lat="44.74124" lon="3.93508">
        <ele>1076</ele>
        <time>2022-06-06T12:10:24Z</time>
      </trkpt>
      <trkpt lat="44.74133" lon="3.93489">
        <ele>1078</ele>
        <time>2022-06-06T12:10:27Z</time>
      </trkpt>
      <trkpt lat="44.74141" lon="3.93456">
        <ele>1081</ele>
        <time>2022-06-06T12:10:31Z</time>
      </trkpt>
      <trkpt lat="44.74139" lon="3.93431">
        <ele>1082</ele>
        <time>2022-06-06T12:10:34Z</time>
      </trkpt>
      <trkpt lat="44.74135" lon="3.93418">
        <ele>1082</ele>
        <time>2022-06-06T12:10:36Z</time>
      </trkpt>
      <trkpt lat="44.74101" lon="3.93384">
        <ele>1075</ele>
        <time>2022-06-06T12:10:43Z</time>
      </trkpt>
      <trkpt lat="44.74086" lon="3.93358">
        <ele>1072</ele>
        <time>2022-06-06T12:10:48Z</time>
      </trkpt>
      <trkpt lat="44.74074" lon="3.93322">
        <ele>1076</ele>
        <time>2022-06-06T12:10:53Z</time>
      </trkpt>
      <trkpt lat="44.74043" lon="3.93144">
        <ele>1079</ele>
        <time>2022-06-06T12:11:16Z</time>
      </trkpt>
      <trkpt lat="44.74038" lon="3.93095">
        <ele>1076</ele>
        <time>2022-06-06T12:11:22Z</time>
      </trkpt>
      <trkpt lat="44.74041" lon="3.93026">
        <ele>1075</ele>
        <time>2022-06-06T12:11:31Z</time>
      </trkpt>
      <trkpt lat="44.74062" lon="3.92952">
        <ele>1074</ele>
        <time>2022-06-06T12:11:41Z</time>
      </trkpt>
      <trkpt lat="44.7408" lon="3.92915">
        <ele>1072</ele>
        <time>2022-06-06T12:11:47Z</time>
      </trkpt>
      <trkpt lat="44.74107" lon="3.9287">
        <ele>1076</ele>
        <time>2022-06-06T12:11:54Z</time>
      </trkpt>
      <trkpt lat="44.74116" lon="3.92845">
        <ele>1076</ele>
        <time>2022-06-06T12:11:58Z</time>
      </trkpt>
      <trkpt lat="44.74123" lon="3.92815">
        <ele>1077</ele>
        <time>2022-06-06T12:12:02Z</time>
      </trkpt>
      <trkpt lat="44.74126" lon="3.92711">
        <ele>1082</ele>
        <time>2022-06-06T12:12:15Z</time>
      </trkpt>
      <trkpt lat="44.74104" lon="3.92669">
        <ele>1077</ele>
        <time>2022-06-06T12:12:21Z</time>
      </trkpt>
      <trkpt lat="44.74048" lon="3.92648">
        <ele>1066</ele>
        <time>2022-06-06T12:12:32Z</time>
      </trkpt>
      <trkpt lat="44.74028" lon="3.92634">
        <ele>1064</ele>
        <time>2022-06-06T12:12:36Z</time>
      </trkpt>
      <trkpt lat="44.74022" lon="3.9263">
        <ele>1063</ele>
        <time>2022-06-06T12:12:37Z</time>
      </trkpt>
      <trkpt lat="44.7402" lon="3.92626">
        <ele>1063</ele>
        <time>2022-06-06T12:12:37Z</time>
      </trkpt>
      <trkpt lat="44.74008" lon="3.926">
        <ele>1061</ele>
        <time>2022-06-06T12:12:41Z</time>
      </trkpt>
      <trkpt lat="44.74002" lon="3.92565">
        <ele>1060</ele>
        <time>2022-06-06T12:12:46Z</time>
      </trkpt>
      <trkpt lat="44.73996" lon="3.92433">
        <ele>1064</ele>
        <time>2022-06-06T12:13:03Z</time>
      </trkpt>
      <trkpt lat="44.73988" lon="3.92322">
        <ele>1068</ele>
        <time>2022-06-06T12:13:17Z</time>
      </trkpt>
      <trkpt lat="44.73935" lon="3.92086">
        <ele>1057</ele>
        <time>2022-06-06T12:13:48Z</time>
      </trkpt>
      <trkpt lat="44.7392" lon="3.92033">
        <ele>1055</ele>
        <time>2022-06-06T12:13:55Z</time>
      </trkpt>
      <trkpt lat="44.73896" lon="3.9199">
        <ele>1057</ele>
        <time>2022-06-06T12:14:02Z</time>
      </trkpt>
      <trkpt lat="44.73893" lon="3.91965">
        <ele>1057</ele>
        <time>2022-06-06T12:14:05Z</time>
      </trkpt>
      <trkpt lat="44.73897" lon="3.91938">
        <ele>1055</ele>
        <time>2022-06-06T12:14:09Z</time>
      </trkpt>
      <trkpt lat="44.73911" lon="3.9191">
        <ele>1052</ele>
        <time>2022-06-06T12:14:13Z</time>
      </trkpt>
      <trkpt lat="44.73926" lon="3.91898">
        <ele>1051</ele>
        <time>2022-06-06T12:14:16Z</time>
      </trkpt>
      <trkpt lat="44.73974" lon="3.91882">
        <ele>1057</ele>
        <time>2022-06-06T12:14:25Z</time>
      </trkpt>
      <trkpt lat="44.73985" lon="3.91868">
        <ele>1058</ele>
        <time>2022-06-06T12:14:28Z</time>
      </trkpt>
      <trkpt lat="44.73988" lon="3.91826">
        <ele>1056</ele>
        <time>2022-06-06T12:14:33Z</time>
      </trkpt>
      <trkpt lat="44.73986" lon="3.91795">
        <ele>1059</ele>
        <time>2022-06-06T12:14:37Z</time>
      </trkpt>
      <trkpt lat="44.73973" lon="3.91755">
        <ele>1060</ele>
        <time>2022-06-06T12:14:42Z</time>
      </trkpt>
      <trkpt lat="44.73943" lon="3.91687">
        <ele>1063</ele>
        <time>2022-06-06T12:14:53Z</time>
      </trkpt>
      <trkpt lat="44.73913" lon="3.91657">
        <ele>1056</ele>
        <time>2022-06-06T12:14:59Z</time>
      </trkpt>
      <trkpt lat="44.73892" lon="3.91633">
        <ele>1056</ele>
        <time>2022-06-06T12:15:04Z</time>
      </trkpt>
      <trkpt lat="44.73879" lon="3.91613">
        <ele>1057</ele>
        <time>2022-06-06T12:15:07Z</time>
      </trkpt>
      <trkpt lat="44.73872" lon="3.91576">
        <ele>1062</ele>
        <time>2022-06-06T12:15:12Z</time>
      </trkpt>
      <trkpt lat="44.73861" lon="3.91565">
        <ele>1061</ele>
        <time>2022-06-06T12:15:15Z</time>
      </trkpt>
      <trkpt lat="44.73847" lon="3.91554">
        <ele>1060</ele>
        <time>2022-06-06T12:15:17Z</time>
      </trkpt>
      <trkpt lat="44.73821" lon="3.91546">
        <ele>1056</ele>
        <time>2022-06-06T12:15:22Z</time>
      </trkpt>
      <trkpt lat="44.73756" lon="3.91487">
        <ele>1053</ele>
        <time>2022-06-06T12:15:36Z</time>
      </trkpt>
      <trkpt lat="44.73733" lon="3.91464">
        <ele>1051</ele>
        <time>2022-06-06T12:15:41Z</time>
      </trkpt>
      <trkpt lat="44.7372" lon="3.91438">
        <ele>1052</ele>
        <time>2022-06-06T12:15:45Z</time>
      </trkpt>
      <trkpt lat="44.73719" lon="3.91412">
        <ele>1055</ele>
        <time>2022-06-06T12:15:48Z</time>
      </trkpt>
      <trkpt lat="44.7372" lon="3.91352">
        <ele>1059</ele>
        <time>2022-06-06T12:15:56Z</time>
      </trkpt>
      <trkpt lat="44.73712" lon="3.91319">
        <ele>1060</ele>
        <time>2022-06-06T12:16:00Z</time>
      </trkpt>
      <trkpt lat="44.73641" lon="3.91193">
        <ele>1052</ele>
        <time>2022-06-06T12:16:21Z</time>
      </trkpt>
      <trkpt lat="44.73636" lon="3.91156">
        <ele>1053</ele>
        <time>2022-06-06T12:16:25Z</time>
      </trkpt>
      <trkpt lat="44.73637" lon="3.91119">
        <ele>1054</ele>
        <time>2022-06-06T12:16:30Z</time>
      </trkpt>
      <trkpt lat="44.73665" lon="3.91022">
        <ele>1062</ele>
        <time>2022-06-06T12:16:43Z</time>
      </trkpt>
      <trkpt lat="44.73661" lon="3.90997">
        <ele>1062</ele>
        <time>2022-06-06T12:16:47Z</time>
      </trkpt>
      <trkpt lat="44.73652" lon="3.90977">
        <ele>1066</ele>
        <time>2022-06-06T12:16:50Z</time>
      </trkpt>
      <trkpt lat="44.73636" lon="3.90971">
        <ele>1067</ele>
        <time>2022-06-06T12:16:52Z</time>
      </trkpt>
      <trkpt lat="44.73624" lon="3.90973">
        <ele>1066</ele>
        <time>2022-06-06T12:16:55Z</time>
      </trkpt>
      <trkpt lat="44.73602" lon="3.91005">
        <ele>1059</ele>
        <time>2022-06-06T12:17:00Z</time>
      </trkpt>
      <trkpt lat="44.73583" lon="3.9102">
        <ele>1054</ele>
        <time>2022-06-06T12:17:04Z</time>
      </trkpt>
      <trkpt lat="44.7356" lon="3.91021">
        <ele>1051</ele>
        <time>2022-06-06T12:17:08Z</time>
      </trkpt>
      <trkpt lat="44.73488" lon="3.90976">
        <ele>1051</ele>
        <time>2022-06-06T12:17:22Z</time>
      </trkpt>
      <trkpt lat="44.73473" lon="3.90958">
        <ele>1052</ele>
        <time>2022-06-06T12:17:26Z</time>
      </trkpt>
      <trkpt lat="44.73468" lon="3.90944">
        <ele>1053</ele>
        <time>2022-06-06T12:17:28Z</time>
      </trkpt>
      <trkpt lat="44.73466" lon="3.90926">
        <ele>1056</ele>
        <time>2022-06-06T12:17:30Z</time>
      </trkpt>
      <trkpt lat="44.73467" lon="3.90919">
        <ele>1057</ele>
        <time>2022-06-06T12:17:31Z</time>
      </trkpt>
      <trkpt lat="44.73468" lon="3.90882">
        <ele>1061</ele>
        <time>2022-06-06T12:17:36Z</time>
      </trkpt>
      <trkpt lat="44.73465" lon="3.90854">
        <ele>1062</ele>
        <time>2022-06-06T12:17:39Z</time>
      </trkpt>
      <trkpt lat="44.7346" lon="3.90842">
        <ele>1063</ele>
        <time>2022-06-06T12:17:41Z</time>
      </trkpt>
      <trkpt lat="44.73368" lon="3.90731">
        <ele>1057</ele>
        <time>2022-06-06T12:18:03Z</time>
      </trkpt>
      <trkpt lat="44.73353" lon="3.90697">
        <ele>1056</ele>
        <time>2022-06-06T12:18:08Z</time>
      </trkpt>
      <trkpt lat="44.73345" lon="3.90669">
        <ele>1058</ele>
        <time>2022-06-06T12:18:11Z</time>
      </trkpt>
      <trkpt lat="44.7333" lon="3.90562">
        <ele>1062</ele>
        <time>2022-06-06T12:18:25Z</time>
      </trkpt>
      <trkpt lat="44.73325" lon="3.90536">
        <ele>1062</ele>
        <time>2022-06-06T12:18:29Z</time>
      </trkpt>
      <trkpt lat="44.73309" lon="3.90476">
        <ele>1060</ele>
        <time>2022-06-06T12:18:37Z</time>
      </trkpt>
      <trkpt lat="44.73305" lon="3.90452">
        <ele>1059</ele>
        <time>2022-06-06T12:18:40Z</time>
      </trkpt>
      <trkpt lat="44.73304" lon="3.90435">
        <ele>1059</ele>
        <time>2022-06-06T12:18:42Z</time>
      </trkpt>
      <trkpt lat="44.73307" lon="3.90418">
        <ele>1060</ele>
        <time>2022-06-06T12:18:44Z</time>
      </trkpt>
      <trkpt lat="44.73314" lon="3.90391">
        <ele>1061</ele>
        <time>2022-06-06T12:18:48Z</time>
      </trkpt>
      <trkpt lat="44.73392" lon="3.90144">
        <ele>1067</ele>
        <time>2022-06-06T12:19:22Z</time>
      </trkpt>
      <trkpt lat="44.73422" lon="3.90046">
        <ele>1071</ele>
        <time>2022-06-06T12:19:35Z</time>
      </trkpt>
      <trkpt lat="44.73433" lon="3.90011">
        <ele>1071</ele>
        <time>2022-06-06T12:19:40Z</time>
      </trkpt>
      <trkpt lat="44.73444" lon="3.89979">
        <ele>1072</ele>
        <time>2022-06-06T12:19:45Z</time>
      </trkpt>
      <trkpt lat="44.73441" lon="3.89947">
        <ele>1073</ele>
        <time>2022-06-06T12:19:49Z</time>
      </trkpt>
      <trkpt lat="44.73427" lon="3.89911">
        <ele>1074</ele>
        <time>2022-06-06T12:19:54Z</time>
      </trkpt>
      <trkpt lat="44.73411" lon="3.89896">
        <ele>1074</ele>
        <time>2022-06-06T12:19:57Z</time>
      </trkpt>
      <trkpt lat="44.73385" lon="3.89887">
        <ele>1075</ele>
        <time>2022-06-06T12:20:02Z</time>
      </trkpt>
      <trkpt lat="44.73329" lon="3.89889">
        <ele>1075</ele>
        <time>2022-06-06T12:20:12Z</time>
      </trkpt>
      <trkpt lat="44.73291" lon="3.89893">
        <ele>1075</ele>
        <time>2022-06-06T12:20:19Z</time>
      </trkpt>
      <trkpt lat="44.73268" lon="3.89888">
        <ele>1075</ele>
        <time>2022-06-06T12:20:23Z</time>
      </trkpt>
      <trkpt lat="44.73254" lon="3.89874">
        <ele>1076</ele>
        <time>2022-06-06T12:20:26Z</time>
      </trkpt>
      <trkpt lat="44.73246" lon="3.89851">
        <ele>1077</ele>
        <time>2022-06-06T12:20:29Z</time>
      </trkpt>
      <trkpt lat="44.73245" lon="3.89821">
        <ele>1078</ele>
        <time>2022-06-06T12:20:33Z</time>
      </trkpt>
      <trkpt lat="44.73253" lon="3.89784">
        <ele>1078</ele>
        <time>2022-06-06T12:20:38Z</time>
      </trkpt>
      <trkpt lat="44.73131" lon="3.89782">
        <ele>1083</ele>
        <time>2022-06-06T12:21:00Z</time>
      </trkpt>
      <trkpt lat="44.73099" lon="3.89782">
        <ele>1085</ele>
        <time>2022-06-06T12:21:05Z</time>
      </trkpt>
      <trkpt lat="44.73038" lon="3.89785">
        <ele>1087</ele>
        <time>2022-06-06T12:21:16Z</time>
      </trkpt>
      <trkpt lat="44.73029" lon="3.89782">
        <ele>1087</ele>
        <time>2022-06-06T12:21:18Z</time>
      </trkpt>
      <trkpt lat="44.73018" lon="3.89775">
        <ele>1087</ele>
        <time>2022-06-06T12:21:20Z</time>
      </trkpt>
      <trkpt lat="44.72984" lon="3.89773">
        <ele>1087</ele>
        <time>2022-06-06T12:21:26Z</time>
      </trkpt>
      <trkpt lat="44.72944" lon="3.89794">
        <ele>1087</ele>
        <time>2022-06-06T12:21:34Z</time>
      </trkpt>
      <trkpt lat="44.72923" lon="3.89809">
        <ele>1087</ele>
        <time>2022-06-06T12:21:38Z</time>
      </trkpt>
      <trkpt lat="44.72918" lon="3.89812">
        <ele>1087</ele>
        <time>2022-06-06T12:21:39Z</time>
      </trkpt>
      <trkpt lat="44.72859" lon="3.8985">
        <ele>1087</ele>
        <time>2022-06-06T12:21:50Z</time>
      </trkpt>
      <trkpt lat="44.72792" lon="3.89909">
        <ele>1088</ele>
        <time>2022-06-06T12:22:05Z</time>
      </trkpt>
      <trkpt lat="44.72785" lon="3.89915">
        <ele>1088</ele>
        <time>2022-06-06T12:22:06Z</time>
      </trkpt>
      <trkpt lat="44.72765" lon="3.89918">
        <ele>1088</ele>
        <time>2022-06-06T12:22:10Z</time>
      </trkpt>
      <trkpt lat="44.72742" lon="3.89917">
        <ele>1089</ele>
        <time>2022-06-06T12:22:14Z</time>
      </trkpt>
      <trkpt lat="44.72695" lon="3.89936">
        <ele>1088</ele>
        <time>2022-06-06T12:22:22Z</time>
      </trkpt>
      <trkpt lat="44.72581" lon="3.90016">
        <ele>1082</ele>
        <time>2022-06-06T12:22:45Z</time>
      </trkpt>
      <trkpt lat="44.72495" lon="3.90029">
        <ele>1079</ele>
        <time>2022-06-06T12:23:00Z</time>
      </trkpt>
      <trkpt lat="44.72393" lon="3.90022">
        <ele>1075</ele>
        <time>2022-06-06T12:23:19Z</time>
      </trkpt>
      <trkpt lat="44.72291" lon="3.90011">
        <ele>1071</ele>
        <time>2022-06-06T12:23:37Z</time>
      </trkpt>
      <trkpt lat="44.72175" lon="3.89974">
        <ele>1070</ele>
        <time>2022-06-06T12:23:58Z</time>
      </trkpt>
      <trkpt lat="44.72067" lon="3.89952">
        <ele>1070</ele>
        <time>2022-06-06T12:24:17Z</time>
      </trkpt>
      <trkpt lat="44.71872" lon="3.89896">
        <ele>1063</ele>
        <time>2022-06-06T12:24:53Z</time>
      </trkpt>
      <trkpt lat="44.71836" lon="3.89872">
        <ele>1063</ele>
        <time>2022-06-06T12:25:00Z</time>
      </trkpt>
      <trkpt lat="44.7177" lon="3.89829">
        <ele>1060</ele>
        <time>2022-06-06T12:25:13Z</time>
      </trkpt>
      <trkpt lat="44.71671" lon="3.8979">
        <ele>1056</ele>
        <time>2022-06-06T12:25:31Z</time>
      </trkpt>
      <trkpt lat="44.716" lon="3.89753">
        <ele>1049</ele>
        <time>2022-06-06T12:25:45Z</time>
      </trkpt>
      <trkpt lat="44.71587" lon="3.89741">
        <ele>1048</ele>
        <time>2022-06-06T12:25:47Z</time>
      </trkpt>
      <trkpt lat="44.71577" lon="3.89726">
        <ele>1046</ele>
        <time>2022-06-06T12:25:50Z</time>
      </trkpt>
      <trkpt lat="44.71553" lon="3.89661">
        <ele>1046</ele>
        <time>2022-06-06T12:25:59Z</time>
      </trkpt>
      <trkpt lat="44.71544" lon="3.8964">
        <ele>1047</ele>
        <time>2022-06-06T12:26:02Z</time>
      </trkpt>
      <trkpt lat="44.71536" lon="3.89631">
        <ele>1046</ele>
        <time>2022-06-06T12:26:04Z</time>
      </trkpt>
      <trkpt lat="44.71526" lon="3.89622">
        <ele>1045</ele>
        <time>2022-06-06T12:26:06Z</time>
      </trkpt>
      <trkpt lat="44.71479" lon="3.89605">
        <ele>1040</ele>
        <time>2022-06-06T12:26:15Z</time>
      </trkpt>
      <trkpt lat="44.71417" lon="3.89587">
        <ele>1035</ele>
        <time>2022-06-06T12:26:26Z</time>
      </trkpt>
      <trkpt lat="44.71348" lon="3.89576">
        <ele>1035</ele>
        <time>2022-06-06T12:26:39Z</time>
      </trkpt>
      <trkpt lat="44.71304" lon="3.89574">
        <ele>1034</ele>
        <time>2022-06-06T12:26:46Z</time>
      </trkpt>
      <trkpt lat="44.71279" lon="3.89567">
        <ele>1033</ele>
        <time>2022-06-06T12:26:51Z</time>
      </trkpt>
      <trkpt lat="44.7124" lon="3.89549">
        <ele>1032</ele>
        <time>2022-06-06T12:26:58Z</time>
      </trkpt>
      <trkpt lat="44.71206" lon="3.89524">
        <ele>1031</ele>
        <time>2022-06-06T12:27:05Z</time>
      </trkpt>
      <trkpt lat="44.71159" lon="3.8948">
        <ele>1029</ele>
        <time>2022-06-06T12:27:15Z</time>
      </trkpt>
      <trkpt lat="44.71183" lon="3.89316">
        <ele>1028</ele>
        <time>2022-06-06T12:27:36Z</time>
      </trkpt>
      <trkpt lat="44.71191" lon="3.89292">
        <ele>1027</ele>
        <time>2022-06-06T12:27:40Z</time>
      </trkpt>
      <trkpt lat="44.71235" lon="3.89223">
        <ele>1023</ele>
        <time>2022-06-06T12:27:51Z</time>
      </trkpt>
      <trkpt lat="44.71277" lon="3.89145">
        <ele>1017</ele>
        <time>2022-06-06T12:28:04Z</time>
      </trkpt>
      <trkpt lat="44.7128" lon="3.89128">
        <ele>1016</ele>
        <time>2022-06-06T12:28:06Z</time>
      </trkpt>
      <trkpt lat="44.71279" lon="3.89111">
        <ele>1015</ele>
        <time>2022-06-06T12:28:08Z</time>
      </trkpt>
      <trkpt lat="44.71277" lon="3.89083">
        <ele>1012</ele>
        <time>2022-06-06T12:28:12Z</time>
      </trkpt>
      <trkpt lat="44.71266" lon="3.89022">
        <ele>1008</ele>
        <time>2022-06-06T12:28:20Z</time>
      </trkpt>
      <trkpt lat="44.71266" lon="3.88991">
        <ele>1006</ele>
        <time>2022-06-06T12:28:23Z</time>
      </trkpt>
      <trkpt lat="44.71273" lon="3.88963">
        <ele>1004</ele>
        <time>2022-06-06T12:28:27Z</time>
      </trkpt>
      <trkpt lat="44.71311" lon="3.88876">
        <ele>999</ele>
        <time>2022-06-06T12:28:40Z</time>
      </trkpt>
      <trkpt lat="44.71326" lon="3.88789">
        <ele>995</ele>
        <time>2022-06-06T12:28:51Z</time>
      </trkpt>
      <trkpt lat="44.71341" lon="3.88687">
        <ele>992</ele>
        <time>2022-06-06T12:29:05Z</time>
      </trkpt>
      <trkpt lat="44.71348" lon="3.88629">
        <ele>990</ele>
        <time>2022-06-06T12:29:12Z</time>
      </trkpt>
      <trkpt lat="44.71361" lon="3.88537">
        <ele>987</ele>
        <time>2022-06-06T12:29:24Z</time>
      </trkpt>
      <trkpt lat="44.7138" lon="3.88405">
        <ele>983</ele>
        <time>2022-06-06T12:29:41Z</time>
      </trkpt>
      <trkpt lat="44.71401" lon="3.8827">
        <ele>981</ele>
        <time>2022-06-06T12:29:58Z</time>
      </trkpt>
      <trkpt lat="44.71421" lon="3.88124">
        <ele>979</ele>
        <time>2022-06-06T12:30:17Z</time>
      </trkpt>
      <trkpt lat="44.71484" lon="3.87674">
        <ele>970</ele>
        <time>2022-06-06T12:31:15Z</time>
      </trkpt>
      <trkpt lat="44.71492" lon="3.87648">
        <ele>970</ele>
        <time>2022-06-06T12:31:19Z</time>
      </trkpt>
      <trkpt lat="44.71506" lon="3.87619">
        <ele>970</ele>
        <time>2022-06-06T12:31:23Z</time>
      </trkpt>
      <trkpt lat="44.71573" lon="3.875">
        <ele>966</ele>
        <time>2022-06-06T12:31:42Z</time>
      </trkpt>
      <trkpt lat="44.71645" lon="3.87376">
        <ele>966</ele>
        <time>2022-06-06T12:32:03Z</time>
      </trkpt>
      <trkpt lat="44.71706" lon="3.87277">
        <ele>965</ele>
        <time>2022-06-06T12:32:19Z</time>
      </trkpt>
      <trkpt lat="44.71728" lon="3.87252">
        <ele>964</ele>
        <time>2022-06-06T12:32:24Z</time>
      </trkpt>
      <trkpt lat="44.71871" lon="3.87162">
        <ele>961</ele>
        <time>2022-06-06T12:32:52Z</time>
      </trkpt>
      <trkpt lat="44.71904" lon="3.87152">
        <ele>959</ele>
        <time>2022-06-06T12:32:58Z</time>
      </trkpt>
      <trkpt lat="44.7192" lon="3.8715">
        <ele>958</ele>
        <time>2022-06-06T12:33:01Z</time>
      </trkpt>
      <trkpt lat="44.71932" lon="3.87152">
        <ele>958</ele>
        <time>2022-06-06T12:33:03Z</time>
      </trkpt>
      <trkpt lat="44.71953" lon="3.87165">
        <ele>957</ele>
        <time>2022-06-06T12:33:07Z</time>
      </trkpt>
      <trkpt lat="44.71994" lon="3.87211">
        <ele>954</ele>
        <time>2022-06-06T12:33:17Z</time>
      </trkpt>
      <trkpt lat="44.72002" lon="3.87214">
        <ele>954</ele>
        <time>2022-06-06T12:33:18Z</time>
      </trkpt>
      <trkpt lat="44.72012" lon="3.87211">
        <ele>953</ele>
        <time>2022-06-06T12:33:20Z</time>
      </trkpt>
      <trkpt lat="44.72021" lon="3.87199">
        <ele>952</ele>
        <time>2022-06-06T12:33:22Z</time>
      </trkpt>
      <trkpt lat="44.72029" lon="3.87143">
        <ele>950</ele>
        <time>2022-06-06T12:33:29Z</time>
      </trkpt>
      <trkpt lat="44.72038" lon="3.87115">
        <ele>948</ele>
        <time>2022-06-06T12:33:33Z</time>
      </trkpt>
      <trkpt lat="44.72048" lon="3.87101">
        <ele>947</ele>
        <time>2022-06-06T12:33:36Z</time>
      </trkpt>
      <trkpt lat="44.72072" lon="3.87079">
        <ele>944</ele>
        <time>2022-06-06T12:33:41Z</time>
      </trkpt>
      <trkpt lat="44.72098" lon="3.87061">
        <ele>943</ele>
        <time>2022-06-06T12:33:46Z</time>
      </trkpt>
      <trkpt lat="44.72184" lon="3.87009">
        <ele>939</ele>
        <time>2022-06-06T12:34:03Z</time>
      </trkpt>
      <trkpt lat="44.72231" lon="3.86977">
        <ele>936</ele>
        <time>2022-06-06T12:34:12Z</time>
      </trkpt>
      <trkpt lat="44.7226" lon="3.86946">
        <ele>935</ele>
        <time>2022-06-06T12:34:18Z</time>
      </trkpt>
      <trkpt lat="44.72283" lon="3.86905">
        <ele>932</ele>
        <time>2022-06-06T12:34:25Z</time>
      </trkpt>
      <trkpt lat="44.72297" lon="3.86855">
        <ele>928</ele>
        <time>2022-06-06T12:34:32Z</time>
      </trkpt>
      <trkpt lat="44.72299" lon="3.86812">
        <ele>925</ele>
        <time>2022-06-06T12:34:37Z</time>
      </trkpt>
      <trkpt lat="44.72295" lon="3.86776">
        <ele>923</ele>
        <time>2022-06-06T12:34:42Z</time>
      </trkpt>
      <trkpt lat="44.72287" lon="3.86736">
        <ele>922</ele>
        <time>2022-06-06T12:34:47Z</time>
      </trkpt>
      <trkpt lat="44.72275" lon="3.86699">
        <ele>921</ele>
        <time>2022-06-06T12:34:52Z</time>
      </trkpt>
      <trkpt lat="44.72271" lon="3.86677">
        <ele>920</ele>
        <time>2022-06-06T12:34:55Z</time>
      </trkpt>
      <trkpt lat="44.72273" lon="3.86661">
        <ele>919</ele>
        <time>2022-06-06T12:34:57Z</time>
      </trkpt>
      <trkpt lat="44.72287" lon="3.8663">
        <ele>916</ele>
        <time>2022-06-06T12:35:02Z</time>
      </trkpt>
      <trkpt lat="44.72303" lon="3.86619">
        <ele>915</ele>
        <time>2022-06-06T12:35:05Z</time>
      </trkpt>
      <trkpt lat="44.72323" lon="3.86617">
        <ele>914</ele>
        <time>2022-06-06T12:35:09Z</time>
      </trkpt>
      <trkpt lat="44.72388" lon="3.86624">
        <ele>911</ele>
        <time>2022-06-06T12:35:20Z</time>
      </trkpt>
      <trkpt lat="44.72427" lon="3.86625">
        <ele>909</ele>
        <time>2022-06-06T12:35:27Z</time>
      </trkpt>
      <trkpt lat="44.72456" lon="3.8662">
        <ele>907</ele>
        <time>2022-06-06T12:35:32Z</time>
      </trkpt>
      <trkpt lat="44.72512" lon="3.86614">
        <ele>905</ele>
        <time>2022-06-06T12:35:42Z</time>
      </trkpt>
      <trkpt lat="44.72526" lon="3.86608">
        <ele>904</ele>
        <time>2022-06-06T12:35:45Z</time>
      </trkpt>
      <trkpt lat="44.72536" lon="3.86597">
        <ele>904</ele>
        <time>2022-06-06T12:35:47Z</time>
      </trkpt>
      <trkpt lat="44.72544" lon="3.86578">
        <ele>904</ele>
        <time>2022-06-06T12:35:50Z</time>
      </trkpt>
      <trkpt lat="44.72564" lon="3.86523">
        <ele>907</ele>
        <time>2022-06-06T12:35:58Z</time>
      </trkpt>
      <trkpt lat="44.72571" lon="3.86504">
        <ele>908</ele>
        <time>2022-06-06T12:36:00Z</time>
      </trkpt>
      <trkpt lat="44.72583" lon="3.86489">
        <ele>911</ele>
        <time>2022-06-06T12:36:03Z</time>
      </trkpt>
      <trkpt lat="44.72597" lon="3.86481">
        <ele>912</ele>
        <time>2022-06-06T12:36:06Z</time>
      </trkpt>
      <trkpt lat="44.72614" lon="3.86482">
        <ele>913</ele>
        <time>2022-06-06T12:36:09Z</time>
      </trkpt>
      <trkpt lat="44.72637" lon="3.86488">
        <ele>913</ele>
        <time>2022-06-06T12:36:13Z</time>
      </trkpt>
      <trkpt lat="44.72667" lon="3.86486">
        <ele>914</ele>
        <time>2022-06-06T12:36:19Z</time>
      </trkpt>
      <trkpt lat="44.72669" lon="3.86434">
        <ele>919</ele>
        <time>2022-06-06T12:36:25Z</time>
      </trkpt>
      <trkpt lat="44.72673" lon="3.86367">
        <ele>926</ele>
        <time>2022-06-06T12:36:34Z</time>
      </trkpt>
      <trkpt lat="44.72675" lon="3.86282">
        <ele>930</ele>
        <time>2022-06-06T12:36:44Z</time>
      </trkpt>
      <trkpt lat="44.72669" lon="3.86224">
        <ele>931</ele>
        <time>2022-06-06T12:36:52Z</time>
      </trkpt>
      <trkpt lat="44.72659" lon="3.86166">
        <ele>930</ele>
        <time>2022-06-06T12:36:59Z</time>
      </trkpt>
      <trkpt lat="44.72646" lon="3.86111">
        <ele>932</ele>
        <time>2022-06-06T12:37:07Z</time>
      </trkpt>
      <trkpt lat="44.7265" lon="3.8611">
        <ele>932</ele>
        <time>2022-06-06T12:37:07Z</time>
      </trkpt>
      <trkpt lat="44.72652" lon="3.86107">
        <ele>932</ele>
        <time>2022-06-06T12:37:08Z</time>
      </trkpt>
      <trkpt lat="44.72652" lon="3.86102">
        <ele>932</ele>
        <time>2022-06-06T12:37:09Z</time>
      </trkpt>
      <trkpt lat="44.72649" lon="3.86098">
        <ele>932</ele>
        <time>2022-06-06T12:37:09Z</time>
      </trkpt>
      <trkpt lat="44.72645" lon="3.86098">
        <ele>932</ele>
        <time>2022-06-06T12:37:10Z</time>
      </trkpt>
      <trkpt lat="44.72645" lon="3.86073">
        <ele>932</ele>
        <time>2022-06-06T12:37:13Z</time>
      </trkpt>
      <trkpt lat="44.72635" lon="3.86036">
        <ele>932</ele>
        <time>2022-06-06T12:37:18Z</time>
      </trkpt>
      <trkpt lat="44.726" lon="3.85936">
        <ele>930</ele>
        <time>2022-06-06T12:37:32Z</time>
      </trkpt>
      <trkpt lat="44.72597" lon="3.85924">
        <ele>929</ele>
        <time>2022-06-06T12:37:34Z</time>
      </trkpt>
      <trkpt lat="44.72588" lon="3.85894">
        <ele>926</ele>
        <time>2022-06-06T12:37:38Z</time>
      </trkpt>
      <trkpt lat="44.72582" lon="3.85878">
        <ele>925</ele>
        <time>2022-06-06T12:37:40Z</time>
      </trkpt>
      <trkpt lat="44.72578" lon="3.85865">
        <ele>924</ele>
        <time>2022-06-06T12:37:42Z</time>
      </trkpt>
      <trkpt lat="44.72578" lon="3.85824">
        <ele>919</ele>
        <time>2022-06-06T12:37:47Z</time>
      </trkpt>
      <trkpt lat="44.72582" lon="3.85797">
        <ele>917</ele>
        <time>2022-06-06T12:37:51Z</time>
      </trkpt>
      <trkpt lat="44.72585" lon="3.85788">
        <ele>916</ele>
        <time>2022-06-06T12:37:52Z</time>
      </trkpt>
      <trkpt lat="44.72588" lon="3.85769">
        <ele>914</ele>
        <time>2022-06-06T12:37:54Z</time>
      </trkpt>
      <trkpt lat="44.7259" lon="3.8576">
        <ele>913</ele>
        <time>2022-06-06T12:37:56Z</time>
      </trkpt>
      <trkpt lat="44.72604" lon="3.85767">
        <ele>914</ele>
        <time>2022-06-06T12:37:58Z</time>
      </trkpt>
      <trkpt lat="44.7265" lon="3.85756">
        <ele>913</ele>
        <time>2022-06-06T12:38:07Z</time>
      </trkpt>
      <trkpt lat="44.72659" lon="3.85756">
        <ele>913</ele>
        <time>2022-06-06T12:38:08Z</time>
      </trkpt>
      <trkpt lat="44.72665" lon="3.85731">
        <ele>912</ele>
        <time>2022-06-06T12:38:11Z</time>
      </trkpt>
      <trkpt lat="44.72668" lon="3.85723">
        <ele>912</ele>
        <time>2022-06-06T12:38:13Z</time>
      </trkpt>
      <trkpt lat="44.72684" lon="3.8567">
        <ele>911</ele>
        <time>2022-06-06T12:38:20Z</time>
      </trkpt>
      <trkpt lat="44.72693" lon="3.85624">
        <ele>912</ele>
        <time>2022-06-06T12:38:26Z</time>
      </trkpt>
      <trkpt lat="44.72694" lon="3.85619">
        <ele>912</ele>
        <time>2022-06-06T12:38:27Z</time>
      </trkpt>
      <trkpt lat="44.72667" lon="3.8561">
        <ele>912</ele>
        <time>2022-06-06T12:38:32Z</time>
      </trkpt>
      <trkpt lat="44.72644" lon="3.85592">
        <ele>912</ele>
        <time>2022-06-06T12:38:36Z</time>
      </trkpt>
      <trkpt lat="44.72624" lon="3.85562">
        <ele>913</ele>
        <time>2022-06-06T12:38:41Z</time>
      </trkpt>
      <trkpt lat="44.72612" lon="3.85516">
        <ele>915</ele>
        <time>2022-06-06T12:38:48Z</time>
      </trkpt>
      <trkpt lat="44.72649" lon="3.85481">
        <ele>919</ele>
        <time>2022-06-06T12:38:56Z</time>
      </trkpt>
      <trkpt lat="44.72656" lon="3.85472">
        <ele>920</ele>
        <time>2022-06-06T12:38:57Z</time>
      </trkpt>
      <trkpt lat="44.7268" lon="3.85462">
        <ele>922</ele>
        <time>2022-06-06T12:39:02Z</time>
      </trkpt>
      <trkpt lat="44.72685" lon="3.85464">
        <ele>922</ele>
        <time>2022-06-06T12:39:03Z</time>
      </trkpt>
      <trkpt lat="44.72689" lon="3.85452">
        <ele>923</ele>
        <time>2022-06-06T12:39:04Z</time>
      </trkpt>
      <trkpt lat="44.7269" lon="3.85446">
        <ele>923</ele>
        <time>2022-06-06T12:39:05Z</time>
      </trkpt>
      <trkpt lat="44.72689" lon="3.85432">
        <ele>925</ele>
        <time>2022-06-06T12:39:07Z</time>
      </trkpt>
      <trkpt lat="44.7268" lon="3.85384">
        <ele>928</ele>
        <time>2022-06-06T12:39:13Z</time>
      </trkpt>
      <trkpt lat="44.72646" lon="3.85337">
        <ele>930</ele>
        <time>2022-06-06T12:39:22Z</time>
      </trkpt>
      <trkpt lat="44.72642" lon="3.85335">
        <ele>930</ele>
        <time>2022-06-06T12:39:22Z</time>
      </trkpt>
      <trkpt lat="44.72627" lon="3.85275">
        <ele>933</ele>
        <time>2022-06-06T12:39:30Z</time>
      </trkpt>
      <trkpt lat="44.72626" lon="3.85232">
        <ele>936</ele>
        <time>2022-06-06T12:39:36Z</time>
      </trkpt>
      <trkpt lat="44.72621" lon="3.85199">
        <ele>937</ele>
        <time>2022-06-06T12:39:40Z</time>
      </trkpt>
      <trkpt lat="44.7262" lon="3.85152">
        <ele>939</ele>
        <time>2022-06-06T12:39:46Z</time>
      </trkpt>
      <trkpt lat="44.72625" lon="3.85107">
        <ele>941</ele>
        <time>2022-06-06T12:39:52Z</time>
      </trkpt>
      <trkpt lat="44.72633" lon="3.85062">
        <ele>942</ele>
        <time>2022-06-06T12:39:58Z</time>
      </trkpt>
      <trkpt lat="44.72641" lon="3.85033">
        <ele>943</ele>
        <time>2022-06-06T12:40:02Z</time>
      </trkpt>
      <trkpt lat="44.72644" lon="3.8502">
        <ele>943</ele>
        <time>2022-06-06T12:40:03Z</time>
      </trkpt>
      <trkpt lat="44.72629" lon="3.84985">
        <ele>942</ele>
        <time>2022-06-06T12:40:08Z</time>
      </trkpt>
      <trkpt lat="44.7259" lon="3.84917">
        <ele>943</ele>
        <time>2022-06-06T12:40:20Z</time>
      </trkpt>
      <trkpt lat="44.72579" lon="3.84894">
        <ele>946</ele>
        <time>2022-06-06T12:40:23Z</time>
      </trkpt>
      <trkpt lat="44.7257" lon="3.84869">
        <ele>948</ele>
        <time>2022-06-06T12:40:27Z</time>
      </trkpt>
      <trkpt lat="44.7256" lon="3.84852">
        <ele>950</ele>
        <time>2022-06-06T12:40:29Z</time>
      </trkpt>
      <trkpt lat="44.72497" lon="3.84808">
        <ele>950</ele>
        <time>2022-06-06T12:40:42Z</time>
      </trkpt>
      <trkpt lat="44.72487" lon="3.84794">
        <ele>951</ele>
        <time>2022-06-06T12:40:44Z</time>
      </trkpt>
      <trkpt lat="44.72484" lon="3.84778">
        <ele>952</ele>
        <time>2022-06-06T12:40:46Z</time>
      </trkpt>
      <trkpt lat="44.72486" lon="3.84737">
        <ele>957</ele>
        <time>2022-06-06T12:40:52Z</time>
      </trkpt>
      <trkpt lat="44.72479" lon="3.84695">
        <ele>961</ele>
        <time>2022-06-06T12:40:57Z</time>
      </trkpt>
      <trkpt lat="44.72469" lon="3.84653">
        <ele>962</ele>
        <time>2022-06-06T12:41:03Z</time>
      </trkpt>
      <trkpt lat="44.72468" lon="3.8461">
        <ele>963</ele>
        <time>2022-06-06T12:41:08Z</time>
      </trkpt>
      <trkpt lat="44.72485" lon="3.84512">
        <ele>962</ele>
        <time>2022-06-06T12:41:21Z</time>
      </trkpt>
      <trkpt lat="44.7249" lon="3.84399">
        <ele>958</ele>
        <time>2022-06-06T12:41:35Z</time>
      </trkpt>
      <trkpt lat="44.72488" lon="3.84373">
        <ele>958</ele>
        <time>2022-06-06T12:41:39Z</time>
      </trkpt>
      <trkpt lat="44.72449" lon="3.84165">
        <ele>963</ele>
        <time>2022-06-06T12:42:06Z</time>
      </trkpt>
      <trkpt lat="44.72453" lon="3.84071">
        <ele>964</ele>
        <time>2022-06-06T12:42:18Z</time>
      </trkpt>
      <trkpt lat="44.72444" lon="3.84017">
        <ele>964</ele>
        <time>2022-06-06T12:42:25Z</time>
      </trkpt>
      <trkpt lat="44.72443" lon="3.84008">
        <ele>964</ele>
        <time>2022-06-06T12:42:26Z</time>
      </trkpt>
      <trkpt lat="44.72453" lon="3.83984">
        <ele>964</ele>
        <time>2022-06-06T12:42:29Z</time>
      </trkpt>
      <trkpt lat="44.72475" lon="3.83953">
        <ele>965</ele>
        <time>2022-06-06T12:42:35Z</time>
      </trkpt>
      <trkpt lat="44.72482" lon="3.83938">
        <ele>965</ele>
        <time>2022-06-06T12:42:37Z</time>
      </trkpt>
      <trkpt lat="44.72494" lon="3.83918">
        <ele>965</ele>
        <time>2022-06-06T12:42:40Z</time>
      </trkpt>
      <trkpt lat="44.72526" lon="3.83876">
        <ele>963</ele>
        <time>2022-06-06T12:42:48Z</time>
      </trkpt>
      <trkpt lat="44.72566" lon="3.83831">
        <ele>963</ele>
        <time>2022-06-06T12:42:57Z</time>
      </trkpt>
      <trkpt lat="44.72613" lon="3.83785">
        <ele>962</ele>
        <time>2022-06-06T12:43:08Z</time>
      </trkpt>
      <trkpt lat="44.72632" lon="3.83769">
        <ele>962</ele>
        <time>2022-06-06T12:43:11Z</time>
      </trkpt>
      <trkpt lat="44.72681" lon="3.83743">
        <ele>963</ele>
        <time>2022-06-06T12:43:21Z</time>
      </trkpt>
      <trkpt lat="44.72711" lon="3.83735">
        <ele>963</ele>
        <time>2022-06-06T12:43:26Z</time>
      </trkpt>
    </trkseg>
  </trk>
</gpx>